GFSSE_850_spd_000.txt.gz
Wind_Speed
6 7 12 13 13 11 8 7 5 3 4 4 2 4 6 6 9 6 5 4 7 9 1 2 1 1 4 6 8 8 8 13 17 18 15 9 10 11 11 6 12 10 8
5 10 11 13 15 13 11 8 7 5 4 3 2 7 13 6 5 2 3 5 8 7 4 4 7 7 7 9 10 8 9 14 8 11 5 4 5 5 7 8 5 9 5
8 10 9 11 14 14 12 10 7 6 5 2 3 7 6 6 2 1 1 2 3 3 6 4 3 5 8 9 9 10 11 15 13 6 3 4 5 6 7 7 6 11 9
7 10 10 12 14 12 9 8 5 4 3 2 5 6 5 5 4 2 3 3 3 8 8 8 5 4 5 7 10 11 14 14 12 9 5 6 6 7 8 9 8 10 11
8 10 9 12 12 11 10 7 4 2 1 1 6 9 9 6 3 2 1 2 7 10 9 8 5 4 3 3 3 6 7 8 9 8 7 7 8 9 9 11 12 10 11
9 10 8 9 10 11 9 5 4 1 1 3 7 10 9 6 3 4 3 4 8 11 8 7 7 7 6 6 6 6 6 8 9 8 8 9 12 9 10 13 14 12 11
10 9 7 8 9 9 7 6 4 2 3 4 5 7 7 7 5 3 3 5 8 7 7 8 8 8 7 8 7 7 8 7 9 9 10 10 11 13 12 13 15 15 14
8 9 8 8 10 10 8 7 5 4 4 3 3 4 4 5 5 4 6 5 5 4 5 7 8 8 9 9 9 10 10 10 10 10 12 13 12 12 14 13 15 16 15
9 9 8 10 11 11 9 7 6 6 5 2 1 1 2 3 5 5 3 3 3 4 7 8 9 9 9 10 11 12 13 12 13 13 13 12 11 12 14 15 14 16 17
12 11 11 12 12 11 9 8 6 6 4 1 1 0 2 4 5 4 3 2 3 6 7 8 8 9 9 9 10 11 13 14 14 15 15 14 14 15 15 16 16 17 19
17 16 14 12 13 11 10 9 8 6 4 4 4 2 4 5 5 3 2 1 3 5 5 6 7 7 8 9 11 13 15 16 17 18 16 15 16 17 17 16 17 17 18
18 18 17 15 14 12 12 11 8 7 7 6 5 5 3 3 3 1 1 2 3 4 6 8 9 10 13 14 15 14 15 17 17 18 19 18 17 17 18 19 19 19 21
9 15 17 17 15 14 13 11 10 8 9 8 6 6 4 3 1 1 1 2 3 6 7 12 12 14 15 14 14 14 14 15 16 18 17 18 19 20 20 20 21 23 24
16 15 16 18 17 15 13 11 9 10 10 9 9 7 5 4 4 4 4 3 6 7 8 11 13 14 13 15 16 15 16 15 15 15 16 16 17 16 15 19 19 19 21
18 17 18 20 20 19 15 14 14 13 10 9 9 6 5 6 6 5 6 6 7 9 10 13 17 15 14 14 15 17 18 19 18 17 18 19 21 18 18 16 17 19 21
19 18 19 20 21 21 20 18 16 14 11 12 10 9 9 8 8 8 7 8 9 12 15 14 13 14 16 19 20 21 21 20 20 20 20 20 16 11 10 12 12 12 13
22 18 21 20 21 22 22 19 16 13 13 13 12 9 7 7 8 8 7 9 11 10 10 12 14 17 20 21 22 20 18 15 14 14 12 8 9 9 10 11 12 11 12
20 21 21 20 20 21 20 18 18 18 17 14 12 9 8 7 6 5 6 6 7 10 12 16 18 19 19 19 18 16 13 11 8 8 8 8 11 13 14 15 15 16 15
20 23 24 21 21 20 18 18 18 17 16 15 12 12 8 7 4 3 3 6 9 13 15 16 15 16 17 16 16 15 11 5 7 10 9 10 13 14 14 14 16 16 18
22 21 22 24 25 22 20 20 18 17 15 13 12 10 8 7 3 1 6 9 13 15 15 15 14 13 16 18 18 18 10 3 13 2 17 8 16 14 14 18 20 22 24
19 22 26 29 29 26 23 24 21 17 16 15 13 13 10 5 2 5 9 13 16 19 19 18 16 16 16 22 25 25 15 11 6 6 19 17 18 15 22 20 22 22 23
17 19 26 32 30 24 20 21 18 18 17 17 17 13 8 3 4 8 11 15 18 18 17 17 18 18 18 22 24 21 14 17 5 31 10 27 13 27 18 24 23 22 23
20 23 27 28 25 20 19 20 21 20 22 21 16 10 6 2 5 8 13 16 19 19 17 17 17 19 21 20 19 14 9 8 38 15 35 15 28 24 31 28 27 24 26
24 25 26 25 23 21 20 22 22 24 23 18 13 9 4 1 5 9 13 17 19 19 16 16 17 18 20 22 20 19 15 19 18 22 26 42 29 39 36 33 30 29 32
27 27 26 24 23 20 19 20 22 21 19 16 12 8 4 2 6 10 14 17 19 17 15 15 16 17 19 20 21 24 25 25 25 27 33 31 41 42 39 33 34 35 34
28 27 27 26 23 22 22 22 21 19 17 14 11 7 4 4 7 10 14 17 18 16 15 16 17 18 19 20 22 23 24 26 30 31 35 37 35 34 25 35 35 36 26

GFSSE_850_spd_003.txt.gz
Wind_Speed
9 11 15 13 11 12 8 7 4 4 4 3 2 7 8 10 11 8 7 6 9 14 10 4 5 3 3 6 10 12 13 14 16 19 17 16 13 15 17 14 11 13 10
8 13 16 16 13 11 9 9 6 5 5 3 1 11 9 4 8 5 4 6 7 11 5 3 8 7 8 9 9 9 11 13 11 15 10 6 4 4 6 5 7 8 7
8 11 12 15 15 12 12 9 6 6 5 2 1 8 8 5 3 1 1 3 4 4 5 6 4 7 7 8 8 10 12 13 15 12 9 5 4 5 5 6 8 6 9
8 11 11 14 16 13 11 8 7 7 4 2 4 5 4 5 4 3 4 5 3 6 6 7 3 2 3 5 6 8 9 12 11 8 7 5 6 6 6 7 8 8 11
11 11 11 12 13 13 10 8 6 5 4 4 7 9 8 5 4 2 1 4 8 9 7 6 5 4 4 2 3 3 4 6 6 6 5 5 7 8 7 7 10 10 10
11 11 9 11 11 11 9 7 6 4 3 5 8 10 9 5 4 3 1 5 5 7 7 7 6 6 6 5 4 4 4 5 6 6 7 8 10 9 10 9 13 13 11
11 11 9 10 10 10 8 7 6 4 4 5 8 10 9 7 4 2 3 3 6 5 5 7 8 8 8 7 8 7 7 7 9 10 10 10 10 11 12 13 12 13 15
10 11 10 9 10 10 9 7 6 6 5 5 6 7 7 8 7 5 5 6 4 2 4 5 6 7 7 7 7 8 8 9 10 11 12 12 11 11 11 12 14 13 16
10 11 9 9 10 11 10 9 8 7 6 4 4 4 5 6 8 7 5 5 3 2 5 6 6 6 6 6 6 6 7 8 9 9 10 10 10 10 12 13 14 14 14
12 12 10 10 13 13 12 11 9 8 5 3 2 2 3 6 7 6 4 2 1 3 4 5 4 4 5 6 7 8 10 11 12 12 11 9 9 9 9 12 12 12 14
17 16 13 12 14 14 13 12 11 9 6 5 4 3 5 6 6 4 3 1 1 2 3 5 6 7 9 10 10 10 11 12 13 12 12 10 11 11 11 11 11 12 15
20 20 17 15 15 16 15 14 12 9 8 7 6 6 5 5 5 4 2 2 1 1 3 5 7 8 11 14 14 13 13 13 14 13 12 9 11 13 12 11 15 17 19
14 19 20 17 16 17 16 15 13 11 10 8 7 7 5 5 5 4 3 1 2 5 5 7 11 14 14 15 16 16 16 17 18 16 15 16 15 14 15 15 15 17 18
18 18 18 19 19 18 15 14 12 10 10 9 9 7 5 5 4 3 3 3 4 6 9 12 14 16 18 17 18 17 18 19 20 20 19 18 18 18 18 17 17 15 17
25 23 21 19 21 19 17 15 14 11 10 9 9 7 6 4 6 6 3 3 5 8 11 14 18 19 16 16 19 21 21 22 21 20 19 18 19 18 14 13 11 11 12
25 25 24 22 20 20 18 16 13 11 12 11 10 8 6 6 8 6 3 5 8 13 14 16 15 19 21 23 24 24 22 20 17 15 14 12 9 8 7 7 9 10 10
27 23 23 24 21 21 19 17 14 13 12 12 10 8 7 6 5 4 5 8 10 10 12 15 19 22 24 24 22 19 15 13 11 9 7 7 8 7 8 9 11 12 12
27 25 23 25 22 21 20 18 18 14 14 13 12 10 7 6 5 4 5 6 7 10 15 18 20 21 21 20 18 14 12 10 8 7 7 9 9 10 10 11 13 15 17
28 25 25 26 23 22 22 20 19 17 16 15 13 10 7 5 5 4 3 5 9 12 14 15 16 18 19 18 17 14 10 9 8 8 6 10 11 13 12 12 14 17 18
22 22 25 27 25 24 24 20 18 16 16 15 13 12 7 7 6 2 4 7 11 14 16 16 15 15 18 20 19 17 8 7 12 12 9 16 11 16 12 17 19 18 20
21 21 28 30 28 29 26 22 19 16 16 15 14 11 10 9 4 2 6 10 14 18 19 18 16 15 17 22 25 23 11 8 14 11 15 19 20 18 15 25 20 22 22
24 24 27 30 33 33 24 20 20 18 18 17 15 15 12 7 1 4 8 12 15 17 16 15 16 16 18 21 23 19 13 15 6 13 22 16 25 18 29 22 27 26 26
24 24 27 32 35 30 21 20 19 21 21 21 20 16 11 5 0 5 9 13 16 17 16 15 15 17 17 16 18 15 9 7 35 16 33 27 32 33 32 32 31 29 28
22 21 22 29 31 25 20 23 23 24 24 23 20 15 9 4 2 6 9 13 16 16 14 14 15 16 18 20 18 16 14 18 15 20 27 42 35 41 40 39 35 30 33
22 22 22 28 26 22 20 20 22 23 24 23 20 14 9 5 4 6 9 13 15 15 14 14 14 16 18 19 20 23 24 24 22 20 35 41 47 45 44 39 39 38 33
24 24 25 26 23 20 18 19 20 25 26 23 19 14 9 6 5 7 10 13 15 15 15 15 16 17 19 20 21 22 22 23 26 25 32 39 41 44 45 47 37 35 33

GFSSE_850_spd_006.txt.gz
Wind_Speed
10 11 17 12 11 9 6 4 3 0 2 4 4 7 8 10 10 8 6 6 8 11 12 8 5 3 3 6 8 7 9 13 13 12 14 12 11 9 10 12 12 12 10
8 13 16 13 13 10 7 6 3 2 3 3 3 7 5 7 9 6 4 5 7 8 5 2 7 6 7 6 5 8 9 11 11 10 13 8 4 3 2 4 8 6 6
9 13 16 15 13 10 8 6 4 3 4 1 3 11 8 5 4 3 2 1 1 3 4 4 2 6 5 8 8 8 8 9 8 7 9 4 4 3 2 4 6 6 6
10 13 15 14 12 10 7 6 4 4 3 1 5 8 5 6 5 5 7 3 6 6 5 6 4 2 0 3 4 5 4 4 6 6 5 4 3 4 4 7 8 7 7
13 11 13 16 12 10 8 7 4 3 3 3 7 8 6 5 5 4 6 7 7 8 7 7 8 6 6 4 3 3 4 4 4 5 5 5 5 5 5 4 6 10 9
14 13 11 12 13 11 8 6 4 3 3 4 8 10 9 5 4 2 0 3 5 6 7 8 8 8 8 7 6 5 4 5 5 6 7 7 7 7 7 7 8 11 11
14 14 11 11 11 10 9 7 4 3 3 5 8 11 10 7 4 5 3 3 3 4 5 7 7 7 6 5 5 4 5 5 6 6 7 7 8 8 8 8 9 10 12
11 12 11 10 9 8 8 6 5 4 4 5 8 10 10 9 7 5 4 5 4 3 4 5 5 5 5 5 5 5 5 6 6 7 7 7 7 7 7 8 10 11 10
10 11 10 9 9 10 10 8 6 6 5 5 6 6 8 9 9 6 5 4 3 2 4 4 4 5 6 6 6 6 7 7 8 8 8 8 8 9 10 10 11 13 13
10 11 10 10 10 10 11 10 7 7 6 5 3 3 4 7 8 7 5 2 2 1 1 3 5 6 6 7 8 9 11 12 13 13 12 9 10 10 11 12 12 13 13
15 14 13 12 12 12 12 11 9 8 6 5 5 3 4 6 6 5 4 4 2 1 1 2 4 5 8 10 11 12 13 13 13 12 11 11 11 11 11 11 13 15 17
16 17 17 15 14 14 15 13 12 11 9 7 6 4 4 7 7 6 5 4 3 2 3 4 7 9 10 12 12 13 14 15 15 15 14 14 14 14 14 13 14 15 16
11 14 16 16 15 15 16 15 14 12 10 9 8 7 6 6 5 5 5 4 3 3 3 6 10 12 13 15 15 16 17 18 19 19 19 17 17 17 16 16 15 15 17
14 15 15 17 17 16 16 16 14 13 11 10 9 8 6 5 5 5 4 1 2 4 7 8 11 14 17 17 16 17 20 22 22 22 21 19 18 17 16 15 10 10 13
18 19 19 18 19 18 17 16 15 13 10 10 10 8 7 5 5 4 3 2 4 7 10 11 14 15 15 17 20 22 24 23 22 20 17 16 14 12 7 7 8 9 8
23 22 22 22 21 19 19 17 15 13 11 11 9 9 7 5 4 3 4 3 7 11 13 12 15 18 21 23 24 23 21 19 16 12 10 9 7 7 8 8 9 9 8
29 27 25 23 24 22 21 19 16 15 12 11 9 9 7 6 5 4 3 6 10 9 11 15 19 22 23 21 19 16 14 13 11 8 7 7 7 9 9 10 12 12 14
22 27 27 23 25 23 22 21 19 14 12 12 10 10 8 6 5 5 6 7 7 10 13 17 19 19 18 17 14 12 13 12 10 8 7 9 10 11 12 13 14 15 17
22 20 23 22 26 25 24 23 19 15 15 13 11 10 8 6 5 7 5 5 8 11 14 16 17 17 17 15 14 11 12 9 10 10 10 8 10 12 14 14 15 18 20
22 20 24 23 26 25 23 23 19 16 16 15 14 13 10 8 7 5 4 6 9 12 14 15 15 16 18 18 17 15 8 8 9 12 17 12 16 15 22 19 19 23 22
23 21 22 25 29 27 27 25 21 18 17 17 17 14 12 10 8 4 3 6 11 15 18 18 17 16 18 22 23 20 8 4 12 15 10 17 21 18 23 21 28 26 27
23 22 22 26 30 29 27 23 19 18 17 17 16 15 13 11 7 3 3 8 13 17 18 18 17 17 19 22 23 19 10 10 1 9 24 19 25 21 29 24 28 28 29
26 24 24 28 32 30 27 24 21 19 19 21 20 19 17 12 7 2 5 9 13 16 18 18 18 18 18 17 19 16 8 7 31 8 28 18 31 29 34 33 33 31 31
29 25 24 27 33 29 26 23 21 23 23 22 22 20 16 12 6 3 6 9 13 16 17 17 18 18 18 18 16 16 15 16 13 18 16 38 33 41 40 39 37 38 33
28 25 23 25 30 29 28 22 23 21 21 25 24 21 16 10 5 4 7 10 13 15 16 16 16 17 18 19 20 21 20 20 19 20 35 40 45 44 43 44 40 35 35
28 23 22 24 29 30 27 25 25 24 25 27 25 21 15 10 6 6 7 10 13 15 16 16 17 18 19 20 20 20 21 21 23 22 32 42 43 44 49 41 39 35 34

GFSSE_850_spd_009.txt.gz
Wind_Speed
10 13 16 12 11 9 6 6 5 3 1 2 5 7 9 8 7 6 6 5 6 7 9 8 4 5 7 8 6 4 6 9 9 10 10 7 5 6 8 8 12 13 11
10 13 16 13 11 9 6 4 3 1 2 2 4 7 10 9 9 7 4 3 5 4 4 2 7 8 8 7 5 7 9 9 8 9 8 6 2 2 1 4 3 9 7
11 13 15 14 13 9 6 4 2 1 2 2 9 7 6 6 5 3 2 2 3 2 4 3 3 5 7 9 8 8 8 7 6 5 4 3 2 1 0 4 2 7 4
11 13 14 16 13 9 5 4 2 1 2 3 7 9 8 8 5 6 8 3 7 6 6 6 6 4 2 3 4 4 3 2 3 4 3 3 3 3 3 2 4 7 5
13 13 14 14 12 9 6 4 2 1 1 3 9 10 9 8 7 10 7 7 7 8 8 8 8 7 6 5 3 3 3 3 4 4 4 4 4 4 5 4 3 6 11
14 14 15 14 11 8 6 4 2 0 1 4 7 11 8 6 5 3 3 3 4 6 7 7 7 6 6 5 3 2 2 2 1 2 2 3 4 4 5 6 6 9 11
14 14 14 14 11 9 7 5 3 1 2 4 9 13 10 6 4 7 4 3 4 3 4 5 5 4 3 3 2 2 3 4 4 4 4 4 5 6 6 7 8 9 9
11 13 13 13 12 11 7 6 3 2 3 6 10 11 11 9 6 7 6 3 3 3 3 4 5 5 5 5 4 3 3 4 6 6 6 6 7 8 8 8 9 10 11
12 13 12 13 12 11 8 6 4 4 4 6 8 9 10 10 7 6 5 3 2 2 2 3 4 4 4 5 6 7 8 9 10 11 11 11 12 12 10 10 12 13 15
12 13 12 11 12 12 10 8 5 4 6 7 6 6 7 9 9 8 6 4 4 2 0 1 3 4 5 7 9 11 12 12 11 12 10 10 12 13 12 11 14 15 16
14 13 14 13 12 12 11 10 7 5 5 6 4 4 5 7 8 8 7 6 4 2 2 2 4 6 8 10 11 12 12 12 12 12 12 12 13 12 12 14 15 16 16
14 15 15 15 13 13 13 12 10 8 7 6 5 4 4 7 9 8 7 6 4 3 4 5 6 9 10 11 12 13 14 15 15 15 15 15 14 15 15 15 14 15 17
9 13 15 16 16 14 14 14 12 10 9 8 7 6 6 6 7 7 6 5 5 4 4 6 8 10 12 15 16 15 16 17 19 20 20 18 16 15 14 13 10 11 14
9 10 11 14 17 15 14 16 14 12 11 9 9 8 7 7 6 6 6 5 3 3 6 9 10 13 15 15 17 18 20 21 21 21 20 18 15 12 6 6 9 12 11
14 11 13 13 15 17 17 17 15 13 12 10 10 10 9 7 6 7 6 3 4 5 8 11 12 14 16 18 20 20 21 20 19 16 13 12 9 10 9 10 11 8 7
17 16 17 16 17 18 19 18 16 14 13 11 11 11 9 8 6 6 6 5 6 8 11 11 13 17 19 19 19 18 16 15 13 10 7 6 7 7 8 10 9 11 12
18 19 21 22 20 21 21 19 18 17 14 11 10 11 10 8 8 8 6 6 7 8 10 14 17 18 18 16 15 14 12 12 10 7 5 5 6 8 9 11 12 14 15
21 21 23 25 24 23 24 21 19 17 16 13 13 11 12 10 8 8 7 7 6 8 12 15 17 17 16 13 11 11 10 10 8 6 4 5 7 9 10 12 14 16 17
25 26 25 25 25 24 26 24 20 19 17 17 14 14 12 9 9 9 8 5 6 9 12 15 15 15 13 11 10 11 11 8 8 9 8 8 9 10 13 15 17 19 21
24 24 24 23 22 24 27 25 23 21 20 20 17 16 14 10 7 9 7 5 6 8 11 12 13 14 15 16 14 13 5 5 7 10 11 15 16 17 17 20 22 24 25
21 22 26 25 25 27 30 29 26 24 23 22 20 19 15 12 10 10 6 3 5 9 11 13 13 15 17 19 17 12 7 1 8 9 9 12 18 18 22 24 26 28 28
21 24 26 27 26 29 30 31 25 24 24 24 24 21 17 13 13 9 5 4 7 10 12 14 15 17 19 20 20 13 7 6 2 13 15 16 19 17 25 25 27 26 26
26 25 26 26 28 30 31 31 24 24 25 26 25 21 19 17 14 9 5 5 7 10 13 16 17 17 17 19 19 14 7 4 24 1 21 10 26 24 31 31 29 31 28
26 25 26 26 28 29 31 27 25 25 26 26 24 22 21 19 14 9 6 4 7 11 14 16 18 19 18 17 17 16 13 13 8 13 13 28 29 36 34 31 36 28 32
27 28 28 26 27 29 27 25 28 23 26 24 26 25 24 19 14 9 5 5 8 11 14 16 18 18 18 18 18 17 16 16 16 17 25 32 38 36 35 42 31 37 31
28 29 28 27 28 31 29 26 27 22 26 28 28 28 24 18 13 8 6 7 9 12 14 16 17 18 18 18 18 18 18 17 19 20 20 29 30 28 44 32 38 31 32

GFSSE_850_spd_012.txt.gz
Wind_Speed
11 15 16 14 13 11 10 9 7 5 3 3 6 9 7 6 6 3 5 6 6 7 9 9 3 2 7 6 6 2 7 8 8 10 10 11 8 7 8 10 9 6 14
11 15 15 14 12 11 9 8 5 3 2 1 6 6 9 8 6 4 5 4 5 5 5 4 6 8 6 4 5 6 9 10 10 10 9 6 3 2 1 3 4 7 7
14 16 14 14 12 10 7 6 4 2 3 5 8 7 10 8 6 6 3 2 3 3 4 3 4 7 10 8 7 6 9 10 8 7 5 3 4 4 2 3 3 5 5
16 16 15 15 13 9 6 5 3 2 3 6 9 7 12 8 7 7 8 6 7 5 5 5 4 2 5 7 7 7 5 3 3 3 4 3 4 4 4 4 5 5 5
17 16 15 15 13 9 6 5 3 1 3 7 12 13 12 10 12 9 6 5 5 6 6 6 6 5 4 2 1 1 3 3 2 4 5 4 4 6 5 5 3 5 7
16 16 14 13 13 9 6 5 3 2 4 7 10 14 11 8 6 3 2 4 5 5 5 5 5 5 4 3 2 2 2 3 3 5 6 7 6 7 7 7 7 8 10
15 16 14 13 13 10 7 5 3 3 4 7 11 15 9 7 7 7 3 1 3 3 3 4 5 5 4 4 4 4 5 5 5 6 7 8 9 9 8 8 8 9 10
15 15 15 14 13 11 8 5 3 3 5 8 12 13 10 8 5 5 4 3 3 2 3 4 4 4 4 4 4 5 5 6 7 8 9 9 12 12 11 11 11 12 12
14 13 13 13 15 11 9 7 4 4 5 9 11 12 10 9 6 5 6 5 4 2 2 3 3 4 5 6 8 9 10 11 9 9 12 9 14 14 13 11 12 14 16
15 14 13 12 12 12 10 8 5 5 6 8 9 9 9 9 8 7 5 5 4 3 2 1 2 5 7 8 10 11 11 10 9 11 9 10 12 12 12 12 14 16 16
15 16 15 13 13 14 11 10 8 6 7 8 7 7 7 9 9 9 8 6 5 4 4 4 5 7 9 11 11 13 12 12 12 12 11 13 13 13 13 13 14 15 17
15 16 16 16 14 14 14 13 11 9 8 8 6 6 6 8 10 10 7 6 6 5 6 6 7 9 9 11 14 14 12 13 13 15 14 16 15 15 15 14 13 14 15
13 14 15 16 17 16 13 14 13 11 11 10 9 7 7 8 9 8 6 5 4 6 8 7 8 10 13 14 14 15 17 17 17 16 18 18 15 13 8 8 12 12 11
14 14 13 14 16 18 15 15 14 13 12 11 10 10 10 9 9 8 5 6 7 6 7 8 10 13 15 16 18 19 20 20 18 15 14 13 10 8 8 11 12 10 13
15 14 13 13 13 16 18 17 15 14 14 13 12 12 11 10 8 8 9 7 6 7 9 10 12 13 16 18 20 20 19 16 13 9 8 8 7 8 10 10 11 11 11
15 15 15 15 14 15 19 19 17 16 15 14 12 14 13 10 10 8 8 7 7 8 10 10 13 16 18 19 19 18 16 13 10 6 5 7 7 8 10 10 12 12 12
16 15 17 18 19 19 20 21 19 18 17 15 13 14 13 11 9 9 8 7 8 9 9 12 15 17 17 17 16 15 13 11 8 6 6 6 7 9 10 11 13 14 15
18 18 18 18 20 22 23 24 21 20 18 16 15 13 13 11 10 10 8 8 8 7 9 13 15 15 15 13 13 13 13 10 7 6 7 6 7 9 11 12 13 16 18
21 19 22 21 20 22 22 26 24 22 21 19 17 14 14 13 11 10 10 10 7 6 9 11 12 12 12 11 11 12 11 6 7 7 7 8 11 13 16 17 17 20 21
27 23 25 27 25 22 24 29 29 27 23 21 20 17 17 15 12 12 11 8 5 4 7 9 11 13 13 13 11 9 5 4 7 7 9 12 16 14 17 19 23 25 26
25 25 23 24 23 24 31 36 31 28 25 23 22 21 20 17 13 11 12 8 4 3 5 8 11 14 15 15 12 6 6 3 7 7 7 14 15 18 18 23 24 26 25
24 24 25 24 24 26 29 33 32 31 28 25 25 24 23 20 16 14 12 8 4 2 6 9 12 15 16 16 14 7 5 3 2 6 19 15 15 11 20 24 23 23 26
25 26 26 26 26 28 30 34 34 32 30 31 30 30 27 21 18 16 13 8 4 3 6 10 12 14 14 15 13 7 4 3 14 4 9 15 14 21 25 25 23 28 23
30 27 29 27 26 30 33 37 36 34 34 33 33 31 26 23 20 17 13 8 5 4 7 10 13 14 14 13 13 13 9 8 5 10 8 12 17 20 22 23 26 26 26
30 31 30 27 28 30 32 36 35 30 31 31 32 31 27 25 22 18 13 9 6 5 7 11 13 14 15 14 13 13 12 11 8 9 19 14 21 21 21 19 24 20 19
27 32 31 29 30 30 33 34 35 31 27 32 34 31 29 26 24 19 13 9 6 6 8 11 13 15 15 14 14 13 12 10 10 12 19 23 25 23 22 23 17 19 20

GFSSE_850_spd_015.txt.gz
Wind_Speed
12 13 14 12 10 10 10 8 7 5 5 6 8 10 8 7 4 1 3 5 6 8 9 7 2 2 5 8 7 1 2 7 8 8 10 11 10 8 7 10 9 4 12
16 14 13 13 12 11 9 7 5 4 1 2 5 8 8 6 4 1 2 5 6 6 6 4 4 5 2 2 2 3 6 10 10 9 8 7 7 6 5 2 1 4 9
17 17 15 15 13 11 9 7 5 3 4 9 7 9 11 8 4 2 4 3 4 5 5 4 3 6 6 5 6 6 8 10 8 6 7 8 7 7 5 1 2 4 4
16 16 15 15 12 10 8 7 4 3 5 7 7 8 7 6 2 5 5 6 8 7 7 6 4 1 6 9 8 7 5 5 5 6 9 3 3 10 7 5 5 3 5
16 15 15 14 13 8 6 6 4 3 5 7 14 15 15 14 12 9 7 7 8 8 8 8 7 6 5 2 2 1 4 5 5 10 6 6 7 10 9 7 6 5 6
16 14 16 15 14 8 5 5 3 3 5 10 14 12 10 9 9 6 4 5 6 6 6 6 6 6 6 5 5 5 7 7 6 5 6 8 9 9 10 9 8 7 6
16 14 13 15 11 7 6 5 4 4 6 9 14 12 9 8 6 5 3 3 3 4 5 5 6 6 6 6 7 8 8 8 9 6 7 8 10 12 11 11 11 10 9
16 15 14 14 12 9 6 6 5 4 6 10 14 12 9 7 4 6 3 1 2 3 4 4 5 6 6 6 7 8 9 9 8 7 8 7 13 14 13 11 9 11 12
14 15 12 15 14 10 7 7 4 5 6 10 12 10 9 8 4 5 5 3 2 2 3 3 4 3 5 7 8 10 11 11 8 8 8 6 12 12 11 9 10 12 13
14 14 14 13 13 13 11 8 6 6 6 9 11 9 8 7 6 5 4 4 3 2 2 2 4 6 8 10 10 10 11 10 7 8 7 11 12 12 11 10 11 12 15
13 14 15 15 15 14 12 11 8 8 8 9 9 9 8 5 7 5 7 4 4 4 3 4 6 8 10 9 11 12 10 6 8 7 7 13 14 14 13 13 13 13 14
13 16 16 17 15 15 13 14 11 9 10 9 8 7 6 8 9 9 6 5 5 5 5 6 8 8 7 6 10 12 8 12 10 10 13 15 15 14 11 10 13 12 12
13 15 17 18 18 19 18 15 14 11 9 9 9 8 8 9 9 8 4 3 4 4 5 7 8 9 11 12 13 13 15 15 11 8 16 16 12 4 4 10 10 11 12
15 16 17 18 20 18 17 19 14 14 13 13 12 11 9 8 10 8 5 6 7 3 5 6 7 11 12 14 16 16 14 13 9 6 15 11 7 9 10 9 11 12 12
16 17 17 18 18 20 18 17 16 15 16 13 12 12 9 9 8 8 9 7 4 6 6 8 9 10 13 16 15 14 13 11 6 5 13 8 7 9 9 10 11 11 11
15 17 18 19 18 19 22 18 18 16 14 15 17 13 13 10 11 15 11 7 7 8 8 9 10 13 14 15 13 11 10 9 5 3 5 8 8 9 10 10 12 12 13
17 17 19 19 19 18 20 22 18 16 16 20 18 14 14 14 17 11 9 8 9 8 7 8 12 13 13 12 10 11 9 7 6 3 4 4 8 9 10 11 13 14 14
19 19 19 19 19 20 21 23 19 19 18 21 18 18 17 16 11 10 10 10 10 7 6 8 10 10 11 11 11 8 9 10 5 4 5 4 8 8 12 12 14 15 16
23 21 21 21 21 22 20 22 22 22 23 18 16 17 18 14 11 11 10 10 8 5 5 6 8 9 10 10 10 10 10 5 5 5 4 7 11 13 15 17 17 19 20
29 24 23 23 22 22 19 20 24 24 25 26 28 21 16 15 14 13 13 11 9 5 3 4 7 9 10 11 10 8 7 4 6 6 6 7 12 15 15 17 17 19 22
34 28 25 25 23 23 26 29 29 31 30 30 26 21 19 19 17 15 13 12 9 4 1 4 7 9 11 12 9 6 7 7 6 6 8 9 10 13 14 15 18 22 21
30 29 27 25 24 26 30 30 31 34 32 28 25 23 22 21 19 16 14 13 8 4 1 4 7 10 13 13 11 7 3 4 4 5 11 13 11 13 14 20 22 20 21
34 31 29 26 24 26 29 28 36 36 34 32 30 27 26 24 22 19 16 13 9 6 2 4 7 9 11 13 11 6 3 3 14 8 9 12 13 18 19 24 22 21 25
36 32 30 26 26 27 29 30 35 39 42 37 32 30 29 28 25 20 17 15 10 6 3 4 7 9 11 11 11 9 5 8 3 9 5 12 17 19 22 25 26 27 24
34 35 32 27 27 28 31 29 34 34 35 36 34 31 33 31 27 22 19 16 11 6 4 5 8 10 11 11 10 10 8 7 8 11 20 13 21 20 22 22 21 26 20
35 30 35 29 28 30 31 34 35 29 36 36 34 35 34 31 27 24 20 16 11 7 6 7 9 11 12 13 12 11 10 8 9 11 17 24 25 26 21 26 22 21 23

GFSSE_850_spd_021.txt.gz
Wind_Speed
14 13 13 14 15 15 14 13 12 11 10 9 9 7 5 4 2 1 2 4 4 2 1 4 12 15 13 10 7 4 3 1 1 2 2 2 4 7 7 3 3 3 1
14 18 15 15 16 16 15 13 11 11 10 10 10 8 6 4 4 3 2 2 2 4 5 8 13 11 8 4 2 1 4 4 6 7 6 5 7 9 8 6 3 1 4
16 20 17 16 16 16 15 12 10 9 10 10 12 12 9 8 6 4 5 7 9 10 10 10 11 10 8 4 3 3 4 9 11 10 7 6 8 9 9 6 5 2 3
16 21 18 17 16 15 14 12 10 10 11 11 15 17 13 9 6 5 8 11 12 13 13 12 9 6 3 1 2 6 8 11 11 9 9 8 9 7 9 7 6 7 5
17 19 19 17 16 14 13 11 10 11 10 13 14 14 11 9 11 10 10 11 12 12 13 13 12 11 10 8 8 9 11 10 8 9 9 5 7 6 8 6 5 5 4
15 18 19 18 16 14 13 12 11 11 12 15 15 16 17 16 13 10 10 11 11 11 11 11 12 11 11 10 10 10 10 8 9 8 5 3 7 5 9 5 5 6 6
15 18 16 18 16 14 13 11 12 13 14 17 17 17 16 14 12 9 9 10 10 10 10 11 11 10 10 9 8 7 6 5 6 4 1 4 5 7 7 5 2 3 3
13 14 13 13 15 13 13 11 11 13 14 16 16 14 13 11 9 8 8 8 8 8 9 9 8 7 7 7 6 6 6 5 4 3 4 6 5 6 5 4 3 4 5
17 16 15 14 14 13 12 11 10 10 13 15 15 14 13 10 9 9 7 6 7 6 7 6 6 5 5 5 5 5 4 4 2 1 3 4 6 7 6 5 3 4 5
18 16 15 19 17 16 14 13 11 10 12 14 14 14 13 10 9 9 8 6 6 6 5 4 3 3 3 4 5 4 1 1 3 3 6 6 8 8 8 7 5 3 3
20 18 14 17 19 16 14 14 13 12 12 13 14 14 13 11 10 8 6 6 5 4 4 2 1 1 2 3 4 3 2 2 7 8 9 9 9 8 5 3 1 1 2
22 19 16 13 15 17 17 15 14 14 14 15 14 13 13 12 10 9 7 6 5 4 4 2 0 1 3 5 5 6 8 7 9 10 10 10 9 1 1 2 2 2 3
23 20 19 16 15 14 15 17 16 14 14 15 15 15 15 13 11 9 7 6 6 6 5 4 2 1 4 4 6 8 10 10 9 10 9 9 2 6 5 2 2 3 6
24 25 23 19 17 15 12 17 15 15 15 15 15 15 16 13 11 10 8 8 7 5 6 4 3 4 5 7 9 9 8 8 9 8 8 7 4 6 4 4 4 4 5
27 25 28 27 23 21 19 19 19 16 15 15 16 15 15 14 15 15 14 11 9 7 6 5 6 6 7 8 9 8 7 5 7 7 8 6 2 4 3 4 5 6 7
24 28 26 29 28 27 25 22 22 18 16 14 13 13 15 14 15 17 15 15 12 11 9 8 7 7 8 7 7 6 5 4 5 7 7 6 4 3 4 5 6 7 9
19 25 28 28 28 30 31 26 25 20 19 16 16 17 16 15 17 20 18 18 15 13 10 9 8 7 6 5 5 5 4 4 6 6 7 7 5 5 5 5 7 9 12
21 25 28 29 29 28 30 32 28 25 24 23 21 22 19 19 17 17 18 19 16 12 10 9 7 5 4 4 5 5 5 4 4 6 7 9 7 8 8 9 11 12 12
32 26 30 34 33 31 29 30 30 28 30 26 25 27 23 22 20 21 20 18 15 13 11 9 6 3 2 4 5 4 4 2 2 5 7 7 8 9 11 12 13 14 12
37 35 31 38 37 34 29 30 31 29 32 28 28 29 29 28 24 23 20 16 14 13 12 9 5 2 2 3 4 4 2 3 1 4 7 9 10 12 16 15 15 13 19
36 36 39 33 39 40 36 33 31 32 33 32 31 31 29 29 27 25 21 18 16 14 13 10 6 3 1 3 4 2 0 1 1 3 6 8 12 15 16 18 17 20 22
26 36 40 37 36 44 42 37 33 32 36 34 34 32 30 27 29 28 22 20 16 16 14 11 7 3 1 3 4 2 1 2 3 4 5 10 13 13 14 16 20 23 26
31 29 34 36 31 42 42 39 36 34 38 40 37 34 33 32 33 29 24 21 18 17 14 11 7 4 1 3 5 4 2 2 6 6 9 10 13 14 16 18 21 26 26
38 30 32 33 30 38 43 43 42 42 41 45 42 39 34 35 34 30 27 24 21 18 16 12 8 5 2 3 4 5 4 5 3 4 9 12 13 16 18 20 25 22 23
23 38 27 34 37 30 45 46 43 43 42 44 44 42 37 38 35 32 29 25 24 21 18 14 9 6 4 5 5 6 6 7 8 9 15 14 19 20 21 21 23 21 19
13 13 27 31 37 40 37 44 45 44 41 45 47 43 40 39 38 34 31 28 25 22 18 15 11 7 6 6 7 8 8 8 10 11 16 23 26 28 26 24 21 19 18

GFSSE_850_spd_024.txt.gz
Wind_Speed
16 16 16 18 17 16 17 16 14 13 12 11 9 8 8 7 5 2 2 4 4 3 3 10 12 12 13 9 7 4 2 4 6 6 5 4 3 0 1 1 2 3 3
13 18 17 17 18 16 15 14 13 12 12 12 11 9 7 5 2 0 2 2 3 5 7 15 17 13 9 5 2 1 3 2 5 6 5 3 3 6 6 5 2 2 2
14 20 19 19 17 16 16 14 11 11 11 13 11 9 6 7 5 1 4 7 9 9 11 16 14 12 8 4 1 1 4 8 7 7 6 7 8 9 7 5 4 3 3
13 20 20 20 18 17 15 13 11 10 10 13 17 11 11 9 6 4 9 10 11 12 13 12 12 10 6 3 5 8 10 9 7 6 6 8 7 8 7 5 4 4 4
16 19 20 20 19 17 15 13 12 11 10 13 19 18 14 9 6 9 10 11 12 13 13 13 11 10 9 9 9 11 10 8 7 6 4 7 6 4 7 4 4 5 4
19 21 20 21 19 16 15 14 12 11 11 14 17 15 12 11 12 10 11 11 12 12 12 12 12 12 11 10 10 10 7 7 5 4 3 3 5 4 7 2 3 4 3
20 21 20 20 18 16 14 13 12 11 13 14 16 16 16 14 12 10 10 10 11 11 11 12 12 11 10 8 7 6 6 6 4 4 2 2 6 6 7 3 0 1 1
18 21 18 18 17 15 14 13 12 11 13 16 18 16 14 13 11 11 10 10 9 9 10 10 9 8 7 6 5 4 4 6 5 3 4 6 6 6 5 2 3 4 6
14 19 18 17 16 14 14 13 13 12 13 15 16 15 13 11 10 9 9 8 8 8 8 7 6 5 4 4 3 3 3 3 2 3 3 5 6 6 7 6 3 2 3
17 15 15 14 17 16 16 14 15 14 14 15 16 15 13 11 12 10 9 8 7 7 6 5 4 3 3 2 1 2 2 2 3 4 4 6 7 8 8 6 1 2 4
19 18 15 14 19 17 16 16 16 16 15 16 16 16 15 13 13 11 9 8 7 7 6 5 3 2 2 1 2 2 3 5 7 8 7 7 8 5 1 2 4 4 4
24 21 17 15 17 19 18 18 17 17 18 19 18 18 16 14 13 11 9 9 8 8 7 6 4 3 3 3 4 5 6 8 9 9 8 7 1 2 5 6 4 3 2
25 23 21 18 17 19 21 19 19 18 18 19 20 18 17 16 15 14 13 11 10 9 8 6 6 4 4 5 5 8 9 9 9 8 6 2 6 5 4 6 2 2 3
26 25 23 22 20 19 18 19 21 20 19 20 20 20 20 18 16 14 13 11 11 10 10 8 6 5 6 7 8 9 9 9 7 6 4 2 8 8 2 1 1 2 4
25 26 26 25 23 22 19 18 21 22 21 20 21 22 21 19 17 15 14 13 13 11 9 8 7 7 8 10 10 9 7 6 6 5 4 2 3 5 4 3 4 4 5
30 30 28 28 26 24 22 22 20 20 20 22 23 22 21 18 17 16 18 17 15 12 9 9 9 9 9 10 9 7 6 5 5 5 3 2 2 4 4 4 4 5 6
19 34 37 32 30 28 25 25 24 23 21 23 22 21 19 18 16 18 21 20 16 12 12 11 11 10 9 8 7 6 5 5 6 6 4 2 2 2 3 4 6 8 9
24 18 37 39 34 32 29 29 29 27 24 25 21 19 19 17 19 21 22 20 17 15 15 13 12 10 8 7 6 5 5 6 6 5 4 4 3 3 5 6 7 9 10
34 29 21 40 39 35 32 30 33 31 27 26 23 22 21 21 21 19 20 20 19 18 17 14 12 10 8 6 4 4 4 3 4 4 5 5 5 6 6 10 9 10 9
41 37 34 28 41 42 34 32 32 33 31 26 27 26 27 27 25 20 21 22 20 19 17 15 13 11 8 5 4 4 3 3 3 4 6 7 7 8 12 11 12 10 14
35 39 36 35 32 42 43 38 35 37 36 33 32 32 31 32 27 24 24 24 22 18 16 16 14 12 8 6 4 4 5 4 5 6 7 8 9 11 11 13 13 16 17
24 25 39 38 34 39 45 44 43 37 40 36 39 34 33 33 32 30 26 26 24 20 18 17 15 13 9 6 6 6 6 6 7 8 8 11 12 13 13 14 17 20 22
35 30 28 29 34 37 39 45 43 39 38 38 39 36 37 35 34 32 29 27 26 22 17 18 16 14 11 8 6 5 4 5 6 10 12 12 13 14 14 16 19 21 24
33 33 35 33 28 28 32 43 47 46 43 42 39 41 39 37 35 33 32 32 28 24 20 19 18 15 12 9 6 5 4 5 3 4 10 13 15 15 17 19 23 22 23
27 27 28 31 33 32 32 36 44 48 46 44 41 43 42 41 38 35 36 34 31 26 24 22 21 17 13 9 7 6 6 6 7 8 10 10 15 18 22 21 21 21 21
22 24 25 26 31 30 31 34 38 48 49 48 46 44 46 43 42 39 37 36 32 29 27 24 21 18 14 11 9 8 8 8 9 10 13 18 21 23 21 20 20 20 18

GFSSE_850_spd_027.txt.gz
Wind_Speed
17 18 18 18 17 16 16 15 15 15 14 14 14 13 13 12 10 8 7 6 6 4 4 7 8 12 11 10 7 3 1 5 6 7 7 7 7 5 3 3 2 2 3
17 19 17 18 18 16 15 14 14 14 13 11 10 10 9 9 7 4 2 2 3 6 13 14 13 11 8 5 3 1 2 1 3 3 3 2 1 3 5 4 3 3 2
16 19 17 17 17 16 14 14 14 13 14 13 11 8 6 4 3 2 3 6 7 9 15 16 15 12 6 2 1 1 4 7 7 7 7 6 6 8 7 5 4 4 4
13 17 17 17 16 15 14 14 13 12 13 14 11 9 8 6 4 4 7 8 9 11 16 14 11 7 3 1 3 6 7 7 6 7 7 7 7 10 8 6 5 5 5
16 16 16 17 17 15 14 13 12 11 12 16 13 10 9 5 4 8 10 11 11 11 10 9 7 5 5 7 7 9 7 6 5 5 6 8 6 8 8 5 6 6 5
17 18 17 18 18 16 14 12 12 10 11 15 17 15 8 5 9 10 11 11 12 12 12 12 11 10 9 8 8 6 4 4 3 5 4 5 8 5 8 3 4 4 3
19 20 19 19 19 16 14 12 11 10 11 13 16 13 9 12 11 11 11 11 11 12 12 12 11 10 8 7 5 3 3 2 1 2 1 1 5 4 6 3 2 3 2
17 20 19 19 17 15 13 12 12 12 12 13 14 15 14 12 12 11 11 11 11 11 11 10 9 7 6 4 3 2 2 2 1 2 2 3 4 5 5 3 3 4 4
16 18 18 17 16 15 13 12 12 13 12 14 16 15 14 12 11 11 10 9 9 10 9 7 6 5 3 3 1 0 1 2 2 3 4 4 5 7 7 6 4 3 5
13 15 17 16 15 15 15 14 13 14 14 15 15 14 13 12 11 11 10 9 8 8 7 6 4 3 2 2 1 1 2 3 3 4 4 6 7 8 8 5 1 5 6
16 17 18 17 15 15 15 16 16 16 16 16 16 16 15 14 14 12 10 9 8 7 7 5 4 3 2 2 2 3 5 6 7 8 7 7 6 4 2 4 5 6 5
22 21 21 18 15 16 18 18 18 18 18 18 17 17 16 14 14 13 11 10 9 8 8 6 6 5 4 4 4 5 7 9 9 8 7 5 0 3 3 4 3 5 2
20 22 21 19 16 17 20 19 19 19 20 20 20 19 18 17 17 16 14 13 11 11 10 8 7 5 5 5 5 7 9 9 8 7 2 3 3 3 3 4 5 4 2
23 21 20 19 19 19 20 21 21 20 20 21 22 21 21 20 18 17 15 14 12 12 11 10 8 6 6 6 7 9 9 8 6 4 2 5 9 9 6 1 1 2 3
29 26 22 21 22 22 22 22 22 22 22 21 22 24 23 21 19 17 16 15 14 13 12 11 9 8 8 9 9 9 8 6 5 4 3 3 5 7 5 3 4 4 5
29 27 26 25 24 24 24 24 23 21 23 22 23 25 25 23 20 19 17 17 15 14 12 11 9 9 9 10 9 8 7 5 4 3 2 2 2 4 5 4 5 5 7
30 30 29 29 28 28 27 26 24 21 20 24 26 25 25 24 22 20 18 19 16 15 13 11 10 11 11 11 9 8 7 6 5 3 2 1 2 3 3 4 6 6 7
24 27 26 36 34 33 32 29 27 25 23 23 24 25 26 24 21 20 19 20 19 17 14 12 12 12 12 10 9 8 7 7 6 4 3 2 2 3 3 4 6 8 9
31 29 27 23 30 40 34 31 29 29 28 26 23 26 26 22 21 21 18 19 20 18 15 14 14 14 12 11 10 8 7 7 6 5 4 3 4 4 4 8 7 8 9
38 37 32 28 27 26 40 35 32 32 33 31 27 29 27 24 22 20 18 20 20 18 16 16 17 15 13 12 10 8 7 6 6 6 5 5 6 6 8 10 10 10 11
28 38 43 34 29 29 36 42 38 38 36 37 33 30 30 27 26 26 22 21 20 19 18 18 17 16 14 13 10 9 7 7 8 8 8 8 9 10 11 12 13 14 17
22 20 31 40 36 34 33 39 45 42 38 37 37 35 33 29 28 30 27 25 22 22 22 20 18 18 17 14 11 9 7 10 12 12 11 12 12 13 14 14 16 18 21
32 28 26 24 25 29 37 35 44 46 43 42 40 41 38 33 31 33 31 29 24 23 24 21 19 19 18 16 14 10 6 7 11 13 14 14 14 15 16 16 18 22 25
36 32 29 27 27 27 23 35 42 46 51 48 45 41 39 38 35 36 34 32 31 26 26 24 21 20 20 18 15 14 12 9 7 6 13 15 15 16 17 18 22 26 25
18 27 28 28 29 27 26 29 33 44 50 49 48 45 42 39 39 39 37 35 32 32 30 28 25 24 23 21 18 15 13 11 11 11 7 11 15 18 19 21 25 24 24
16 17 20 24 26 26 27 30 28 33 42 45 49 49 44 41 43 42 41 39 35 36 35 30 29 26 24 22 19 16 14 12 11 11 12 13 15 18 19 20 23 23 22

GFSSE_850_spd_030.txt.gz
Wind_Speed
18 19 18 17 16 15 14 14 14 13 11 12 12 11 10 10 10 8 7 7 6 2 6 9 11 11 11 9 7 4 2 6 6 6 7 8 7 6 5 3 1 3 4
17 20 18 17 16 15 14 13 13 14 13 12 11 10 10 9 7 6 7 6 4 12 12 11 12 12 9 6 3 1 2 4 4 4 4 2 2 3 4 4 4 5 5
18 18 18 16 17 16 15 14 13 13 11 9 8 7 7 6 5 4 3 5 8 15 14 16 15 9 4 2 2 3 7 8 7 7 6 6 6 8 7 7 7 6 5
15 16 17 16 13 15 15 14 14 14 12 11 9 7 4 5 4 5 6 7 9 14 14 13 10 7 2 1 3 8 8 8 8 8 7 7 8 10 8 7 8 8 8
16 14 14 14 14 14 13 13 13 13 14 11 10 8 7 5 6 8 8 9 11 12 12 10 8 4 3 5 6 8 6 7 7 6 8 7 7 9 8 6 7 7 6
17 17 14 14 14 14 13 11 11 12 15 14 11 10 7 6 8 10 10 11 12 13 12 10 9 9 7 7 7 5 4 4 5 6 5 7 7 7 7 4 6 5 5
16 18 16 15 14 14 12 11 10 10 13 15 14 11 7 9 10 11 11 12 12 13 13 12 11 10 8 6 5 3 2 2 3 3 3 4 5 3 4 2 2 3 3
14 17 16 16 14 13 11 11 10 10 13 15 15 11 10 11 11 11 11 11 11 12 12 11 9 7 5 3 2 1 1 1 2 2 2 3 4 5 5 4 5 2 2
15 17 17 16 14 14 12 11 11 10 12 14 14 13 13 12 11 11 11 10 11 11 10 9 6 5 4 3 2 2 2 1 2 3 3 4 4 6 7 5 4 3 5
13 15 14 14 15 14 12 12 12 12 13 15 16 15 14 13 11 9 10 9 9 9 7 6 4 3 3 2 2 2 1 1 2 3 4 5 6 7 6 4 4 1 5
16 16 16 17 15 13 13 13 13 14 14 16 17 15 14 12 11 10 8 8 8 7 7 5 4 2 1 0 2 3 3 4 5 5 5 5 4 2 4 5 5 5 4
19 17 18 18 16 14 15 15 15 15 16 16 17 17 15 13 12 11 10 9 8 8 7 6 4 3 2 3 4 4 6 7 7 6 4 2 3 3 3 3 4 4 6
17 17 20 20 18 16 16 17 17 17 17 18 18 17 16 15 14 15 13 11 10 9 8 6 5 5 4 4 5 6 8 8 6 4 1 7 4 5 5 4 6 5 2
17 18 18 20 20 18 16 18 18 19 19 20 19 19 19 17 16 16 14 12 12 10 10 9 8 7 6 6 7 8 8 7 4 2 4 6 10 9 6 2 1 1 3
22 20 20 20 21 20 19 19 20 21 21 19 21 22 21 20 19 17 16 15 14 12 11 10 9 8 7 7 8 8 8 6 4 2 3 6 8 8 5 2 2 2 4
25 24 23 23 22 22 22 22 22 21 20 21 22 24 24 23 21 19 18 17 15 13 13 12 10 10 9 9 9 8 7 5 4 3 3 4 4 4 4 3 2 3 4
30 31 29 27 26 25 24 24 24 22 20 21 24 24 25 26 24 21 20 19 17 16 15 13 11 11 11 10 10 9 7 6 5 4 4 4 4 4 3 3 3 4 5
22 31 31 31 29 27 27 28 27 26 23 23 22 24 25 26 26 23 22 21 19 18 17 15 12 12 12 12 11 9 8 7 6 5 5 4 4 4 5 4 4 6 7
28 27 28 30 32 30 34 32 30 29 28 27 24 24 24 27 26 25 23 20 20 20 18 17 14 13 13 13 12 10 9 8 8 7 7 6 6 6 7 6 7 6 8
27 32 33 30 30 29 27 30 36 34 32 32 30 28 25 26 27 26 23 22 21 22 21 19 16 15 15 14 13 11 10 9 9 9 9 8 8 8 8 9 8 9 9
25 25 34 38 36 34 33 31 31 40 39 36 32 32 30 27 28 28 25 23 21 21 19 19 18 18 17 16 14 12 11 11 11 12 11 10 10 11 11 12 11 12 13
28 25 24 32 35 38 37 34 34 33 43 40 36 32 33 31 31 30 25 26 24 23 22 22 21 20 19 18 16 13 9 12 14 15 14 13 13 14 14 14 15 16 17
29 31 27 23 19 23 33 35 37 37 41 45 42 38 36 36 33 33 31 30 27 25 22 21 22 22 21 20 20 14 8 8 12 16 17 15 15 15 16 17 18 19 21
13 21 31 29 24 22 23 28 34 40 41 43 42 43 41 39 36 35 36 33 29 30 29 23 22 23 22 23 22 22 19 11 8 8 15 16 16 18 18 19 20 22 24
13 11 16 26 29 27 28 29 28 30 32 40 43 45 46 43 39 37 38 37 35 36 33 30 28 28 26 26 25 23 22 19 16 14 9 13 17 18 19 20 23 24 25
16 11 9 13 20 26 26 27 31 32 33 35 39 44 47 49 45 42 37 40 40 38 37 33 32 31 30 29 28 26 24 21 18 16 15 14 14 16 19 21 23 24 24

GFSSE_850_spd_033.txt.gz
Wind_Speed
19 19 19 18 17 16 15 15 13 11 9 9 9 10 9 8 8 7 7 6 4 1 10 10 12 9 9 6 5 4 5 7 6 5 5 5 6 8 8 4 2 3 5
19 19 19 18 18 19 16 15 14 11 11 10 8 8 8 7 7 7 7 5 4 11 13 12 10 11 7 6 4 3 3 6 6 4 3 2 1 1 2 4 5 5 7
20 19 20 18 16 16 16 16 14 13 11 10 9 8 5 5 5 5 4 3 14 12 14 16 14 6 3 3 3 6 9 8 7 6 6 6 6 7 7 7 8 7 6
20 19 18 19 16 16 16 15 14 12 12 10 7 4 3 4 3 4 5 8 16 14 12 13 7 3 1 3 7 10 10 9 8 7 7 8 8 9 8 8 8 8 8
17 16 15 18 17 14 15 14 14 14 12 9 7 5 5 6 6 7 8 9 14 13 14 10 6 3 3 6 9 9 9 8 7 8 7 7 7 8 7 8 6 6 5
18 17 15 15 15 14 14 15 13 15 13 11 9 7 6 6 8 9 10 11 12 12 11 8 6 6 7 8 8 7 7 7 7 6 6 6 6 5 5 4 6 5 8
17 17 16 15 14 13 12 13 13 13 15 14 11 8 7 8 9 10 11 12 13 13 12 11 9 8 7 7 6 4 4 4 5 5 4 3 3 4 3 3 2 2 2
15 17 16 15 13 12 11 10 11 12 17 16 12 10 8 10 10 11 11 11 12 12 12 10 8 6 5 4 4 3 3 3 4 3 2 2 3 4 4 3 1 2 2
14 17 15 13 13 12 11 10 10 9 12 17 14 11 10 12 11 11 11 11 11 11 10 8 6 4 4 4 4 3 3 3 2 2 2 2 4 5 4 3 1 2 1
12 14 12 13 13 12 10 10 10 10 12 15 18 15 14 13 12 11 10 10 10 10 8 8 5 4 4 4 3 3 2 2 2 2 3 3 4 4 6 5 4 2 2
14 14 14 15 14 12 12 10 11 11 11 14 17 17 17 15 14 12 11 10 10 8 8 6 5 3 2 2 2 2 1 2 3 4 3 3 4 7 7 7 3 4 4
15 16 16 16 15 14 14 13 12 12 13 13 17 17 17 15 14 13 12 10 11 10 9 7 4 3 2 1 2 2 3 4 4 3 1 4 4 4 4 5 6 9 5
14 15 17 18 18 17 16 14 15 15 15 16 16 17 16 17 16 15 14 13 12 10 9 7 6 4 3 3 4 4 6 6 4 2 4 7 4 6 6 4 6 4 2
15 16 16 18 18 18 17 17 16 17 17 18 18 18 18 18 17 17 17 15 13 12 11 9 8 6 5 4 5 6 7 5 4 2 5 10 11 8 7 3 1 1 1
17 16 17 17 19 20 19 18 18 19 19 18 20 21 20 20 19 18 19 17 15 14 12 11 9 9 7 6 7 7 6 5 3 3 6 8 10 10 6 2 1 1 2
19 21 19 19 19 19 20 21 19 19 18 19 20 22 22 22 21 20 20 19 17 16 14 13 12 11 9 8 8 8 7 5 4 5 6 7 7 6 5 4 2 2 3
22 23 24 23 23 22 23 21 21 20 20 20 21 22 23 24 24 23 22 21 19 17 16 15 14 12 10 9 9 8 8 7 6 7 7 7 8 7 6 5 4 4 4
22 24 25 29 28 27 27 25 25 23 21 22 23 23 24 25 25 26 25 23 21 20 19 17 16 14 12 11 10 10 10 9 8 9 9 9 8 8 8 7 6 5 6
29 29 29 28 33 31 30 29 27 27 25 24 24 23 22 25 26 27 27 25 23 23 22 20 19 16 14 12 12 11 11 11 11 11 11 11 10 10 9 7 7 6 6
26 26 29 32 31 33 34 34 31 34 33 31 29 27 26 25 26 27 28 27 27 26 25 23 21 19 15 14 13 14 13 13 13 13 14 13 12 12 10 9 9 9 9
24 26 26 29 35 36 35 36 36 33 33 38 35 32 29 29 28 27 29 29 31 30 26 24 24 21 18 17 16 16 15 15 15 16 17 16 15 13 13 12 12 12 12
25 25 25 28 26 35 40 39 40 38 37 33 39 36 33 32 31 31 30 33 34 31 27 27 24 23 22 20 19 16 12 16 18 19 19 19 17 16 16 16 15 15 15
13 22 29 28 27 27 34 39 42 40 39 38 38 38 39 38 36 33 33 34 36 31 28 25 26 26 26 24 23 18 10 11 16 21 23 21 20 18 18 18 18 17 17
9 8 14 27 32 27 24 28 36 42 43 41 39 37 39 42 41 36 35 35 34 34 32 32 27 27 27 28 26 27 26 13 9 9 20 23 23 21 21 20 20 19 20
14 11 9 12 26 31 26 27 29 32 32 32 36 40 41 41 44 42 39 37 38 37 36 37 34 34 30 31 29 28 29 28 23 18 14 19 23 22 22 22 21 21 22
16 13 12 9 9 21 26 27 31 33 33 35 35 34 35 39 42 44 42 41 41 39 40 41 39 36 35 33 32 31 30 30 28 25 23 19 18 20 22 22 22 23 23

GFSSE_850_spd_036.txt.gz
Wind_Speed
17 17 18 18 16 16 16 15 12 10 6 7 6 7 9 7 6 5 5 5 4 5 10 11 8 7 5 5 5 5 7 6 4 2 3 4 6 8 6 4 5 4 6
19 18 18 18 16 16 15 15 14 11 10 7 7 7 7 6 6 5 4 2 7 11 9 11 8 8 7 5 3 2 3 5 4 3 3 4 4 3 3 4 5 5 7
21 18 18 19 18 17 16 15 12 12 11 8 6 6 5 5 4 4 1 8 10 11 10 12 10 5 4 3 4 6 6 5 3 2 4 7 4 5 6 6 7 7 7
20 18 17 19 18 19 18 16 14 12 11 10 9 5 3 3 2 1 6 14 12 12 14 11 4 2 4 6 9 9 9 8 7 7 7 8 7 7 8 8 7 7 6
18 17 17 18 17 17 15 16 15 13 12 9 7 3 3 4 3 5 8 14 15 13 11 8 4 1 4 8 10 9 9 7 7 8 6 6 6 5 6 6 4 5 2
17 16 17 18 17 18 16 15 15 14 11 10 7 5 5 5 7 8 9 11 12 12 11 7 4 4 6 8 8 7 7 6 7 5 6 5 5 4 3 3 4 4 5
16 15 16 17 16 17 16 14 16 16 12 11 9 7 7 8 9 10 10 11 12 11 9 7 7 7 7 6 4 5 4 4 5 4 4 4 3 2 3 2 2 2 4
15 15 14 16 15 15 15 14 13 15 14 13 10 9 8 10 10 11 11 12 12 11 10 8 7 6 5 4 3 3 3 4 4 3 1 2 1 2 2 0 4 5 5
13 14 13 14 13 13 13 12 11 15 17 14 12 11 9 9 10 10 10 11 12 11 10 7 5 4 4 4 3 3 3 3 3 1 1 2 3 4 2 2 3 3 1
13 13 13 13 12 12 11 11 10 10 17 17 14 11 12 12 11 9 10 10 10 10 9 7 4 4 3 3 3 3 2 1 0 2 2 2 4 3 6 4 3 1 6
13 14 14 13 13 12 11 10 11 10 11 16 17 15 14 11 12 12 11 10 10 10 9 7 5 4 3 2 1 1 1 1 3 3 1 3 7 7 8 6 4 5 9
15 15 15 14 14 14 13 12 11 12 13 15 17 17 14 13 11 11 13 12 12 11 11 8 6 5 4 2 1 1 2 3 2 1 2 4 6 8 7 8 8 7 8
14 15 16 16 16 16 15 13 12 12 14 14 15 16 16 15 15 13 11 14 14 13 11 10 8 7 5 4 3 3 4 3 1 2 6 7 6 7 4 4 7 5 3
16 16 16 17 17 17 15 15 13 14 15 15 17 18 16 16 16 15 14 13 12 12 12 12 11 9 8 6 5 5 6 5 3 6 8 13 13 9 6 7 4 3 2
17 17 18 17 18 19 19 17 16 16 18 18 19 20 18 18 16 16 16 16 14 13 13 14 13 12 10 9 8 7 7 6 5 6 6 13 14 13 10 5 4 3 2
16 17 17 18 18 19 20 20 20 17 18 19 20 21 23 21 20 18 17 20 18 15 16 15 15 14 13 11 10 9 9 8 7 8 7 10 13 11 9 6 5 5 4
16 16 18 19 20 19 19 21 22 21 20 20 21 22 23 23 21 19 18 21 20 18 18 19 18 17 16 14 12 11 10 9 9 10 9 7 10 10 10 8 7 6 5
17 18 18 20 23 24 24 24 24 22 22 22 21 23 24 25 25 24 20 22 20 19 22 21 20 19 18 16 14 13 13 12 11 11 12 12 10 10 11 9 9 7 7
23 22 25 24 25 25 28 30 27 25 25 25 25 25 24 25 26 27 25 22 21 22 25 24 22 20 20 18 16 15 15 14 14 14 14 14 14 14 12 11 10 9 8
25 26 27 28 29 29 26 30 31 31 30 29 30 31 29 27 27 27 28 27 23 25 28 27 25 23 22 20 18 18 17 17 17 16 16 17 17 16 15 13 12 12 11
25 26 26 28 28 30 26 31 35 38 37 37 36 37 34 32 30 30 31 30 30 31 31 29 27 27 26 23 20 19 19 20 20 19 19 19 20 18 17 16 16 15 14
24 27 27 29 30 30 32 31 36 36 41 41 39 37 39 37 34 34 34 34 32 33 34 33 33 30 30 27 23 13 9 16 23 23 23 23 22 22 20 19 19 18 17
9 19 26 30 30 32 34 33 33 35 37 37 42 40 37 40 41 40 38 37 35 35 37 37 36 34 32 29 30 20 9 11 12 22 27 26 26 25 24 23 22 22 20
7 5 8 15 25 34 34 34 30 32 38 43 43 43 42 41 41 44 42 41 39 37 39 39 38 33 32 34 34 34 31 15 9 8 21 27 28 28 27 26 25 25 22
10 9 8 8 12 19 33 35 27 27 26 27 29 37 43 44 41 41 45 44 42 40 39 40 40 37 36 38 38 36 36 34 27 17 11 20 28 30 30 29 28 26 24
12 12 13 12 11 12 18 28 32 27 25 24 24 27 28 32 37 41 41 44 46 45 42 40 41 43 42 41 41 41 38 34 35 32 24 19 21 25 30 29 28 26 25

GFSSE_850_spd_039.txt.gz
Wind_Speed
13 16 17 17 17 15 14 10 9 8 7 6 6 6 8 5 2 2 4 5 3 6 10 9 6 3 2 4 4 3 4 3 2 3 5 8 9 9 8 7 11 4 7
18 16 18 16 16 14 13 12 10 9 8 4 3 2 7 6 3 2 3 2 6 9 10 7 8 8 6 3 2 2 4 4 2 4 6 8 6 6 7 6 5 7 9
17 17 17 17 15 15 14 13 11 10 9 6 5 5 5 3 2 1 1 8 6 9 11 8 5 6 6 4 5 5 5 4 4 9 14 6 8 7 8 8 9 9 9
16 15 15 17 16 15 16 12 10 10 9 7 6 4 4 1 1 4 10 12 9 11 11 6 3 5 6 8 9 10 10 10 11 13 9 8 8 8 9 9 9 9 8
15 14 15 16 18 16 14 13 11 10 9 7 5 2 1 2 4 7 12 14 11 10 8 4 2 4 7 9 9 9 9 11 12 10 7 5 3 5 6 8 6 8 4
15 13 15 16 19 15 14 14 12 11 9 7 6 2 3 4 5 6 8 12 10 10 7 3 1 5 7 8 8 8 9 10 13 6 7 6 3 5 3 4 6 6 7
14 13 13 15 16 16 14 13 12 11 9 8 5 4 4 5 6 7 8 9 8 8 6 4 5 6 6 6 5 5 6 8 9 6 4 5 2 4 3 4 2 2 2
13 12 14 16 15 17 15 15 13 13 10 8 6 5 4 5 7 8 9 10 10 9 8 7 7 6 4 4 4 4 5 8 7 3 4 2 3 3 2 2 4 4 4
12 12 12 14 14 15 15 14 14 13 12 10 8 7 7 7 7 8 10 10 10 9 8 7 5 4 4 4 4 4 5 5 5 2 4 2 5 4 2 2 3 4 5
12 12 11 11 11 11 13 14 14 15 16 12 11 8 9 9 9 8 7 8 9 9 7 5 3 3 3 3 3 3 3 3 1 2 2 3 2 4 7 3 2 3 7
11 12 10 12 11 11 10 11 12 12 19 14 12 11 10 8 10 9 10 8 8 8 7 6 3 3 2 2 1 1 1 2 1 0 1 3 7 9 8 5 5 7 9
13 12 12 13 12 12 11 11 11 10 11 15 15 14 9 9 8 7 10 12 11 10 10 7 5 4 3 2 1 1 1 1 0 1 6 6 6 8 7 8 9 8 7
14 16 14 13 13 12 11 10 10 10 11 13 14 14 13 12 14 15 14 14 13 13 10 10 8 7 5 5 4 2 4 2 1 2 6 5 7 7 5 6 8 7 4
15 16 17 16 14 14 12 12 11 12 12 13 15 16 14 16 15 12 11 10 11 11 9 10 8 9 9 7 6 4 4 2 4 5 8 12 11 8 7 9 6 4 3
13 15 16 15 16 15 16 12 13 13 15 14 15 17 17 16 17 16 15 17 15 12 12 12 11 11 10 10 9 7 6 4 5 6 10 16 14 13 12 10 7 5 3
13 13 15 16 16 16 18 19 14 14 14 15 16 18 20 18 17 15 17 21 19 15 14 13 13 13 11 12 11 10 8 8 7 9 10 11 16 15 14 10 8 6 4
15 14 14 15 16 18 18 19 21 17 15 16 17 18 20 22 20 18 17 23 23 20 15 15 14 14 14 14 13 12 11 9 10 10 11 12 12 14 13 10 9 7 7
13 15 16 17 17 19 20 20 21 22 20 17 17 18 20 22 23 22 21 25 23 23 17 17 17 19 18 17 16 15 14 13 11 11 13 13 12 11 14 13 12 10 9
19 18 18 18 20 20 20 22 25 25 24 22 19 19 20 22 23 25 25 24 23 22 21 22 21 20 20 19 18 17 15 15 14 14 15 15 15 14 12 13 14 13 12
19 20 20 21 21 21 21 21 28 27 29 29 25 23 23 24 25 27 26 24 23 24 26 26 24 24 23 22 19 19 19 17 16 17 16 18 18 18 17 17 15 16 15
15 17 18 20 21 22 24 24 30 34 31 32 33 32 24 26 25 28 29 27 28 29 31 28 26 27 27 24 21 20 20 20 21 20 19 21 20 20 21 22 17 19 17
15 16 17 18 21 25 28 28 28 34 39 38 37 39 37 37 33 31 34 33 32 32 32 32 31 32 32 31 29 19 12 18 24 25 23 23 23 23 23 23 22 21 21
5 11 18 23 23 24 26 27 29 26 28 30 36 40 43 43 40 34 35 36 36 36 36 36 35 36 37 35 33 24 10 12 13 19 27 27 26 27 25 25 25 24 24
5 4 5 9 15 23 28 26 26 27 30 31 29 29 33 35 37 36 37 38 39 41 41 40 39 40 39 40 34 36 29 14 11 10 18 28 28 28 28 27 27 27 27
8 8 9 9 10 12 16 23 30 30 28 27 28 28 28 29 39 37 36 38 42 43 43 42 41 43 42 43 41 39 40 36 29 20 15 19 25 29 30 28 30 29 28
9 10 12 12 12 13 15 16 19 26 23 25 26 25 26 27 29 33 33 36 39 41 45 46 44 44 44 44 45 42 43 42 43 37 28 21 23 23 28 31 31 29 28

GFSSE_850_spd_042.txt.gz
Wind_Speed
11 16 15 16 17 16 13 11 9 8 8 7 3 2 4 1 2 3 5 6 7 11 10 10 10 5 5 5 3 3 2 3 5 7 7 8 9 9 9 8 10 9 10
14 18 17 17 18 16 15 12 11 9 8 6 3 1 3 4 1 2 4 7 11 12 9 10 10 10 7 4 3 2 1 3 6 9 10 12 10 10 10 9 10 11 12
14 20 17 17 16 15 14 13 11 11 8 7 4 4 3 1 1 2 7 9 11 10 10 9 9 9 7 8 8 8 9 11 15 19 17 15 10 11 11 11 11 12 12
12 18 17 17 16 16 16 13 11 12 8 6 4 1 2 2 4 8 13 10 12 11 7 5 8 9 10 12 13 14 15 17 18 16 12 7 9 10 10 9 10 8 8
12 14 18 18 18 17 15 12 12 11 8 6 3 1 2 5 8 11 14 10 11 9 5 3 6 8 10 11 13 14 15 16 16 10 5 4 6 6 8 9 9 9 8
12 16 14 18 18 17 15 13 13 11 8 5 2 1 3 6 8 9 12 10 9 7 4 3 5 8 9 10 11 12 14 15 14 9 8 4 2 7 7 8 9 8 13
16 15 12 14 18 16 14 13 12 11 8 5 2 2 3 5 7 8 9 10 8 6 4 4 6 8 8 8 8 10 11 13 12 7 2 3 5 5 5 3 2 5 4
13 13 12 17 17 15 14 14 12 11 8 6 4 3 4 5 5 7 9 9 8 8 6 6 6 6 6 6 7 8 10 12 8 3 2 4 4 3 2 1 3 4 4
12 10 10 15 17 16 14 15 14 12 9 8 5 5 5 7 6 6 6 8 9 8 7 7 6 5 5 5 6 7 8 9 5 4 1 3 5 3 2 2 2 4 4
12 8 5 11 11 11 12 14 15 14 12 9 9 6 6 8 9 9 8 8 8 8 8 7 5 5 4 4 5 5 6 3 3 2 2 3 2 7 4 1 4 5 6
12 10 5 5 6 8 10 11 13 14 16 12 11 9 9 9 8 10 11 10 9 9 7 6 4 4 4 3 3 3 2 2 2 2 2 1 6 8 6 4 7 9 8
13 13 5 8 6 6 5 8 11 12 15 17 13 11 6 9 7 10 9 10 10 10 8 6 5 4 4 3 2 2 1 1 1 4 3 4 8 7 5 8 9 8 6
19 15 13 15 11 11 12 11 10 10 10 16 13 11 9 8 10 11 10 10 11 11 9 8 7 7 6 4 3 4 3 3 1 6 6 7 9 6 7 6 8 6 4
20 24 22 16 15 14 14 13 7 8 9 11 11 12 11 14 16 15 14 11 15 13 13 10 10 9 9 8 7 7 5 4 6 8 10 10 9 7 7 7 8 4 3
13 14 21 22 21 18 17 14 13 12 14 12 13 15 18 15 20 20 12 14 13 10 8 11 11 10 11 11 11 10 8 6 9 13 14 12 15 12 11 10 8 5 4
11 12 13 18 21 20 21 19 14 16 15 15 16 17 19 18 22 20 19 21 20 16 13 16 17 15 15 14 14 13 11 10 10 15 16 13 14 15 13 12 10 7 6
12 15 15 13 16 19 21 21 21 19 16 19 16 18 20 23 23 23 21 21 23 21 19 19 19 17 18 18 17 16 15 13 14 17 18 17 13 15 15 13 11 10 8
14 11 14 14 15 16 20 19 22 24 22 18 18 18 21 21 26 27 25 24 25 24 23 21 22 23 23 22 20 19 18 17 16 16 20 20 16 15 15 15 14 12 11
16 17 17 15 16 17 18 19 22 21 26 24 20 21 22 22 22 25 27 27 28 28 24 26 25 28 27 25 23 21 21 20 19 19 19 21 22 19 16 15 17 15 15
17 20 20 19 20 21 18 20 23 25 24 24 26 25 25 26 27 26 27 28 30 29 27 26 29 31 29 25 24 23 24 22 21 21 22 22 23 23 21 18 17 17 17
17 18 21 22 22 17 21 24 26 30 30 30 28 30 29 26 30 31 30 30 32 32 31 27 31 33 31 26 24 25 26 24 25 25 25 24 25 25 25 25 20 20 20
20 20 21 22 24 26 26 26 27 29 33 35 35 34 32 33 31 35 34 35 34 35 34 33 36 35 32 31 32 27 23 28 29 30 29 27 28 27 26 28 25 23 23
10 12 18 23 25 27 28 29 30 31 24 26 32 37 38 35 37 36 36 38 38 37 38 39 39 39 37 35 38 29 13 17 18 27 32 32 31 31 29 28 28 26 26
6 4 4 6 9 15 24 30 31 31 31 29 28 27 30 32 34 31 40 39 37 37 39 40 42 42 41 39 38 41 35 23 16 12 21 29 33 34 33 31 30 29 29
7 6 6 7 7 9 11 13 20 28 32 32 26 28 30 31 32 32 30 31 37 37 37 38 41 44 45 44 45 43 41 39 29 28 23 25 30 34 34 35 32 31 33
9 9 9 10 10 10 12 13 13 15 20 24 24 24 28 27 27 29 31 30 32 36 39 40 40 41 44 46 47 45 44 45 46 37 32 29 28 30 31 33 34 33 33

GFSSE_850_spd_045.txt.gz
Wind_Speed
15 15 18 19 18 16 14 13 12 10 9 6 3 2 2 4 4 5 6 11 15 12 12 11 9 7 8 8 8 7 7 4 6 5 7 7 7 8 10 12 11 11 11
15 19 20 20 18 16 16 15 13 12 9 7 4 2 2 2 2 5 9 14 14 10 11 11 10 9 7 8 8 7 6 6 8 10 12 11 11 11 11 11 11 12 11
17 22 21 20 20 18 16 15 14 13 9 8 6 3 3 3 4 9 12 14 13 10 8 10 10 9 10 11 10 12 14 16 13 12 13 13 13 12 11 11 11 12 12
15 22 20 19 20 18 16 14 15 13 11 8 6 3 3 5 9 14 11 13 13 8 6 8 10 12 14 15 17 20 19 16 16 13 10 10 9 10 8 10 9 8 9
16 20 20 19 18 19 17 14 15 12 10 7 5 3 5 8 14 13 14 15 12 6 4 7 10 12 14 15 16 17 16 14 12 7 3 3 8 8 9 9 9 11 10
13 19 20 19 20 19 16 16 14 13 10 6 5 6 7 9 12 13 12 11 10 7 4 6 9 11 12 13 14 15 14 14 12 7 5 5 6 8 9 8 8 12 12
12 15 14 20 20 18 15 15 15 12 9 5 4 7 7 8 9 11 11 9 8 6 5 7 9 9 10 11 12 13 12 13 8 3 2 4 4 5 5 4 2 3 4
10 11 10 17 20 18 16 16 15 11 8 5 5 7 8 9 9 9 10 9 7 7 7 8 8 8 8 9 10 11 11 8 5 2 1 3 3 1 0 1 2 2 3
12 9 11 17 19 17 16 17 15 13 9 6 4 5 7 9 10 9 9 9 9 8 8 8 7 7 7 7 8 9 7 5 2 1 2 3 4 1 2 4 3 4 4
11 7 9 18 17 17 17 18 16 17 12 10 8 6 5 6 8 11 11 10 9 9 8 7 6 6 6 6 7 6 5 3 3 2 2 4 2 6 3 1 3 6 5
9 6 2 10 11 12 12 13 12 15 13 12 11 7 7 8 8 8 10 12 11 10 9 8 6 6 6 5 5 5 4 3 2 1 2 0 6 8 4 3 6 7 4
11 7 1 8 8 9 11 12 12 13 14 15 11 8 6 9 10 9 9 10 10 10 10 9 8 8 7 6 6 6 5 4 5 3 2 4 8 8 5 8 8 7 4
13 10 6 4 4 6 11 10 11 12 14 16 15 11 9 10 13 11 11 11 11 11 11 10 9 9 9 8 8 7 5 5 8 5 5 6 10 7 7 6 7 7 2
21 19 15 11 9 10 9 10 10 12 13 13 15 11 10 12 15 12 10 12 13 12 12 12 12 12 12 11 10 9 8 8 11 9 8 8 9 10 8 7 7 5 3
22 23 23 21 18 15 15 14 12 11 10 8 12 11 11 12 15 14 13 13 13 12 15 14 13 13 14 13 12 12 11 10 13 13 12 12 11 12 12 11 9 6 5
12 19 24 24 23 22 19 16 13 12 10 11 10 11 12 13 16 17 19 18 16 15 15 14 13 14 15 14 16 15 14 13 16 16 16 15 13 13 15 14 12 8 8
9 8 8 11 22 23 22 22 19 19 18 16 14 14 15 17 18 20 22 21 20 20 17 16 16 18 20 20 19 18 17 16 17 19 19 19 16 15 15 16 14 11 11
11 13 13 11 9 14 22 22 24 22 22 20 19 17 16 17 18 23 25 26 23 23 23 22 22 23 24 23 22 20 19 19 19 21 22 23 20 18 17 17 17 15 14
13 12 10 12 13 14 13 15 17 23 26 25 23 22 20 20 19 21 26 27 27 25 26 27 25 27 27 28 26 25 24 23 22 23 24 25 24 22 20 18 19 19 16
17 21 17 14 13 14 17 17 18 18 20 27 30 26 24 25 26 25 25 27 30 30 30 29 29 29 30 31 30 29 27 27 25 27 27 26 26 27 23 21 20 21 20
23 20 22 24 19 11 17 19 20 25 26 25 24 26 29 28 28 29 29 30 30 33 33 32 31 29 33 33 32 30 30 30 31 30 30 31 30 29 28 26 23 23 22
20 21 20 22 24 23 22 19 18 23 28 29 30 30 28 29 32 32 32 36 35 35 36 35 35 35 34 35 36 32 27 34 38 36 34 34 34 33 32 31 29 26 25
14 18 21 24 27 30 32 32 31 28 29 29 29 28 30 30 29 29 36 36 39 37 40 39 38 38 38 39 40 31 14 22 24 30 38 39 38 36 36 34 32 31 28
7 8 8 9 13 19 25 30 31 32 35 34 31 27 29 28 31 28 25 28 39 40 40 39 42 42 41 43 43 42 41 32 19 14 23 30 37 39 39 37 36 35 32
5 6 6 7 7 9 11 11 15 21 29 33 33 31 26 24 25 29 28 27 26 30 38 40 39 40 44 47 47 46 45 46 41 35 30 30 28 36 39 38 38 36 35
7 7 7 8 9 11 13 15 15 16 17 19 21 24 29 30 25 25 28 28 27 25 25 32 36 39 41 41 46 47 47 44 46 41 40 39 34 32 35 37 39 39 37

GFSSE_850_spd_048.txt.gz
Wind_Speed
15 18 20 20 19 17 16 15 13 12 10 8 4 3 3 2 3 5 10 14 13 10 8 8 7 10 12 11 10 9 8 5 2 4 4 5 6 8 10 11 11 11 12
20 20 21 21 20 18 16 15 14 13 10 7 5 2 1 1 4 8 15 14 9 10 9 9 9 9 11 12 10 8 8 5 3 4 6 9 10 10 11 11 11 10 12
17 22 22 21 20 19 17 16 15 12 10 8 5 3 3 5 7 12 14 14 9 8 9 10 10 11 11 11 11 10 9 6 6 8 11 11 11 9 11 10 10 11 9
17 24 23 22 21 20 18 16 14 13 10 7 7 4 6 8 12 11 14 12 9 6 8 10 13 14 15 15 16 14 11 10 11 10 10 10 9 9 9 9 7 9 10
19 24 22 23 21 19 18 17 14 13 10 7 7 7 8 13 12 12 15 13 7 5 7 10 12 14 15 16 16 13 10 8 7 6 9 7 7 9 8 7 9 10 9
20 23 22 22 20 19 18 17 14 14 9 8 7 8 9 13 14 15 15 10 6 5 7 10 11 13 14 14 14 12 10 7 7 7 5 6 8 8 8 7 11 10 8
20 21 22 20 20 19 18 18 15 12 9 9 7 10 11 11 10 12 11 9 6 5 6 9 9 10 11 11 11 10 8 8 6 4 3 3 4 6 5 5 4 3 3
16 19 16 21 21 17 17 17 16 13 10 6 6 9 12 11 10 10 9 8 7 7 7 8 8 9 9 9 8 8 6 4 3 1 2 3 1 2 4 4 4 4 5
13 14 13 19 22 20 17 18 16 13 10 7 5 7 9 10 12 11 10 8 8 8 8 8 8 8 8 8 7 7 4 2 0 0 1 1 2 1 3 4 2 1 2
12 10 12 18 21 20 19 19 17 15 12 9 6 6 8 9 9 11 13 11 10 9 8 7 7 7 7 7 7 6 5 3 2 2 2 2 1 5 2 0 3 5 5
13 8 9 18 19 17 17 17 17 17 14 11 8 7 6 6 7 9 9 10 10 10 9 8 7 7 7 7 7 6 6 5 4 3 3 2 6 8 3 3 5 6 5
14 11 7 14 16 15 15 15 15 17 16 12 9 7 6 8 8 8 8 8 9 9 9 8 8 8 8 7 7 7 7 8 6 5 4 4 9 8 5 7 8 7 5
12 13 9 11 12 12 13 14 14 14 16 16 13 10 8 9 12 11 10 10 9 10 11 11 10 9 9 9 9 9 9 10 9 7 6 6 9 11 10 10 8 8 5
17 15 13 12 11 10 10 11 10 12 14 16 16 13 11 11 13 11 10 10 11 11 13 13 12 12 12 11 11 11 10 12 13 10 9 9 10 12 12 10 10 9 6
18 17 16 15 14 11 10 10 11 10 13 12 13 14 12 12 12 13 13 12 10 12 14 15 15 15 15 14 15 15 13 14 15 15 14 13 12 13 14 13 13 11 8
22 20 18 16 15 14 13 13 12 12 11 12 10 10 11 12 13 13 14 14 13 14 14 14 15 16 15 15 17 17 16 17 17 18 18 16 15 15 15 16 16 14 11
17 18 23 21 20 20 19 18 17 15 16 15 11 11 11 12 14 15 16 18 17 17 16 17 17 18 19 19 19 19 20 20 19 20 21 20 19 18 18 19 18 16 14
9 11 12 18 23 25 24 22 21 19 19 17 16 15 14 14 15 17 18 21 19 21 21 21 20 22 21 23 23 22 22 22 22 23 24 24 23 22 21 20 20 19 17
13 13 13 15 17 17 18 20 22 21 23 22 21 20 19 19 17 18 19 21 22 25 26 25 25 26 27 27 27 27 26 25 25 25 26 27 27 26 24 23 22 22 21
17 17 17 15 16 14 15 16 16 17 18 24 27 25 25 24 24 24 24 23 23 27 30 30 29 29 31 30 30 29 30 30 29 30 30 29 30 30 29 26 25 24 23
21 20 19 19 20 20 20 21 22 23 21 21 23 27 30 30 28 29 29 29 29 29 30 32 33 33 33 32 33 33 32 33 35 36 34 34 34 33 33 31 28 27 26
21 20 18 17 16 17 17 21 26 27 27 27 25 25 26 27 28 30 32 33 34 34 35 35 34 36 37 35 36 38 35 36 40 38 39 38 37 37 36 35 33 31 28
16 16 18 20 22 22 22 22 21 22 23 24 26 29 29 27 28 29 28 29 32 35 37 39 41 38 39 38 39 35 16 25 29 30 29 33 37 39 40 38 37 35 32
13 14 17 19 22 23 26 27 28 28 28 28 27 28 28 31 32 31 27 24 25 26 31 38 40 40 40 44 40 40 44 41 23 21 23 24 29 37 39 40 39 37 37
11 11 12 12 13 14 14 16 19 21 24 29 32 34 32 31 30 27 27 25 25 24 27 28 30 36 39 40 44 38 44 46 47 44 39 31 34 27 30 37 38 39 40
10 10 10 11 12 13 15 16 18 18 18 18 18 20 23 26 29 30 31 26 25 24 25 26 25 25 28 29 33 37 38 37 40 44 48 49 46 43 36 33 36 38 40

GFSSE_850_spd_051.txt.gz
Wind_Speed
22 21 22 21 19 18 16 15 13 11 8 8 6 4 3 2 3 8 13 12 9 7 6 4 8 10 10 9 8 7 6 4 4 4 6 6 8 9 11 11 10 10 8
25 23 23 21 18 17 15 14 13 11 8 5 4 3 2 3 7 14 12 9 9 8 8 8 8 9 11 9 7 6 4 2 2 3 5 7 9 10 11 12 10 10 13
24 24 22 21 18 17 15 15 14 12 10 7 4 3 4 6 10 13 12 8 7 8 9 9 10 10 10 8 7 6 4 1 2 6 7 8 10 10 10 10 11 9 7
21 25 22 22 19 17 16 15 14 11 10 6 4 5 6 10 12 12 11 7 5 7 9 11 12 11 11 10 9 7 4 4 8 8 8 9 10 10 9 8 9 11 7
21 24 23 21 21 19 17 15 13 12 8 6 6 7 9 11 11 12 11 7 3 7 9 10 11 11 12 12 9 7 6 6 8 8 8 8 10 9 5 8 9 7 10
20 23 23 22 21 19 17 15 14 11 7 6 7 9 12 12 12 14 11 7 5 7 8 9 10 10 10 9 7 5 6 7 8 8 8 7 7 7 5 9 6 4 4
23 23 23 22 21 19 17 16 13 10 6 7 9 11 13 11 12 11 7 6 5 7 8 8 8 8 8 7 5 3 3 4 5 6 5 4 4 4 3 4 4 3 2
21 22 20 21 20 19 17 16 13 11 8 5 5 9 13 12 11 10 8 6 5 6 7 7 7 7 6 6 4 3 2 1 3 4 3 2 1 4 6 5 5 6 7
17 19 18 20 20 17 17 16 15 13 9 5 4 5 8 9 12 12 10 8 6 6 7 6 6 5 5 5 5 3 2 1 3 4 4 6 5 3 0 2 0 3 5
14 14 13 20 22 20 19 16 14 13 9 6 5 5 5 5 8 11 11 9 9 9 8 7 7 6 6 5 5 5 3 3 5 4 5 6 3 2 2 4 4 6 7
15 12 12 17 21 20 18 20 17 15 12 8 7 6 7 7 5 5 6 7 8 8 8 7 7 7 7 7 7 8 7 6 5 6 6 6 2 6 4 7 7 8 8
16 13 13 17 20 19 17 19 16 16 14 10 8 6 6 7 8 9 8 7 7 7 7 6 6 6 7 7 8 9 9 8 7 7 7 6 5 8 9 10 12 9 9
13 13 11 14 17 16 16 16 15 16 15 13 11 8 8 8 10 10 10 10 9 9 9 8 8 8 9 9 9 10 11 11 9 9 9 6 7 12 14 14 13 11 10
15 12 10 13 15 15 14 15 14 15 14 14 13 12 11 9 9 10 10 10 9 9 10 11 12 12 12 12 12 12 13 14 13 12 11 10 11 13 14 15 13 12 10
17 15 14 13 13 12 12 13 13 12 13 13 14 14 14 12 11 11 12 12 10 10 11 13 14 16 16 15 16 15 15 17 17 15 14 14 14 14 16 16 16 15 12
18 17 16 16 14 14 13 12 11 11 10 12 12 11 13 13 12 12 12 13 13 12 10 11 13 15 17 17 16 16 16 18 19 19 18 17 17 17 17 18 17 17 16
19 17 17 15 14 16 15 13 12 11 12 12 12 11 11 12 13 13 13 13 13 14 13 14 14 16 18 18 20 18 17 19 20 21 22 22 20 19 19 19 19 19 19
17 18 17 18 18 17 17 16 16 15 15 15 16 16 14 13 12 14 15 15 14 16 17 18 18 19 20 21 21 21 21 21 22 22 23 24 24 23 22 21 21 21 20
14 14 16 18 20 20 19 19 20 20 20 18 18 19 18 18 17 16 17 17 16 18 20 22 23 24 24 25 26 25 25 24 23 25 26 26 26 27 26 24 23 23 22
19 18 18 19 19 19 20 24 25 24 23 21 20 22 22 23 23 23 23 23 22 22 23 25 27 27 28 29 30 31 29 28 28 29 29 28 29 30 29 29 26 26 25
20 20 19 20 22 23 23 22 23 24 23 23 22 22 24 27 26 27 29 28 30 30 29 29 29 31 32 32 34 36 36 32 32 36 34 33 33 32 32 32 31 28 27
22 21 20 20 22 23 24 24 25 25 26 26 26 24 24 25 28 31 31 31 29 30 31 32 34 35 35 36 37 38 36 35 35 35 36 36 35 35 34 35 33 32 30
21 20 18 19 20 21 21 22 24 25 29 31 31 31 30 31 32 33 32 31 30 31 32 31 34 34 38 39 41 35 19 22 22 22 23 25 26 28 30 34 35 35 34
18 17 16 17 18 20 22 24 26 26 26 26 27 29 29 29 29 29 29 30 30 30 28 26 24 25 29 37 38 38 39 40 31 26 27 27 23 27 27 30 31 34 36
17 17 16 16 16 17 19 18 19 21 23 25 26 27 30 31 32 32 33 32 30 29 28 27 24 26 27 26 30 32 34 37 38 38 34 34 36 34 32 29 28 31 34
17 15 15 16 16 15 15 15 15 15 16 17 18 19 19 19 21 23 26 29 28 28 27 25 26 25 26 24 22 23 26 29 28 31 34 38 38 37 34 38 36 33 30

GFSSE_850_spd_054.txt.gz
Wind_Speed
23 24 23 21 19 18 16 14 11 10 8 7 6 3 2 4 7 13 12 11 8 7 5 7 6 7 5 4 5 5 4 5 6 7 7 9 12 13 13 12 12 11 7
26 25 24 22 19 17 15 13 11 9 7 5 4 3 2 6 12 13 12 10 9 9 8 9 7 8 7 8 6 3 3 5 6 5 7 9 12 13 13 12 11 13 10
25 26 25 22 19 17 15 14 12 9 7 6 5 5 7 10 13 11 10 9 10 10 9 9 9 10 9 7 4 2 3 5 5 7 9 9 11 12 12 12 13 10 7
24 25 24 22 19 17 15 13 12 10 9 6 6 7 9 12 12 10 8 7 9 11 11 10 9 9 8 6 4 4 5 6 8 8 8 11 10 12 11 11 14 13 8
23 23 22 21 19 17 15 14 12 11 6 6 6 8 11 11 12 10 6 6 8 10 10 10 11 11 10 9 8 7 8 7 8 9 9 10 12 9 9 10 8 8 12
23 22 21 21 19 18 16 14 13 9 5 6 6 10 12 11 12 9 6 6 8 9 9 10 10 11 10 9 8 7 8 9 9 10 9 7 8 7 7 6 3 5 6
24 22 21 21 19 18 16 14 12 8 3 2 6 12 12 12 12 8 7 6 7 8 8 8 8 8 7 6 6 7 7 7 8 9 8 5 3 2 2 2 3 5 3
23 24 21 20 19 17 16 15 11 8 3 2 3 8 12 12 11 9 7 7 7 7 7 7 7 6 5 4 3 4 5 5 6 7 7 6 5 5 6 5 4 5 6
21 21 22 20 18 16 15 14 10 7 5 2 4 5 4 4 11 11 9 8 7 7 7 7 6 5 4 3 1 1 2 4 6 7 7 8 7 4 4 5 4 5 7
19 18 18 18 18 17 15 12 11 9 7 5 4 5 6 4 4 5 6 6 6 6 6 5 5 5 5 4 4 3 2 2 4 5 6 8 6 2 5 9 10 9 8
19 17 16 18 20 17 15 14 13 12 10 7 5 5 5 6 6 6 5 5 5 5 4 3 2 2 3 3 5 5 5 5 6 7 7 8 4 3 8 11 13 13 12
19 17 14 16 19 17 15 17 15 14 12 8 5 4 5 5 6 6 7 7 7 6 6 5 4 4 4 4 6 7 7 7 8 8 8 8 3 5 10 13 17 14 13
16 14 14 16 19 18 16 17 17 13 13 10 7 6 6 5 7 7 7 7 6 6 5 6 6 6 7 7 8 9 10 10 9 9 10 8 4 9 14 15 15 14 14
15 11 11 13 17 17 16 15 16 14 12 11 9 9 9 7 6 7 8 8 8 8 8 8 9 10 9 10 11 12 13 13 13 12 11 11 8 11 14 15 14 14 14
15 12 11 9 13 14 15 15 16 14 12 10 11 11 12 11 8 8 8 9 8 9 8 9 10 11 12 14 15 15 15 15 16 16 15 13 12 13 15 16 16 15 14
15 13 12 11 11 12 12 12 12 11 9 10 11 11 11 12 10 10 9 10 10 11 9 9 10 11 12 15 15 15 15 16 17 17 17 17 16 15 16 17 17 17 17
16 13 13 12 12 13 12 11 10 9 10 9 8 9 10 11 11 11 10 11 10 11 12 12 12 13 14 15 16 16 16 17 17 18 18 18 19 18 18 18 18 18 17
16 16 15 15 16 15 14 13 13 12 12 11 10 12 12 12 11 12 12 11 10 12 13 15 16 17 17 18 19 19 19 18 19 19 20 19 20 20 20 20 19 20 19
13 14 15 16 15 15 14 15 15 16 16 15 15 15 14 16 16 17 17 15 13 14 15 17 19 20 21 22 23 23 23 23 22 22 23 22 22 23 23 22 22 21 21
17 17 16 16 15 15 16 17 18 19 19 18 18 18 17 18 19 20 22 21 21 21 22 22 23 23 24 26 27 28 28 28 26 26 27 26 26 25 25 25 25 25 24
21 21 21 20 20 19 19 20 21 22 22 22 21 20 20 21 22 24 24 24 25 27 26 26 27 29 29 30 32 33 33 32 31 30 29 30 31 30 30 29 28 27 26
20 21 23 24 23 23 25 26 25 24 24 24 24 25 25 25 25 26 27 27 29 29 29 28 28 30 31 31 33 36 35 30 31 28 27 24 21 23 25 26 28 28 28
21 23 23 22 21 21 22 24 25 27 27 27 28 28 28 29 30 30 31 31 31 31 31 30 30 30 31 29 30 31 21 20 25 24 22 22 25 25 26 26 26 26 27
20 19 18 18 18 19 20 21 22 23 24 25 25 25 25 26 26 27 27 27 28 29 29 29 28 29 27 27 26 26 29 31 30 26 23 20 22 30 27 27 25 22 22
20 19 18 17 17 17 19 20 21 23 24 24 25 26 28 29 31 33 32 31 30 31 31 29 29 28 27 25 25 24 23 24 26 29 27 24 26 26 25 26 28 25 25
22 20 18 17 16 16 16 17 17 17 17 17 18 18 19 19 19 21 22 24 25 26 27 27 27 28 27 25 23 22 20 18 20 19 24 26 26 26 23 23 25 24 25

GFSSE_850_spd_057.txt.gz
Wind_Speed
25 26 25 21 19 17 14 12 10 8 6 4 4 2 4 7 12 12 12 9 8 7 8 8 10 7 3 4 6 6 8 9 9 10 12 13 15 15 15 14 14 10 11
27 27 25 22 19 17 14 12 10 8 6 5 3 3 6 11 13 12 11 10 10 10 10 9 8 8 6 7 6 7 7 9 10 10 11 13 14 14 15 14 13 11 11
26 27 25 22 19 16 15 13 10 8 6 7 6 7 11 13 11 11 11 12 12 12 11 9 10 9 8 7 6 7 8 10 11 11 11 13 14 13 14 16 12 10 8
27 26 25 22 19 17 15 13 11 9 8 7 8 11 13 13 11 9 10 11 12 13 13 11 10 9 8 7 8 8 10 11 11 10 12 13 14 12 12 13 14 12 8
27 26 24 22 18 16 15 13 12 10 6 7 9 13 13 13 12 7 9 10 12 13 13 13 12 11 11 11 11 10 10 10 11 11 12 14 14 12 10 7 6 11 12
27 26 24 22 19 17 15 13 11 8 5 6 11 13 12 13 12 8 10 10 11 12 13 13 13 13 12 11 10 10 11 11 10 11 9 10 11 6 4 3 3 6 7
27 25 22 21 19 17 15 14 11 7 5 6 8 13 12 13 11 8 10 9 10 10 11 11 11 11 11 10 9 10 9 9 10 10 9 7 6 2 3 3 3 4 3
26 24 21 19 18 17 16 13 11 6 6 7 5 6 12 12 11 9 9 8 9 9 8 9 8 8 8 7 7 7 7 8 8 8 8 8 6 5 7 7 4 5 5
23 22 21 20 18 17 16 14 9 6 5 6 6 6 5 4 7 9 9 8 7 7 6 5 5 5 4 4 4 4 5 6 7 7 8 9 6 5 8 10 8 9 9
22 21 19 19 18 17 16 12 10 8 5 4 6 6 6 5 4 4 4 5 5 5 5 3 2 2 2 3 4 4 5 6 7 7 8 9 6 2 6 9 12 12 11
22 20 21 19 18 16 14 13 10 8 6 4 4 5 6 5 4 5 6 5 4 4 5 4 3 1 1 2 2 3 3 4 5 6 7 8 6 1 7 10 14 13 12
22 21 19 18 18 18 16 14 13 10 9 6 4 3 4 4 4 4 5 5 5 5 5 4 3 2 3 4 4 4 5 6 6 7 7 7 5 2 9 13 15 13 12
16 18 17 17 20 18 16 16 16 13 10 8 6 4 3 3 4 5 5 5 6 6 5 5 4 5 5 6 7 7 8 8 8 9 9 9 6 4 13 15 13 13 12
17 15 15 16 19 18 16 14 15 12 8 8 7 7 6 5 4 4 6 7 7 7 6 6 7 8 8 9 9 9 11 11 11 11 11 11 9 8 13 15 13 12 12
17 14 13 14 17 19 17 15 15 14 10 8 9 9 9 8 7 5 6 7 8 8 7 7 8 9 9 10 11 12 13 13 14 14 13 12 11 11 12 15 16 15 13
17 15 13 11 13 16 15 14 12 12 10 10 9 9 9 9 9 8 7 7 8 8 8 8 9 9 9 10 10 11 11 13 13 14 15 15 14 13 13 15 16 17 16
17 15 13 11 10 11 11 10 9 10 10 9 7 8 8 8 8 9 10 9 7 8 10 11 11 12 11 12 11 11 13 13 14 15 16 16 16 15 15 15 16 18 17
19 18 15 13 12 12 11 10 10 10 10 9 8 9 9 9 8 10 10 9 9 10 11 12 12 14 15 15 15 14 15 16 17 17 18 19 18 17 17 17 16 17 18
19 18 17 16 15 14 14 14 14 14 15 13 13 12 11 12 12 14 14 13 12 13 14 15 15 16 17 18 18 19 19 20 20 21 22 22 21 19 19 18 18 18 19
15 17 18 17 16 15 15 16 17 17 17 16 15 15 14 15 15 17 19 19 18 19 20 20 21 21 22 23 24 25 25 25 24 25 24 26 26 26 23 23 22 22 21
17 17 17 17 17 17 17 16 17 18 18 18 17 17 17 17 18 20 22 23 22 23 23 24 24 24 25 24 27 29 29 28 29 28 26 25 22 22 22 23 24 24 23
20 21 21 20 20 19 18 18 19 19 20 20 19 20 22 23 24 25 26 25 25 26 26 26 26 27 27 25 27 28 28 25 25 21 17 16 15 15 16 18 19 23 24
22 22 22 23 24 24 23 23 23 24 24 23 23 23 24 26 27 29 29 30 29 30 30 29 29 29 29 28 25 25 16 14 19 18 21 19 21 21 21 18 21 14 16
25 23 23 24 23 22 21 20 20 21 21 21 22 23 24 25 26 27 27 26 26 26 27 27 26 26 26 27 25 26 25 24 18 16 17 19 21 21 19 21 20 18 19
24 22 21 21 20 19 18 18 19 20 20 21 22 23 24 25 26 26 27 28 29 30 29 29 28 27 27 27 27 25 23 23 23 21 21 16 14 15 17 18 19 19 20
25 23 21 20 19 18 17 17 18 19 19 19 19 18 18 18 19 20 20 21 22 22 23 23 24 25 27 26 26 25 24 22 20 17 17 17 18 17 17 16 15 17 18

GFSSE_850_spd_060.txt.gz
Wind_Speed
21 21 21 19 16 14 12 10 8 6 4 2 3 4 7 11 12 11 8 7 7 9 11 12 11 8 7 8 7 8 10 10 12 14 15 16 16 15 15 15 13 9 13
24 22 21 19 16 13 11 7 6 6 4 3 3 5 11 12 11 10 9 9 9 11 10 10 8 7 9 8 8 9 10 12 13 13 13 15 15 16 15 13 12 10 11
26 23 24 19 18 15 11 10 8 6 5 5 5 9 13 11 10 10 11 12 12 13 11 12 11 10 9 8 9 10 12 13 13 14 15 11 13 15 17 16 11 9 8
25 23 22 21 18 16 14 11 8 7 7 7 10 12 14 10 9 9 12 13 13 13 12 12 11 10 9 9 10 12 13 13 13 15 11 10 9 11 11 11 14 11 10
23 23 22 22 19 16 14 11 10 8 5 7 11 13 15 12 8 8 11 13 14 14 13 13 13 12 11 11 12 12 12 13 12 13 11 13 11 8 5 6 9 10 10
21 21 23 22 19 16 14 13 9 6 4 7 13 14 14 13 6 9 11 12 13 13 14 14 14 14 13 12 11 12 11 11 12 10 9 10 5 2 3 3 4 3 3
21 19 22 20 18 17 14 13 10 7 5 8 12 13 14 13 7 7 10 10 11 12 13 13 12 12 11 11 10 9 9 10 10 9 7 7 3 4 6 5 5 5 4
20 19 19 21 19 17 16 13 10 7 8 9 11 10 12 11 8 9 8 7 8 9 9 10 9 9 9 8 7 7 8 8 9 8 8 5 6 7 9 9 8 7 6
18 18 17 19 18 17 16 13 10 8 7 9 10 11 11 10 6 6 7 6 5 6 6 6 6 6 5 5 5 5 6 7 7 6 7 6 6 5 8 10 11 10 10
19 17 16 17 17 17 16 13 9 8 7 8 8 8 7 6 4 3 4 4 4 3 4 4 3 3 2 2 2 2 3 4 5 6 6 6 5 3 5 9 12 12 11
17 18 16 16 16 15 14 14 11 9 7 7 7 6 6 6 5 4 5 5 4 4 3 2 1 0 1 2 2 2 3 4 5 6 6 8 6 2 8 10 14 13 11
18 18 16 16 15 15 15 14 12 10 7 6 6 5 5 5 5 5 6 6 6 6 5 4 3 3 3 3 4 4 4 5 6 6 6 7 7 5 8 11 14 13 11
17 17 17 16 16 15 14 14 16 13 9 8 8 6 6 5 5 5 6 6 7 6 6 5 5 5 6 6 6 6 7 7 7 8 8 8 8 7 9 13 14 13 12
16 17 17 16 16 17 14 14 13 10 9 9 9 8 7 6 5 5 7 8 8 7 8 7 7 8 9 9 9 9 10 10 10 10 10 9 10 10 11 14 13 13 12
15 16 15 16 17 17 17 14 14 12 11 9 10 10 8 8 7 6 7 8 9 9 8 8 8 8 9 10 11 11 12 11 11 11 10 11 11 11 11 13 17 15 14
17 15 15 15 16 17 19 16 13 12 12 11 11 10 10 10 9 9 8 8 9 9 9 9 9 9 9 10 9 10 10 10 11 12 12 12 12 12 13 14 15 16 16
17 16 16 15 14 16 18 17 14 13 13 11 11 10 10 10 9 10 10 10 9 10 11 12 12 12 12 12 11 11 12 12 13 14 15 15 16 15 14 14 15 16 16
18 19 17 16 15 15 15 14 14 13 12 11 11 10 9 9 9 10 11 10 10 11 12 12 13 13 14 14 13 12 13 16 16 17 18 19 19 19 18 15 14 15 16
18 19 19 19 17 15 14 14 14 13 13 13 13 12 10 11 12 12 13 12 12 13 14 14 15 16 15 14 15 18 19 20 20 21 21 22 22 22 23 23 19 17 17
19 21 21 20 20 18 17 17 18 18 17 16 16 16 15 15 15 15 16 16 16 18 19 19 20 19 20 20 20 25 25 25 24 24 24 24 24 25 24 24 24 23 21
16 18 21 20 19 19 19 19 19 19 19 19 18 16 17 18 18 18 19 19 20 21 22 21 20 21 23 21 24 25 20 19 24 24 16 15 17 15 17 19 19 20 21
14 15 18 18 19 19 19 20 20 19 19 18 19 18 19 20 21 23 24 25 25 25 25 25 26 25 26 25 24 22 19 17 19 16 11 11 16 18 16 17 19 17 17
13 15 19 21 22 23 23 23 21 21 20 20 20 20 21 21 23 25 27 28 29 29 29 28 29 29 29 29 27 23 15 16 10 13 15 18 17 17 18 18 19 18 17
14 17 20 22 23 25 25 25 25 24 22 22 22 22 23 23 25 26 27 28 29 29 29 27 27 27 27 28 27 27 27 26 19 13 12 17 19 20 19 17 17 18 19
18 19 23 23 23 23 23 23 22 20 19 19 20 22 23 24 25 26 27 28 28 29 29 30 30 30 29 29 28 27 25 25 22 22 18 16 15 13 17 18 18 20 21
22 22 25 26 23 21 21 20 19 19 19 20 21 22 23 23 23 23 22 23 23 24 24 24 24 25 25 27 28 27 26 22 20 20 21 19 15 12 16 16 17 18 19

GFSSE_850_spd_063.txt.gz
Wind_Speed
16 21 20 17 15 12 8 6 6 5 4 4 6 8 12 12 10 8 8 8 8 11 13 11 11 9 9 9 10 11 13 15 16 17 19 17 18 18 17 15 15 12 14
22 22 21 17 15 11 9 6 4 4 3 4 7 12 14 10 9 9 9 10 11 9 10 7 8 10 10 10 10 13 15 15 16 17 21 16 19 20 15 12 10 13 12
22 22 21 17 14 12 9 8 6 4 3 4 8 14 10 10 10 11 12 12 14 12 13 11 10 10 9 10 13 14 15 16 19 22 18 9 13 15 16 14 11 11 10
22 21 20 19 16 14 11 8 6 5 6 7 11 15 9 8 9 11 13 13 13 13 13 11 10 10 10 12 13 15 15 17 22 18 16 9 9 10 9 13 13 13 13
21 21 19 20 18 15 12 8 8 7 7 9 12 14 11 7 8 11 13 14 14 14 13 12 11 11 12 12 12 14 15 16 21 12 9 8 8 7 8 9 8 8 8
20 19 20 19 18 16 13 11 9 5 7 11 13 15 13 6 8 10 12 13 14 14 14 14 13 12 12 12 12 13 13 13 14 10 9 11 6 7 6 5 5 5 5
19 18 21 19 17 15 14 12 9 7 7 12 14 14 14 7 6 9 11 11 11 12 13 12 11 10 11 10 10 10 11 11 10 8 7 2 6 9 9 8 7 7 6
18 15 20 19 16 14 13 12 10 8 9 12 13 13 12 9 6 10 10 10 9 10 9 9 9 8 8 8 8 7 8 9 8 7 7 6 7 8 11 11 11 11 10
17 16 16 20 17 14 13 12 9 9 11 12 14 12 12 8 4 8 8 8 7 7 7 7 6 6 5 5 5 5 6 7 7 5 6 4 6 4 7 11 13 12 12
17 17 17 16 17 16 15 11 9 8 10 12 12 11 10 5 3 4 3 4 4 4 4 4 4 3 3 2 2 3 4 4 4 6 6 8 8 6 4 9 13 13 13
18 15 17 15 16 16 13 13 9 9 8 9 10 9 7 3 3 3 4 3 3 3 3 2 1 1 0 0 1 2 3 4 3 4 5 8 8 8 8 7 13 13 13
19 16 16 17 17 15 13 14 10 9 6 5 5 7 6 7 7 8 5 6 5 5 4 4 3 2 2 3 5 3 4 4 5 6 7 8 8 8 8 10 12 13 12
18 18 16 14 16 18 14 11 12 10 9 8 7 7 8 8 7 7 5 6 6 7 6 6 5 4 4 5 6 5 6 7 5 8 9 9 10 10 9 8 11 12 12
17 15 14 16 14 14 16 15 12 12 8 7 9 8 7 6 7 6 6 6 6 7 5 6 5 6 8 8 7 7 8 9 7 8 8 10 11 12 12 11 11 12 12
17 17 18 15 15 15 15 14 12 9 10 10 9 10 8 7 8 6 6 7 7 7 7 7 7 7 7 7 7 8 8 9 8 9 10 12 11 12 12 12 14 15 14
14 16 15 17 16 16 16 15 11 10 11 10 10 10 11 8 8 7 7 7 7 8 8 7 7 7 7 7 7 8 9 9 10 10 11 12 13 12 12 12 13 15 15
14 14 15 14 14 17 17 16 14 12 12 12 11 11 11 10 9 8 8 7 7 8 8 9 9 10 10 9 9 9 9 10 10 12 14 15 16 17 15 14 14 14 14
14 17 16 15 14 13 13 13 13 12 12 12 11 11 11 11 10 9 9 9 8 8 9 9 9 9 10 10 10 10 11 12 13 13 15 16 18 18 19 18 15 15 15
14 16 17 17 15 16 16 14 13 12 12 11 11 11 11 10 10 10 9 9 9 10 11 11 11 11 12 12 14 13 14 15 15 15 16 17 17 21 22 19 22 21 20
12 15 17 19 17 17 16 17 16 14 13 13 12 12 11 11 12 12 11 11 12 13 13 14 15 15 15 16 16 17 18 20 19 17 17 17 19 17 21 21 20 21 19
12 15 18 20 19 20 20 20 18 18 16 15 13 14 15 14 13 15 15 13 14 15 16 16 17 19 19 20 20 23 21 17 17 20 19 15 13 18 16 16 13 12 13
11 15 16 18 19 19 19 19 16 14 15 12 14 16 17 18 18 19 19 18 16 18 20 18 18 21 21 20 19 20 18 19 16 18 17 13 15 14 19 17 16 14 14
15 15 17 17 17 17 17 13 17 18 17 17 18 17 17 19 20 21 22 23 24 24 25 25 25 24 24 24 23 21 13 11 10 12 12 16 18 17 16 18 15 17 18
17 15 17 18 20 20 20 21 22 19 18 13 13 17 19 20 22 23 24 24 26 27 28 29 28 28 25 25 25 25 26 26 18 18 19 17 16 16 16 17 15 15 18
20 18 16 18 21 22 23 25 25 24 21 22 22 20 19 20 22 23 24 26 26 27 27 27 27 28 28 28 27 24 25 26 26 24 21 20 15 18 15 13 15 15 16
18 19 16 15 18 21 20 21 23 22 22 20 19 18 19 21 23 24 24 24 24 23 24 24 24 24 24 24 24 23 25 22 21 22 26 24 20 15 13 7 17 19 19

GFSSE_850_spd_066.txt.gz
Wind_Speed
15 20 20 18 16 13 9 9 8 9 10 10 13 16 14 11 10 10 11 12 16 17 14 13 12 12 12 13 14 18 20 21 23 24 22 22 21 18 17 16 14 17 17
19 23 21 18 16 13 11 10 8 8 11 11 16 16 11 11 11 12 12 12 12 11 9 10 13 13 13 15 17 20 23 24 23 22 19 18 22 18 14 13 13 13 14
22 23 21 19 17 14 11 10 7 8 10 13 16 12 11 11 13 14 14 15 13 14 11 13 13 14 15 17 19 21 23 24 21 19 14 13 15 16 16 14 16 15 16
24 24 22 20 18 15 12 10 8 9 11 15 15 12 10 12 14 15 15 15 15 15 14 13 14 14 15 17 19 22 23 21 18 16 10 8 10 12 12 13 11 11 10
21 23 23 20 18 16 12 9 10 10 13 16 15 12 10 12 13 15 16 16 16 16 14 14 14 15 15 16 18 19 22 21 15 11 7 5 10 9 8 7 7 6 7
17 18 21 18 17 15 12 12 11 11 13 15 15 14 10 11 12 14 16 16 16 16 15 15 14 14 15 15 15 16 15 16 15 11 8 11 11 11 10 8 9 8 8
23 19 19 18 16 14 14 13 10 10 13 15 15 14 9 10 12 13 15 15 16 15 15 14 13 13 12 12 12 13 12 12 11 8 5 9 10 12 12 12 11 12 11
21 19 20 18 15 14 14 13 11 11 13 15 16 14 9 10 12 12 13 13 13 13 12 11 11 10 10 9 9 9 9 9 9 8 8 9 6 8 10 12 12 13 13
16 15 23 20 15 13 13 12 11 12 14 13 15 14 10 7 11 10 10 10 10 10 9 8 7 7 6 6 6 7 7 7 8 6 7 9 7 4 7 11 13 12 12
15 11 18 20 17 15 14 11 10 12 14 15 16 15 10 6 8 7 7 7 6 6 6 6 5 4 3 3 3 4 4 4 7 6 6 8 8 6 5 7 11 13 12
17 16 15 14 14 15 14 11 10 10 12 14 14 12 8 3 3 4 5 4 4 4 4 3 2 1 1 1 2 3 3 3 4 4 7 8 9 9 8 6 8 11 11
18 17 19 18 17 14 13 13 9 9 9 10 9 9 9 2 4 3 2 2 2 3 3 2 1 1 2 2 0 3 3 4 5 6 8 8 9 10 11 12 9 11 11
15 18 19 17 16 17 14 13 11 9 8 5 4 9 8 12 10 7 4 4 5 4 4 3 3 4 5 3 7 6 6 6 6 7 10 9 10 11 10 10 11 11 11
21 19 18 17 18 18 14 12 7 9 11 10 10 5 11 9 7 6 4 5 5 3 5 4 4 7 9 7 7 7 8 9 8 7 11 10 11 12 12 12 11 11 11
22 19 18 19 18 18 18 13 11 7 10 8 10 10 8 6 6 6 6 7 5 4 4 6 6 7 8 8 9 10 9 9 9 9 12 12 11 11 12 13 14 14 14
23 21 20 18 18 18 17 16 13 7 8 11 11 11 12 9 9 7 7 7 7 8 8 7 7 6 7 8 9 9 10 12 11 12 12 14 14 13 13 13 13 14 16
23 23 22 23 17 19 20 20 16 14 12 11 13 11 12 12 11 9 8 7 7 7 7 8 9 11 13 13 12 10 10 12 13 14 16 17 17 17 16 14 14 14 14
18 19 22 22 21 22 20 19 19 16 18 15 14 12 12 12 11 10 9 10 10 8 9 9 10 10 10 11 11 11 11 13 15 18 17 18 19 21 21 19 18 16 16
16 18 18 17 16 16 16 15 19 18 17 19 16 14 14 11 10 10 9 8 8 9 11 11 10 11 12 12 13 15 16 17 19 20 20 19 17 19 19 21 21 21 19
15 17 20 23 20 21 22 18 18 15 18 17 15 15 13 12 11 11 10 10 9 10 11 12 13 15 17 18 20 21 22 20 23 23 19 17 17 20 19 17 20 16 16
15 19 18 21 19 19 21 25 22 21 17 16 17 15 13 13 12 12 13 12 12 14 14 13 15 16 18 19 22 24 23 21 18 18 19 19 18 13 17 19 18 14 12
19 19 20 20 21 20 20 20 21 19 17 15 15 16 19 19 17 17 16 15 14 16 16 17 17 20 21 21 23 23 23 21 22 13 16 20 16 15 17 20 17 14 14
20 21 22 21 20 20 21 20 18 17 15 17 16 17 19 17 15 16 17 18 18 20 21 21 23 23 26 26 26 25 16 15 12 12 11 13 15 18 17 17 16 15 16
22 22 22 22 22 20 19 19 20 19 18 16 17 19 20 17 15 16 18 20 22 23 23 25 24 26 27 28 26 25 27 27 25 15 18 18 17 18 20 20 18 12 16
24 22 21 21 23 24 23 22 20 19 17 16 16 19 18 18 18 17 19 20 22 23 24 25 24 24 23 24 24 23 23 23 24 25 25 24 21 20 17 14 13 15 15
21 21 20 18 18 20 22 24 23 21 20 21 21 21 20 19 19 18 19 21 22 23 23 23 23 22 22 22 23 21 20 19 17 18 20 21 22 20 21 15 20 16 17

GFSSE_850_spd_069.txt.gz
Wind_Speed
21 23 22 21 18 15 12 11 11 12 13 18 19 15 13 12 14 16 20 20 18 17 15 14 13 14 16 19 20 21 23 24 23 24 22 21 19 17 18 16 16 18 18
27 25 23 21 18 15 15 14 13 14 17 18 18 13 12 12 14 17 18 17 15 14 12 12 15 17 20 21 24 25 23 21 19 18 18 20 19 16 17 17 16 18 17
27 27 24 22 19 17 15 13 13 15 17 18 13 13 13 14 16 17 18 17 12 10 10 15 17 19 21 23 23 22 20 16 16 15 15 13 16 16 16 16 14 13 17
30 27 24 22 20 17 14 13 14 16 19 15 13 14 15 16 17 18 17 18 14 12 17 17 18 20 21 22 22 20 21 17 13 12 12 11 14 12 12 12 10 10 10
29 27 25 22 19 16 14 14 16 17 19 16 14 14 16 17 17 17 18 18 18 18 18 19 19 19 21 21 21 20 17 15 10 10 13 13 12 12 11 11 10 9 8
27 26 25 22 19 16 14 15 16 18 19 17 14 15 16 16 17 18 18 18 18 18 18 18 18 18 19 18 16 14 13 11 11 12 13 12 13 13 12 12 12 11 10
26 25 23 21 18 15 15 15 15 18 19 18 15 14 15 16 17 18 19 19 18 18 17 16 16 15 15 15 13 12 12 9 8 10 11 10 11 12 12 12 12 12 11
21 21 21 19 17 16 15 14 15 18 19 19 17 13 14 16 17 17 17 17 16 15 14 13 13 12 12 11 11 9 7 9 7 9 10 9 7 8 10 11 12 12 12
15 17 21 20 17 16 14 14 15 17 18 18 17 12 13 14 14 15 15 15 14 12 11 10 9 8 8 8 7 7 6 7 5 7 8 9 8 6 6 8 10 11 11
16 14 20 20 18 18 16 13 15 17 17 17 16 14 14 12 12 11 11 10 10 9 8 7 6 5 5 5 4 4 3 4 4 6 7 8 8 7 7 7 8 10 10
16 14 21 20 18 18 17 14 13 16 16 17 18 13 8 7 8 10 9 8 7 6 6 5 4 3 2 2 2 2 1 3 4 6 7 7 9 9 9 8 9 9 10
17 15 16 15 15 17 17 15 13 14 15 15 14 11 8 8 7 7 7 6 5 5 4 3 2 1 1 1 1 1 3 4 6 7 7 8 9 10 11 11 10 10 10
19 15 16 17 16 16 15 15 13 12 14 14 12 11 8 6 3 2 2 3 4 4 5 4 3 2 2 4 3 4 4 5 6 8 8 8 9 9 10 10 10 10 11
27 21 22 21 18 17 14 12 10 10 14 15 13 13 11 7 8 7 6 4 3 4 4 5 3 4 3 5 6 5 7 7 6 7 8 9 9 10 10 10 10 11 11
26 26 24 21 17 19 17 12 9 6 9 12 12 9 9 10 10 8 6 5 4 5 4 4 3 4 6 6 7 8 7 7 8 9 10 11 11 11 11 12 13 13 12
25 26 22 21 18 19 19 16 12 7 10 14 13 13 11 11 9 9 9 6 5 5 5 6 6 5 5 7 8 9 10 10 11 12 13 13 13 13 13 13 13 13 14
28 27 25 23 24 23 22 20 16 12 11 11 12 16 12 13 12 10 10 9 7 7 7 8 7 8 9 11 12 12 10 9 12 14 15 17 17 18 17 16 14 13 14
27 26 26 25 24 24 25 23 20 18 15 17 15 16 14 12 14 12 11 11 9 8 7 7 9 9 9 9 8 8 10 11 14 16 17 20 21 19 19 18 17 18 16
25 26 27 27 26 23 22 22 20 21 19 18 17 16 15 13 12 13 12 11 11 10 10 9 9 9 9 10 12 13 16 18 18 19 22 23 22 18 18 18 16 18 18
22 24 25 28 25 25 26 21 21 26 24 23 24 21 18 16 12 12 12 11 10 9 10 11 11 12 13 15 17 18 20 22 22 22 23 20 16 18 18 19 17 18 16
20 23 23 24 25 23 25 26 24 26 26 22 21 19 17 15 13 12 12 12 11 13 13 13 13 15 16 15 18 22 23 21 21 20 21 19 18 19 19 14 16 18 16
17 21 22 24 26 25 27 27 26 24 24 20 21 19 18 17 16 14 15 15 16 15 15 16 17 17 18 18 20 22 27 25 23 18 13 13 16 20 15 17 19 17 14
21 20 24 24 25 26 26 28 31 26 25 24 21 21 20 21 21 21 20 18 18 18 18 17 18 20 23 23 23 24 14 11 12 11 14 13 15 17 18 22 18 18 16
23 20 23 24 23 25 26 26 27 29 28 26 23 21 24 22 19 18 18 18 19 20 21 21 23 24 28 27 26 25 27 25 22 14 13 13 17 16 19 22 18 17 17
21 22 24 27 28 28 25 26 26 26 23 19 20 22 22 20 19 17 19 21 21 20 20 21 22 23 23 23 21 22 23 25 25 25 21 22 22 22 20 20 20 20 15
23 24 24 25 28 28 26 26 24 24 23 25 24 23 22 21 21 20 18 18 18 20 22 22 22 22 21 22 21 21 22 22 21 14 18 21 19 17 20 19 20 18 16

GFSSE_850_spd_072.txt.gz
Wind_Speed
26 26 23 21 19 16 13 12 11 12 19 18 15 15 17 20 21 21 20 19 19 16 14 14 15 17 19 20 21 21 21 22 21 19 18 17 16 17 17 18 19 17 15
32 27 25 22 19 16 14 14 14 19 20 17 13 13 15 19 20 21 19 17 16 13 14 17 18 19 20 21 21 19 18 18 17 17 17 17 18 17 17 16 16 18 16
30 28 25 22 19 18 16 15 17 20 19 14 13 14 15 19 21 19 16 15 14 12 16 19 20 21 20 19 18 17 17 16 14 14 12 16 16 13 14 12 11 12 13
29 28 26 23 20 18 16 16 18 20 17 13 13 15 16 19 21 21 17 12 11 14 18 21 21 21 19 19 19 18 15 15 14 13 12 11 13 13 11 10 9 8 9
30 26 25 23 20 17 16 17 20 20 15 15 15 16 17 18 19 19 16 12 17 19 21 21 21 20 18 18 18 15 14 13 12 12 11 11 12 13 12 11 10 9 9
30 25 24 22 20 17 16 18 20 20 17 17 16 17 18 19 20 20 19 21 21 21 21 21 20 18 16 15 13 12 12 12 10 11 12 12 13 13 12 12 12 12 11
28 25 23 21 19 18 17 19 21 22 17 17 17 18 19 19 20 21 21 20 20 20 20 19 18 17 14 12 10 8 8 9 10 10 10 9 10 11 11 11 11 11 11
26 25 22 20 17 17 18 18 21 22 20 16 16 17 18 18 19 20 20 19 18 17 17 16 15 14 12 10 9 8 5 7 7 8 9 8 7 7 9 10 11 11 11
24 24 22 20 17 16 16 17 20 22 22 17 14 15 16 17 17 17 18 17 16 15 14 13 12 11 9 8 6 6 4 5 6 6 7 8 8 8 7 8 10 10 10
18 19 21 20 18 17 16 16 19 20 20 20 15 15 15 15 14 14 13 13 12 11 10 9 8 8 7 6 4 3 2 3 4 5 7 8 9 9 9 9 10 9 10
21 17 18 20 18 17 15 16 19 19 19 19 17 16 15 14 13 12 12 11 10 9 8 7 6 5 4 4 3 2 0 2 4 5 6 7 8 10 10 9 10 10 10
21 19 18 21 19 18 16 15 18 17 19 18 18 16 14 13 13 12 10 9 8 7 6 6 5 4 3 2 2 2 2 3 5 5 6 7 8 9 10 10 10 10 11
17 17 19 21 18 19 18 16 16 17 18 18 16 14 12 12 12 11 9 8 8 8 7 6 6 5 4 2 3 3 3 3 4 6 6 6 7 8 9 10 10 11 11
21 20 19 22 21 17 17 16 14 15 18 18 17 16 14 11 11 9 8 7 8 8 8 7 6 5 3 2 1 2 3 3 4 6 6 7 7 9 10 10 10 11 11
29 32 22 25 22 21 17 14 13 11 14 15 15 15 13 10 8 7 8 8 7 8 7 7 6 5 4 3 3 4 4 5 6 6 7 7 8 9 10 12 13 14 13
29 34 34 27 23 21 19 16 12 11 9 17 18 13 11 9 8 9 11 9 8 7 7 7 6 5 4 5 6 7 7 8 7 8 9 9 11 12 12 12 13 13 12
30 29 32 28 25 21 21 17 15 13 10 16 15 13 12 9 12 13 12 11 8 7 7 7 7 7 8 9 9 11 10 9 9 11 13 15 14 15 14 13 14 13 13
33 33 31 30 30 28 24 22 20 18 15 13 14 16 16 13 11 14 12 12 9 8 8 8 9 10 10 11 11 9 9 11 12 13 15 17 18 19 18 16 16 14 16
32 32 30 28 31 27 26 23 23 22 21 19 19 18 18 16 13 13 14 12 12 11 10 9 9 10 10 10 11 13 14 15 17 19 20 20 21 22 20 15 15 15 17
28 28 28 31 31 27 25 23 26 25 25 24 20 22 21 17 14 13 14 14 13 12 10 9 11 12 12 14 16 17 19 21 21 19 20 19 19 20 18 14 15 15 15
25 28 30 27 28 28 28 28 29 29 28 28 23 20 21 19 17 15 14 14 14 12 12 13 15 16 16 15 19 20 23 23 24 22 20 20 20 18 18 21 16 14 16
22 24 25 26 29 31 31 32 34 30 31 30 28 26 25 20 20 17 15 14 14 13 15 17 19 20 19 17 20 23 27 26 24 17 15 13 15 13 17 17 15 14 16
26 22 24 26 29 31 31 30 30 28 28 28 26 25 23 23 21 20 19 17 17 18 19 19 18 19 21 22 21 23 15 11 14 14 11 16 16 13 14 14 18 18 19
28 25 18 22 26 27 29 29 30 31 31 29 26 21 25 25 25 24 23 21 21 21 21 21 22 24 26 28 27 29 28 29 28 17 16 13 15 14 15 16 19 22 18
28 26 25 24 25 27 29 31 30 31 30 27 24 24 26 28 24 25 24 23 20 20 21 22 24 25 25 26 25 25 23 22 23 25 24 21 21 19 19 21 20 18 17
33 29 26 26 25 25 27 28 27 30 27 27 28 26 25 24 25 24 24 23 21 22 21 22 23 23 24 24 23 23 23 22 22 20 17 17 18 18 20 20 22 20 18

GFSSE_850_spd_075.txt.gz
Wind_Speed
27 25 23 21 19 15 12 10 11 16 15 17 18 20 20 20 19 20 18 16 16 13 11 12 14 16 17 19 19 19 20 19 18 16 17 18 17 18 18 18 17 16 13
30 27 23 21 18 15 13 12 14 19 17 14 16 19 20 21 21 19 17 17 14 12 12 15 17 17 17 18 19 18 17 17 17 16 17 18 16 14 13 15 13 15 14
30 26 24 20 18 15 14 15 20 18 16 11 15 20 21 21 20 18 17 14 12 13 16 18 19 17 16 16 18 17 17 16 15 14 13 14 12 11 11 10 11 13 14
29 27 24 20 18 17 16 18 20 18 13 12 14 19 23 22 19 16 16 13 13 17 18 19 18 17 18 20 19 18 16 15 15 14 13 12 12 11 11 11 11 11 11
27 26 24 20 19 17 17 20 19 16 13 13 15 17 22 24 21 16 13 12 17 19 19 19 18 17 17 19 18 17 15 15 14 13 13 13 12 13 13 13 13 12 11
25 25 23 20 18 15 17 21 19 15 14 15 16 17 19 23 21 15 13 19 20 20 20 19 17 16 15 15 14 14 12 12 13 12 12 12 12 13 13 13 13 13 12
24 23 22 20 18 16 17 21 19 15 16 16 17 18 20 21 20 21 21 21 21 20 19 18 16 13 12 10 11 10 10 10 10 10 9 9 10 11 12 13 13 13 12
24 23 21 19 17 15 16 21 22 16 16 16 17 18 20 21 22 22 22 22 21 20 18 16 14 12 10 8 6 8 7 7 7 8 9 8 8 8 9 11 12 12 12
22 22 21 19 16 15 15 19 24 20 15 16 17 18 19 20 20 21 21 20 19 18 16 15 13 11 9 8 5 4 5 5 5 5 7 8 8 9 9 10 11 11 11
20 20 21 19 17 16 14 17 23 22 18 15 16 17 18 18 18 17 17 16 15 14 13 12 10 9 7 5 4 2 2 3 3 4 5 7 8 8 9 9 10 9 10
20 19 19 18 16 15 14 17 21 23 20 17 15 17 16 16 16 15 14 13 12 11 10 9 8 7 6 4 3 2 1 2 3 4 6 6 8 9 9 9 9 9 10
23 23 20 18 17 17 15 16 20 23 22 19 17 17 16 15 14 13 12 12 11 10 9 8 7 7 6 4 3 2 3 3 4 3 4 5 6 7 9 9 9 10 10
20 22 22 21 19 18 16 16 19 20 22 19 18 16 14 14 14 14 11 10 10 10 9 8 7 6 5 4 4 4 3 4 4 4 4 4 5 7 8 9 9 10 10
19 19 19 19 20 18 17 15 18 18 20 20 19 17 14 13 13 12 10 9 10 9 9 8 7 6 5 4 4 3 2 3 3 4 5 5 6 7 8 10 11 11 12
27 11 24 11 21 20 20 17 15 16 18 17 18 17 15 13 12 11 10 10 9 10 9 9 7 6 6 5 4 4 4 3 5 5 5 6 7 8 9 11 12 14 12
29 21 20 12 20 24 22 18 17 14 13 16 17 17 16 12 11 10 10 10 10 8 9 8 7 7 6 6 6 6 6 7 7 7 7 8 9 10 11 11 11 12 12
32 25 22 28 30 23 24 20 16 14 14 14 19 18 15 12 11 10 9 11 10 9 9 9 8 8 7 8 8 9 11 9 8 10 11 14 14 16 16 13 13 12 12
31 33 28 31 32 31 20 22 22 19 16 13 17 19 16 14 9 10 12 11 11 11 10 9 8 8 9 10 11 10 9 11 11 12 14 16 17 17 17 18 17 14 13
33 31 31 31 32 33 33 24 24 23 20 19 15 16 16 14 13 12 12 12 13 12 10 9 9 10 10 9 11 11 13 15 18 19 21 19 21 20 20 21 15 14 15
33 31 31 33 33 32 29 32 32 27 23 23 21 20 19 19 17 15 12 13 15 14 13 12 11 9 10 11 14 16 18 19 20 24 23 20 19 18 18 18 15 16 15
28 29 32 32 32 31 34 28 29 29 29 27 26 26 23 23 22 18 14 13 16 15 12 9 11 13 14 14 17 20 21 23 24 25 24 23 21 19 19 15 16 17 12
20 27 26 27 31 32 35 33 31 31 31 29 30 28 24 24 23 20 16 16 15 15 13 14 15 17 18 17 19 20 26 26 21 9 15 17 15 14 10 13 15 12 11
18 19 25 28 32 32 33 31 28 27 29 31 30 29 29 26 25 20 20 17 15 16 16 17 17 18 19 19 18 18 13 11 22 23 13 17 17 20 16 13 13 13 14
20 19 21 21 23 26 30 31 28 25 29 29 31 32 28 29 24 22 22 19 18 18 19 19 21 22 21 23 25 26 27 28 27 17 10 11 15 15 14 14 16 19 21
24 20 22 21 19 22 25 27 27 26 26 25 23 25 23 23 24 25 23 19 16 18 21 23 25 23 23 25 25 26 27 24 23 23 26 23 21 21 20 18 18 18 18
20 29 25 26 22 22 25 26 25 26 25 27 26 26 23 22 23 25 22 21 14 16 22 26 26 25 25 26 25 24 24 24 23 22 22 22 22 19 19 18 18 19 19

GFSSE_850_spd_078.txt.gz
Wind_Speed
27 24 23 20 17 15 12 11 12 14 17 16 16 19 19 16 14 19 18 13 14 11 11 12 15 18 19 19 20 20 19 18 18 19 20 20 18 17 18 15 15 15 13
30 26 23 20 17 14 12 12 16 16 16 17 18 19 19 19 18 18 16 14 11 11 12 14 17 18 19 20 20 19 19 18 17 17 18 17 14 11 13 14 15 15 15
29 26 23 20 17 13 12 14 19 17 15 17 18 20 22 22 19 17 17 12 11 13 15 17 17 17 19 18 19 18 18 18 16 14 14 13 13 13 12 12 14 15 15
28 26 23 20 17 14 13 17 19 16 13 16 20 20 21 20 18 17 14 11 13 16 18 18 18 20 20 20 18 18 18 17 16 15 15 13 13 15 14 14 14 12 12
26 25 23 20 16 15 15 19 17 14 12 15 21 22 20 19 17 17 12 12 17 18 19 19 21 22 21 19 18 17 16 16 16 15 15 14 14 15 15 15 14 14 14
25 23 22 19 17 14 16 18 16 12 12 14 20 24 23 19 17 15 12 16 19 19 19 18 19 19 18 16 15 14 14 14 13 13 12 12 13 14 14 14 14 14 13
24 23 20 19 17 15 17 18 15 11 13 15 18 24 25 21 16 11 19 20 19 19 18 16 15 15 14 13 12 11 11 11 11 10 10 10 11 11 12 12 13 13 13
22 22 20 19 16 14 18 19 14 11 13 15 17 20 23 20 18 21 22 21 20 19 17 15 13 11 10 9 9 9 8 9 8 9 9 9 9 10 10 11 11 12 12
20 21 20 18 16 14 17 20 16 12 12 15 17 20 22 23 24 23 22 21 19 18 16 13 11 9 6 6 6 6 6 6 6 7 7 8 8 9 10 10 10 11 11
17 19 20 19 16 14 16 22 19 15 11 13 17 19 20 21 22 21 21 19 18 16 14 11 10 8 6 4 3 3 3 4 4 5 6 6 7 8 9 9 10 10 10
16 18 19 18 15 14 15 21 22 18 14 12 14 17 19 19 20 20 18 17 16 14 13 11 9 7 6 4 2 1 1 2 3 3 4 5 6 8 8 9 9 9 10
20 21 20 18 14 14 14 19 25 21 18 16 13 15 16 16 16 16 15 15 14 13 11 10 9 7 5 4 3 2 2 2 3 2 3 4 5 7 7 8 8 8 9
22 23 22 20 17 16 15 16 23 25 22 17 15 15 16 15 16 15 14 13 12 11 10 9 8 7 7 5 4 3 3 3 3 2 3 3 4 6 7 8 9 9 10
28 24 21 21 19 17 15 14 19 23 24 21 18 17 15 14 14 14 12 11 11 11 10 9 8 7 6 5 4 3 2 2 2 2 3 4 4 5 7 8 10 11 11
18 19 19 8 19 18 18 15 17 19 21 20 19 18 15 13 12 12 11 10 11 12 11 10 9 7 7 6 5 4 3 3 4 4 4 4 5 6 8 9 11 11 10
17 15 15 12 15 20 22 20 15 16 17 18 20 19 16 14 12 12 11 11 11 10 10 10 10 8 8 7 6 5 5 5 6 5 5 6 9 10 11 11 11 11 11
21 30 26 20 19 24 22 19 19 16 15 17 17 18 18 17 13 11 10 11 10 10 11 10 10 9 8 8 6 7 8 6 5 6 8 9 11 13 14 15 15 13 11
28 34 36 29 17 22 23 23 18 18 17 15 14 17 19 17 14 11 11 10 11 12 12 11 10 9 8 8 8 7 6 7 9 10 12 14 15 15 15 18 18 17 15
32 32 32 26 24 18 25 28 20 22 21 20 18 16 19 20 17 13 10 10 11 13 12 11 10 9 8 7 6 7 9 11 14 15 18 19 18 19 18 17 18 16 13
34 32 33 32 28 27 28 26 24 28 27 27 25 20 17 17 16 14 12 11 13 14 14 13 10 9 6 7 10 12 14 16 16 19 19 22 22 22 21 18 18 13 14
35 30 30 30 29 33 28 32 27 28 30 31 32 28 20 20 19 20 18 14 14 16 14 12 9 8 10 11 13 16 19 21 21 22 20 16 15 16 18 16 14 12 16
25 25 29 28 25 31 30 32 25 37 38 35 30 27 26 24 21 25 22 18 15 15 15 13 11 12 12 13 15 17 18 20 11 8 14 20 14 13 9 9 12 14 12
14 18 22 25 28 27 31 33 35 36 31 32 26 31 27 22 21 23 24 23 17 14 14 15 13 13 14 14 15 15 10 9 23 19 17 16 17 15 18 18 12 13 13
10 14 15 20 24 25 26 28 28 25 27 25 26 25 25 24 24 26 24 23 20 16 15 13 12 13 16 19 20 22 22 25 26 20 19 13 15 15 15 14 14 15 17
13 13 16 16 17 19 22 24 28 27 25 22 26 19 21 21 20 20 19 21 20 16 11 10 12 15 18 22 23 24 23 22 20 20 26 24 19 16 18 18 19 18 20
13 15 20 19 19 19 19 18 21 19 20 21 23 21 20 18 13 15 19 20 14 14 16 19 28 24 15 23 26 23 22 22 22 19 20 23 26 24 21 18 16 18 18

GFSSE_850_spd_081.txt.gz
Wind_Speed
28 24 23 22 19 16 13 10 10 12 12 14 21 19 17 14 15 17 20 13 13 10 12 16 19 19 19 19 20 19 20 20 20 20 20 18 17 15 16 15 15 15 16
29 25 24 21 18 16 13 12 14 17 16 15 22 21 20 15 18 20 15 14 11 11 15 18 20 20 20 21 21 20 19 19 19 17 16 16 14 14 16 17 16 17 18
28 26 24 20 17 14 13 15 17 18 18 18 21 21 20 19 20 17 15 13 12 15 17 19 20 21 20 20 20 19 18 17 15 15 14 15 15 15 13 14 15 15 13
29 27 24 21 17 14 13 18 18 17 18 19 22 23 22 21 18 18 14 13 16 17 18 19 21 20 19 19 19 18 16 16 15 15 15 15 16 16 16 15 14 14 14
29 26 24 21 17 14 14 19 18 15 17 20 21 23 22 21 19 16 13 16 18 20 20 22 22 20 19 18 17 16 16 16 16 15 15 15 15 15 15 15 14 14 13
26 24 23 20 17 14 17 19 17 14 16 21 22 21 21 20 19 16 15 18 21 21 22 22 21 19 18 16 14 14 14 14 13 13 12 12 14 14 13 13 13 13 13
25 24 22 19 17 15 19 18 14 12 15 21 24 22 21 19 19 14 18 20 22 21 21 20 19 17 15 14 12 12 12 12 11 10 10 10 11 10 11 11 11 12 12
25 24 21 19 18 16 19 17 13 11 13 19 26 25 22 19 14 16 21 21 21 20 19 18 16 14 12 11 10 9 9 9 9 9 9 9 9 10 10 10 10 10 10
23 23 21 20 17 15 18 18 13 12 12 16 22 28 24 19 15 22 22 21 21 19 17 14 12 11 10 9 8 7 7 6 6 7 7 8 8 8 8 9 9 9 9
22 20 20 19 17 15 19 17 14 12 12 14 17 23 24 21 23 24 23 21 20 18 15 13 10 9 7 6 6 5 4 4 4 5 5 6 6 7 7 8 8 8 9
18 18 18 18 16 15 18 20 16 14 11 13 16 19 23 23 24 23 21 19 18 16 14 12 9 7 5 5 3 2 2 2 2 3 3 4 5 6 6 7 7 8 8
10 11 16 18 16 14 17 23 20 17 15 13 16 18 19 20 20 20 19 18 16 15 13 12 10 8 7 5 4 3 1 0 1 1 1 2 3 4 5 6 6 7 8
17 9 17 18 18 16 16 21 24 19 16 15 14 16 18 19 20 20 19 18 16 14 13 11 10 9 7 6 5 4 3 2 1 1 1 1 2 3 4 5 6 7 8
29 14 22 23 23 19 17 19 24 25 22 18 16 17 18 18 18 18 17 16 15 14 13 12 10 9 8 7 6 5 4 3 2 2 2 1 2 3 4 6 8 9 10
31 20 24 26 21 23 19 18 21 26 24 19 18 17 16 15 14 14 14 13 13 13 12 12 11 10 9 8 6 5 5 4 4 4 3 2 3 4 6 7 9 11 10
28 30 23 16 16 23 20 19 19 22 23 23 20 18 17 14 14 14 14 13 12 12 13 13 12 11 10 9 8 6 6 5 5 5 3 3 4 7 9 10 12 12 10
26 20 27 30 13 17 15 20 19 19 20 21 20 21 19 17 15 14 14 13 13 12 13 13 13 12 10 9 8 6 6 6 4 4 6 6 8 9 12 11 13 14 14
32 26 29 18 19 27 19 18 17 17 18 18 18 18 19 19 18 17 15 13 13 14 13 13 13 12 10 9 7 6 4 4 6 7 9 12 13 15 16 15 15 17 16
30 27 35 20 22 29 23 21 17 16 17 15 17 18 17 18 18 18 15 12 13 14 14 14 13 12 10 8 6 4 5 7 10 12 13 15 16 18 17 16 15 16 15
27 36 22 29 26 18 19 21 31 22 21 18 18 20 19 19 20 20 17 13 14 14 15 15 13 11 9 6 4 7 9 12 13 16 17 18 18 17 17 18 17 17 13
32 32 32 29 32 24 18 22 25 28 28 28 23 21 21 20 20 23 19 16 16 15 14 15 14 12 9 7 7 9 13 17 15 15 11 10 13 16 11 13 12 14 13
30 35 36 25 25 27 23 26 26 24 25 38 29 26 26 26 29 27 26 23 20 17 17 17 16 13 11 9 10 11 9 12 3 4 19 14 16 10 9 9 10 12 17
19 18 25 30 26 32 32 22 24 21 24 25 26 23 24 28 32 31 25 25 25 24 20 19 19 16 13 11 9 9 5 4 18 12 16 18 11 12 13 13 13 13 11
26 24 25 27 27 31 30 28 25 31 22 32 26 27 28 28 29 27 24 22 23 22 20 19 18 16 13 10 11 15 14 16 10 12 15 17 17 17 14 14 15 12 13
13 14 17 16 18 22 25 26 27 26 25 13 18 13 18 24 17 19 22 24 19 15 20 16 11 11 9 10 10 12 15 18 17 18 21 21 18 18 19 17 15 17 21
10 13 12 15 13 15 15 16 18 18 20 17 19 21 19 13 20 20 19 17 14 16 20 8 9 13 15 21 22 27 19 19 18 17 19 24 24 24 20 19 18 16 16

GFSSE_850_spd_084.txt.gz
Wind_Speed
18 22 24 21 19 16 13 11 10 12 16 20 22 20 16 14 15 15 17 14 12 10 14 19 20 19 20 19 18 18 18 19 19 18 19 16 16 15 16 15 16 15 16
21 22 24 22 20 17 14 11 11 12 12 20 21 20 18 16 17 19 16 14 11 13 18 20 18 19 19 19 19 20 19 18 17 16 15 13 15 16 15 16 15 14 13
23 22 24 22 20 17 14 13 15 14 12 22 21 20 20 19 20 19 14 13 12 17 21 20 19 20 20 19 18 18 17 16 15 14 15 12 14 13 13 14 13 11 12
22 21 22 23 19 17 15 16 18 17 16 21 22 22 20 21 21 17 16 14 16 19 20 21 21 20 20 19 17 16 15 14 14 14 12 12 14 13 13 12 12 11 12
21 21 22 22 19 17 16 19 18 19 18 21 23 23 22 21 20 18 15 17 19 19 21 22 21 20 19 17 16 15 15 14 14 13 13 13 12 13 12 12 12 11 11
21 21 22 23 20 16 18 21 19 18 20 21 22 23 23 20 20 17 17 20 21 20 23 22 21 19 18 16 15 14 14 13 12 11 11 11 10 10 10 10 10 10 10
22 20 22 22 19 17 20 21 19 16 20 21 22 22 22 19 18 16 20 21 21 22 23 21 19 17 15 14 13 13 12 10 9 9 9 8 8 9 9 9 9 9 9
19 19 19 21 18 18 21 20 18 15 20 24 22 22 21 19 17 17 21 22 21 22 21 20 18 15 13 12 11 10 9 9 8 7 7 6 7 7 8 7 8 8 8
15 17 17 21 19 19 21 20 16 15 18 25 25 23 21 19 15 19 22 22 21 21 20 18 15 13 11 10 9 8 7 6 6 5 5 4 5 6 6 6 7 7 7
16 18 18 19 19 18 21 19 16 15 16 23 29 26 22 18 15 22 22 22 22 20 17 15 13 11 9 8 7 6 5 4 3 3 3 3 3 4 5 5 5 6 7
23 13 18 21 18 17 20 20 15 15 15 18 28 29 26 18 19 23 22 22 20 17 15 13 11 10 8 7 5 4 3 3 2 2 2 1 2 2 3 4 4 5 6
22 25 14 22 21 19 19 21 18 17 16 16 17 25 21 19 17 17 22 20 19 17 15 13 11 9 7 6 6 5 4 4 3 3 3 2 0 1 2 3 4 5 7
19 36 9 20 21 21 21 21 22 18 16 16 17 19 18 19 23 21 20 20 19 17 15 13 10 9 9 8 7 6 6 5 4 4 4 3 3 2 2 3 4 5 6
27 23 24 18 23 21 16 23 22 22 19 17 18 19 20 20 22 21 18 19 18 18 15 14 12 12 11 10 8 8 7 6 5 5 5 4 3 2 2 3 5 7 8
28 30 32 25 27 24 21 17 21 22 21 17 18 20 21 21 21 21 20 19 18 17 16 15 14 13 12 11 9 8 7 6 6 6 5 6 4 4 5 6 7 10 12
28 28 39 39 22 27 23 22 22 21 22 19 19 18 19 19 20 20 19 19 18 17 17 16 15 14 13 12 9 9 9 8 8 7 6 6 7 6 7 9 9 10 11
18 30 37 42 29 24 23 25 23 25 22 23 21 19 19 18 17 17 17 17 16 16 16 17 17 15 14 13 11 9 9 7 8 7 7 7 9 10 11 12 13 13 13
24 40 42 40 30 30 22 25 22 23 24 24 23 21 21 19 17 17 16 16 16 16 16 16 15 15 14 11 9 8 8 8 7 8 8 9 9 12 13 15 16 18 17
34 39 44 41 35 37 25 19 21 19 18 20 20 20 21 21 20 19 18 17 17 17 17 16 16 15 12 11 11 9 8 7 8 9 9 11 11 15 15 17 17 17 16
34 34 33 27 34 33 30 23 21 20 18 19 16 17 17 19 20 20 20 19 18 19 18 19 18 17 14 11 10 8 8 8 9 10 10 11 11 14 13 17 15 13 15
29 30 32 37 22 31 25 24 24 20 22 21 19 16 17 19 20 21 22 22 21 19 18 19 18 17 17 14 10 10 9 9 11 11 8 7 9 14 12 12 10 10 11
26 30 31 35 24 25 28 13 18 20 20 18 17 18 18 18 16 20 26 26 24 23 20 21 21 18 16 17 13 10 8 6 5 6 9 8 10 11 11 11 13 13 12
16 25 27 25 25 18 15 16 8 20 24 18 16 17 22 19 21 22 27 31 31 29 27 23 22 21 21 19 17 10 5 6 5 8 7 10 11 9 13 15 13 13 14
2 13 13 21 27 26 23 31 21 15 25 27 16 23 23 16 17 21 24 26 25 30 32 30 24 24 22 20 19 15 13 9 7 7 8 10 12 12 13 14 14 15 13
19 17 12 19 19 23 20 25 28 26 24 26 26 25 25 21 14 14 18 17 20 20 22 25 22 26 24 18 13 11 11 13 14 14 12 10 13 13 14 18 18 15 15
16 22 26 26 21 19 26 28 32 32 24 27 32 16 12 15 13 18 20 20 22 24 25 25 22 19 15 13 11 18 18 23 21 17 14 10 11 14 17 16 16 16 16

GFSSE_850_spd_087.txt.gz
Wind_Speed
14 17 23 19 17 15 13 13 13 16 19 18 16 14 11 11 12 13 14 12 10 10 18 18 16 17 18 16 15 17 18 18 19 16 16 16 16 16 16 18 13 14 14
14 20 23 20 17 15 13 11 11 14 18 20 19 17 13 13 14 15 15 12 11 15 19 17 18 17 17 17 18 19 18 17 16 16 15 15 16 15 15 15 12 13 15
18 20 24 20 18 15 12 11 11 13 17 20 20 19 16 16 17 18 14 13 13 19 18 17 17 19 19 19 18 18 16 15 15 18 16 10 13 13 13 11 10 11 12
20 21 21 21 18 15 13 11 13 13 17 21 21 20 20 19 18 18 14 12 16 20 20 18 18 19 19 18 16 15 14 14 15 18 10 10 11 11 11 10 9 10 10
20 19 21 21 18 16 13 13 15 14 18 22 22 21 21 20 21 16 14 15 18 20 19 19 19 18 17 16 15 14 14 14 15 12 11 10 10 11 10 10 10 9 9
17 18 21 20 18 15 14 16 17 16 17 22 23 22 22 21 19 18 17 18 19 20 22 20 19 17 16 14 14 14 14 13 14 9 9 9 8 9 9 9 9 9 9
13 17 18 20 17 15 15 18 17 17 16 19 22 23 23 21 20 18 19 20 19 21 22 21 19 17 15 14 13 12 11 10 9 8 7 5 7 7 8 8 8 8 8
14 15 14 19 16 14 16 19 17 16 17 19 21 22 22 19 21 20 21 21 20 23 22 20 18 16 14 13 12 10 9 9 7 7 6 4 5 6 7 7 7 8 8
20 11 12 16 17 14 17 19 17 14 19 19 20 23 22 19 18 21 23 21 23 23 21 19 16 14 12 10 9 8 7 6 7 4 5 2 4 5 5 5 6 7 7
36 16 16 14 13 14 18 19 17 14 18 23 20 24 24 19 17 22 23 21 22 22 20 18 15 12 11 9 7 6 5 5 3 3 4 1 2 3 4 4 4 5 6
26 24 19 16 15 15 17 21 18 15 17 25 25 19 19 17 16 23 23 21 21 20 19 16 14 11 9 7 6 5 4 3 2 2 3 2 1 1 2 2 3 4 5
28 36 37 19 14 21 22 22 19 17 17 21 27 23 19 13 14 16 23 22 20 19 17 15 13 11 8 6 6 5 3 4 3 4 6 3 2 1 1 2 3 4 6
37 38 20 39 21 23 25 23 21 16 15 16 18 22 24 15 19 21 22 22 21 19 16 14 12 11 9 7 7 4 5 6 3 4 6 5 4 4 3 2 3 5 6
21 20 29 29 39 25 20 19 23 20 16 16 17 18 17 19 22 18 19 20 18 18 12 12 10 8 10 9 7 6 6 5 4 5 7 6 5 5 4 4 4 6 8
21 18 25 20 39 15 16 16 19 22 20 17 18 20 19 19 21 17 15 15 14 14 13 12 12 11 10 9 8 8 7 6 5 6 6 7 7 6 6 7 7 8 8
22 16 22 31 34 33 20 17 15 21 21 16 17 19 17 17 21 20 17 17 15 15 15 13 11 10 10 10 9 8 7 8 7 7 5 8 9 9 8 9 9 10 10
27 14 27 28 30 30 28 20 17 15 22 24 16 16 18 16 18 17 17 17 16 15 13 13 12 11 10 10 10 10 9 8 8 6 7 6 9 12 11 12 14 13 13
33 26 16 28 28 33 27 22 20 21 17 22 22 19 18 17 16 17 14 13 13 13 15 15 15 14 13 11 10 10 10 9 9 8 8 8 8 9 12 13 16 15 16
30 24 25 29 31 33 31 26 23 21 21 19 17 19 19 19 19 17 17 16 13 15 14 14 13 13 13 12 12 11 11 9 9 8 8 8 10 13 11 12 17 15 16
29 30 25 26 33 26 37 30 26 24 19 20 21 20 20 22 23 19 17 16 13 15 14 14 14 14 13 12 12 12 11 11 10 10 9 9 10 10 9 11 12 10 13
32 33 28 29 36 39 31 39 27 28 24 20 19 20 20 17 18 18 18 16 16 17 16 16 15 16 16 15 14 14 14 12 12 11 10 9 7 7 10 8 8 8 7
24 31 25 24 29 36 39 45 28 28 26 20 18 20 16 16 16 17 18 17 17 17 19 18 19 19 19 19 20 12 11 12 11 11 10 7 6 9 7 9 11 13 11
5 19 21 23 23 23 30 41 26 24 21 21 19 17 17 16 15 15 17 18 22 24 27 26 22 24 23 22 24 12 8 7 11 7 10 6 6 7 6 11 11 12 12
25 12 23 26 18 25 24 29 21 17 22 21 20 19 14 10 12 15 18 19 20 25 25 26 29 26 25 26 23 22 14 7 6 5 9 10 10 9 9 10 11 14 14
25 7 11 20 28 22 23 21 24 21 12 11 19 20 13 10 17 20 16 18 20 17 19 22 21 26 27 27 24 24 21 13 7 8 11 13 13 11 11 11 11 12 14
24 17 9 9 12 13 10 18 16 21 28 16 21 22 24 24 20 23 23 18 17 23 21 22 18 16 21 25 26 25 14 12 18 20 22 19 13 13 16 16 14 13 15

GFSSE_850_spd_090.txt.gz
Wind_Speed
14 12 21 21 19 17 15 15 16 15 14 13 12 10 9 9 11 13 13 10 11 15 17 18 16 16 16 16 17 17 18 17 17 16 16 16 16 17 17 14 14 15 15
13 12 22 20 18 17 15 14 15 16 16 15 14 13 11 11 12 12 14 11 13 19 16 16 17 16 15 17 18 19 18 17 17 17 15 14 16 15 14 12 14 16 14
12 11 22 20 18 15 13 12 13 15 18 18 16 15 12 13 15 14 13 13 16 18 16 18 16 17 18 18 18 18 18 19 19 17 13 11 13 13 11 11 11 11 11
13 12 22 18 16 14 11 10 10 13 18 19 18 16 14 15 18 16 14 14 19 16 15 17 18 19 19 18 17 16 17 19 19 13 5 10 11 10 10 10 9 8 8
18 13 16 17 15 14 11 9 10 12 17 19 19 19 19 19 18 17 15 17 20 19 16 20 20 19 17 15 15 14 16 15 14 10 8 10 10 10 9 9 9 9 8
18 16 15 16 15 13 11 10 12 12 17 21 20 20 21 21 21 17 15 17 20 20 17 19 19 18 16 14 14 14 14 12 12 8 7 8 8 9 9 9 9 9 9
20 18 16 13 15 12 11 11 13 13 17 20 21 21 22 20 21 18 18 20 20 20 21 19 18 17 15 14 13 13 11 11 11 4 5 6 7 7 8 8 9 9 9
20 19 16 15 14 12 11 13 14 14 14 19 20 21 23 22 20 19 19 21 20 23 21 19 18 16 15 13 12 10 9 10 8 5 5 5 6 6 7 7 8 8 8
23 22 20 14 15 14 11 15 15 14 14 17 19 21 22 21 19 20 21 21 22 23 20 19 17 15 14 13 11 9 8 8 6 5 2 4 4 5 6 6 6 7 8
21 22 23 18 14 14 14 16 17 15 16 16 19 22 23 19 22 21 21 20 24 24 21 19 16 14 12 11 10 8 7 6 4 6 3 1 2 3 4 4 5 6 7
25 24 28 26 18 17 12 18 18 17 16 21 20 25 26 21 21 25 23 19 23 23 21 18 15 12 10 9 8 7 6 4 2 0 3 1 1 1 2 3 4 5 6
28 27 26 24 26 20 17 15 19 18 19 22 23 25 27 21 20 24 24 20 20 22 20 17 14 12 10 8 6 5 4 3 4 5 5 3 2 1 1 2 3 5 6
26 25 23 31 23 27 19 4 19 23 21 23 26 22 20 13 15 22 25 24 23 22 19 17 14 12 9 8 4 4 4 4 5 6 6 4 4 3 3 3 3 4 5
24 27 28 26 24 22 40 39 32 28 23 24 25 27 21 19 17 23 23 24 23 21 19 15 13 11 11 9 9 5 5 7 8 7 6 6 5 5 4 3 4 6 7
19 21 28 29 33 26 28 36 31 27 19 23 22 23 28 22 22 23 20 22 21 19 17 13 12 8 9 11 10 8 9 6 2 7 8 8 7 6 5 5 6 6 6
20 19 18 26 32 29 23 21 12 23 24 22 25 22 23 28 26 24 17 18 17 15 15 15 15 15 12 8 8 10 9 7 9 10 11 8 7 7 9 8 8 8 7
18 17 16 19 21 21 24 13 28 7 21 23 22 32 29 26 23 25 23 22 21 21 19 16 11 9 13 13 12 8 9 11 8 10 10 8 8 9 8 9 10 10 11
14 14 17 17 21 23 26 34 33 27 16 22 20 20 23 20 21 25 25 23 21 18 16 15 16 17 17 14 15 14 11 11 13 9 9 8 8 9 10 11 11 13 14
15 12 18 16 20 22 21 29 33 27 24 20 22 18 21 23 20 22 21 17 15 14 15 16 16 15 15 15 14 11 11 12 10 11 13 10 8 12 15 17 14 13 12
18 17 19 25 20 21 24 25 34 26 24 26 23 24 23 23 21 20 20 18 16 14 16 15 14 13 14 13 14 14 16 15 13 12 10 9 11 16 17 14 12 9 8
18 17 17 24 20 28 25 32 36 27 26 25 27 23 24 25 20 19 17 16 16 16 16 15 15 15 16 16 14 15 13 15 15 12 11 15 17 15 11 10 8 8 9
18 20 20 25 27 32 23 28 36 33 29 27 27 29 24 22 21 21 20 17 17 18 18 16 16 16 16 16 20 17 17 20 20 17 17 16 14 13 12 10 9 10 11
18 15 22 23 26 26 23 32 32 36 26 29 29 25 23 20 17 16 17 16 16 19 21 22 22 21 20 19 22 21 9 10 18 21 18 17 14 10 8 12 13 11 10
16 12 7 11 22 25 21 25 37 35 28 27 24 25 23 20 17 15 14 14 17 19 22 26 27 24 22 22 23 28 21 10 14 12 18 15 12 9 11 15 15 14 13
12 10 14 16 21 11 21 15 24 28 30 25 22 18 19 18 18 5 4 11 16 21 24 24 18 19 24 26 27 26 34 26 14 14 15 9 7 13 14 15 15 17 18
14 12 4 2 6 13 6 10 21 27 25 11 12 14 18 19 14 14 17 18 19 24 28 24 14 14 13 13 20 20 31 35 24 18 13 18 22 17 15 17 16 16 16

GFSSE_850_spd_093.txt.gz
Wind_Speed
15 15 21 20 20 18 17 16 16 16 16 15 14 12 11 12 13 15 14 13 14 17 17 19 16 17 17 18 18 17 17 17 16 14 14 16 17 15 15 15 16 16 15
16 17 21 20 19 18 17 16 16 16 15 15 14 12 11 12 13 15 12 14 17 20 17 18 17 17 17 16 18 18 17 17 17 15 13 14 14 14 13 13 14 15 17
11 16 22 21 19 18 16 15 15 16 15 15 15 13 11 12 14 14 14 16 19 18 18 18 17 16 18 19 18 17 17 16 15 14 12 11 11 11 11 11 10 12 12
11 8 20 21 19 17 15 13 13 15 17 17 16 15 13 13 15 15 16 19 18 19 19 17 16 18 20 20 19 19 16 13 13 13 11 9 9 10 9 9 9 8 8
12 8 20 20 17 16 14 12 12 14 18 18 18 17 16 15 18 17 17 20 17 16 19 17 19 20 19 19 18 17 15 11 9 9 9 10 9 9 9 9 9 9 8
14 12 16 19 17 15 12 10 10 12 16 19 20 19 19 19 19 19 19 22 19 17 19 19 20 19 17 16 17 16 13 11 8 8 8 8 8 9 9 9 9 9 9
13 14 14 17 14 14 11 10 10 11 13 19 21 20 20 22 20 19 21 23 20 18 23 23 20 18 17 16 16 14 11 9 7 8 7 7 7 8 8 9 9 9 9
15 15 17 15 15 12 11 9 11 11 12 18 19 20 22 23 22 19 20 23 21 21 23 21 19 17 16 16 15 12 10 8 6 7 6 6 6 7 7 8 8 8 8
17 20 21 18 16 13 9 8 11 11 11 18 18 19 22 24 23 21 20 22 21 24 21 21 19 17 16 15 13 12 9 8 4 4 6 6 5 6 6 6 6 6 7
18 18 20 22 21 18 12 9 11 11 12 15 18 19 22 22 23 21 21 21 23 22 22 21 18 16 15 14 12 11 9 7 3 2 3 4 4 4 4 4 5 5 7
19 20 20 21 20 15 10 10 11 13 13 14 18 21 24 25 23 23 23 22 22 22 23 21 18 15 14 12 11 10 8 6 5 2 2 2 1 2 2 3 4 5 6
19 23 23 25 18 19 21 16 15 14 14 15 18 23 26 26 25 23 24 23 21 25 23 21 18 15 13 11 9 8 7 5 2 2 2 1 1 1 2 2 3 3 5
21 24 22 24 22 17 17 25 19 12 11 16 20 25 29 29 23 26 26 24 26 26 24 21 19 16 12 10 9 7 7 6 4 4 3 2 3 3 2 2 2 3 4
17 23 25 26 22 20 20 18 23 23 11 21 24 24 29 24 22 27 30 27 27 27 24 20 17 14 12 11 10 6 7 5 7 7 3 3 4 4 4 3 4 5 5
19 23 26 27 26 28 25 19 20 33 40 33 29 27 22 19 18 25 28 29 28 26 23 19 16 14 12 10 8 7 8 6 7 8 5 6 5 4 5 5 6 6 6
22 24 21 26 30 30 31 23 25 19 37 30 29 27 28 25 24 23 25 26 24 24 21 18 16 14 12 8 10 12 11 11 8 8 8 9 5 4 5 6 6 7 8
23 28 19 19 17 22 27 22 23 27 14 26 25 22 25 30 26 24 23 23 25 23 20 20 15 14 12 11 11 11 10 11 11 13 13 11 5 6 6 5 7 8 9
18 11 22 23 15 11 14 20 14 17 25 20 22 23 24 28 28 25 25 24 25 24 21 20 18 17 17 15 15 13 14 13 13 12 8 8 9 7 9 10 12 15 13
21 19 19 22 21 10 10 15 25 24 24 31 31 28 29 31 31 28 28 25 25 25 23 21 20 18 18 18 17 16 16 16 14 15 12 12 12 10 13 14 16 15 12
25 24 19 15 20 16 10 9 16 29 25 27 29 32 30 34 29 30 32 30 26 25 23 20 19 18 17 16 16 17 15 16 14 12 12 12 13 15 15 16 17 13 10
22 23 24 21 22 22 16 12 20 24 31 25 28 31 30 32 29 27 29 28 26 24 21 19 16 17 16 14 13 13 15 17 17 16 15 16 16 17 18 19 14 11 10
22 25 28 23 21 22 17 15 18 27 28 27 28 29 30 32 33 30 29 28 26 25 22 19 18 17 17 16 18 16 14 18 20 20 20 21 22 22 21 15 13 10 11
23 21 21 25 22 21 18 16 21 24 32 27 29 30 34 33 34 32 30 29 27 26 24 20 19 20 19 17 18 18 8 11 16 25 23 25 25 23 18 15 12 12 13
18 18 12 15 20 25 21 22 21 25 34 35 34 31 31 35 33 27 28 30 26 24 25 22 22 23 22 22 22 24 25 9 5 9 24 25 22 18 12 12 15 16 15
12 12 10 11 14 17 23 23 19 21 36 30 32 25 33 31 35 40 30 26 22 22 20 22 18 22 24 27 26 24 24 20 24 15 16 28 22 15 11 13 17 16 18
17 10 5 5 10 15 9 6 15 20 21 36 33 29 29 31 25 26 28 25 15 13 16 28 20 23 27 27 24 29 24 23 32 35 25 21 21 17 19 17 19 18 17

GFSSE_850_spd_096.txt.gz
Wind_Speed
15 24 24 23 22 20 20 20 18 17 18 14 14 14 12 13 13 14 12 12 14 15 17 18 18 18 18 17 14 15 15 14 13 14 16 17 13 16 15 17 16 16 17
16 24 24 23 22 21 19 19 18 17 17 15 14 13 12 14 15 16 12 13 15 14 15 14 17 16 18 18 15 16 16 16 16 14 14 14 14 14 14 14 15 16 16
17 23 24 23 22 20 19 17 17 16 16 15 15 12 12 14 15 16 13 14 18 15 16 17 17 15 17 17 16 16 16 15 14 13 11 11 12 12 10 10 11 11 11
14 18 23 23 21 19 18 17 16 16 16 16 15 13 11 13 15 15 16 19 17 17 18 18 14 16 19 17 16 14 14 14 13 12 10 9 10 10 10 9 9 9 8
15 15 22 23 21 19 17 15 15 16 17 17 16 16 14 14 15 17 19 18 19 19 17 14 14 20 20 18 15 12 12 12 11 10 9 9 9 10 9 9 9 9 8
14 12 21 21 20 18 15 14 13 15 17 17 18 18 17 16 18 19 20 20 19 18 16 14 17 21 20 17 15 11 9 8 9 8 8 8 8 9 9 9 10 9 8
14 14 20 20 19 17 15 13 12 13 15 18 19 19 18 17 20 19 22 20 19 18 18 17 20 19 18 17 15 11 8 9 8 7 7 7 7 8 8 9 9 8 8
12 16 18 20 17 17 15 12 12 12 13 18 19 20 19 19 21 20 23 20 17 18 20 22 20 19 17 18 15 11 8 9 8 7 7 6 7 7 7 7 7 7 8
14 17 20 21 18 17 14 12 13 12 11 17 18 18 19 20 22 19 22 20 19 18 24 23 20 18 18 17 14 10 7 6 6 6 6 6 6 6 6 5 6 6 7
14 16 16 20 20 18 17 15 15 14 11 16 16 17 19 21 22 21 23 24 20 21 23 22 20 18 18 17 14 11 7 5 5 6 5 4 4 4 4 4 4 5 5
15 15 18 18 19 19 17 15 16 15 14 12 15 16 18 24 23 24 23 21 20 21 21 22 20 18 17 16 14 11 9 6 4 4 3 3 2 1 2 2 3 3 4
16 17 21 23 21 21 17 13 15 17 16 14 13 16 20 24 26 26 23 21 22 22 22 23 20 18 17 15 13 12 10 7 5 4 2 1 1 1 1 0 1 2 3
13 18 20 24 22 21 15 16 17 20 21 16 13 13 21 26 29 25 24 24 25 26 25 23 22 19 17 15 14 13 11 8 6 3 2 2 3 3 3 2 1 1 2
15 16 19 22 23 20 15 15 17 17 18 18 5 10 21 27 30 28 28 28 28 30 28 25 22 19 17 16 14 13 12 9 7 5 4 4 4 4 5 4 3 3 2
13 16 19 22 22 21 21 20 18 18 22 19 19 18 20 24 35 31 29 29 30 29 29 26 23 20 18 17 15 13 12 10 8 9 7 4 6 5 5 5 5 5 4
15 21 21 20 18 23 26 25 25 15 18 21 31 32 23 26 29 26 29 30 28 30 29 26 23 20 19 17 15 15 13 11 9 10 9 7 7 7 5 5 6 6 7
14 19 23 21 21 18 30 29 32 29 23 20 34 31 26 27 25 17 27 31 30 26 27 25 23 20 19 18 16 14 14 13 13 14 11 9 10 8 7 6 5 7 8
15 16 21 23 24 14 14 22 28 29 28 26 23 33 28 27 29 29 25 26 30 29 28 27 25 24 21 20 17 16 16 15 15 14 12 11 9 8 8 9 10 11 13
15 18 17 16 18 22 18 20 20 19 18 24 21 27 22 23 29 31 31 27 29 31 31 30 27 25 23 21 19 17 17 17 17 15 16 14 14 14 12 13 13 14 14
19 18 22 19 18 17 22 19 20 18 23 21 26 26 27 36 35 33 34 31 28 31 32 29 27 25 25 22 20 19 19 19 20 18 16 18 15 16 16 15 15 16 16
21 19 24 22 19 18 22 21 22 21 23 26 26 36 35 36 33 35 33 31 33 34 33 30 28 28 27 23 22 21 22 20 21 20 16 15 18 17 20 18 18 18 16
21 20 23 26 27 23 22 20 17 17 21 23 27 31 36 38 38 37 36 36 35 35 34 33 31 29 26 24 24 19 14 20 23 22 20 21 22 19 21 22 21 20 16
19 19 19 21 24 21 23 20 18 18 18 20 26 33 34 39 39 36 35 36 40 38 36 34 32 28 28 26 25 16 9 12 16 22 23 25 26 23 24 25 23 18 15
17 18 20 20 20 22 24 25 24 20 16 19 24 32 26 32 38 38 36 36 38 39 37 35 33 31 28 29 29 27 22 10 12 9 26 27 25 26 28 26 21 16 15
7 10 15 16 14 16 20 24 26 24 26 21 27 34 33 30 36 38 38 38 39 38 35 35 34 34 32 30 29 25 29 31 20 15 14 23 27 24 23 27 20 16 14
9 6 5 5 7 10 8 15 23 21 24 24 23 32 41 31 31 36 40 38 33 32 32 32 33 32 27 24 28 29 31 30 31 32 28 25 29 27 28 17 18 18 19

GFSSE_850_spd_099.txt.gz
Wind_Speed
20 21 24 25 22 22 22 22 20 18 17 15 15 14 12 12 10 9 9 8 9 12 15 17 14 14 11 13 12 12 12 11 14 15 14 12 15 17 16 15 17 16 15
15 23 25 24 23 22 21 22 21 18 17 14 13 14 12 12 12 12 10 11 12 15 15 16 14 15 14 11 11 13 13 13 14 13 12 12 14 15 14 15 16 15 14
15 22 24 24 23 22 21 21 19 19 18 15 13 13 12 13 13 14 12 12 13 13 14 15 14 15 12 12 13 14 13 13 13 12 10 10 11 10 9 10 11 11 10
13 20 22 23 22 20 19 19 18 18 17 16 15 13 12 13 14 14 13 15 14 15 15 16 14 15 14 14 13 13 13 12 11 10 9 8 9 9 9 8 8 8 8
15 17 21 22 21 20 19 17 17 17 17 16 15 14 13 14 14 14 15 17 17 18 17 16 11 17 16 14 12 11 11 11 10 9 8 8 8 9 9 8 8 8 8
13 14 20 21 20 18 17 16 16 16 17 17 16 15 15 14 14 16 18 17 19 18 14 13 13 18 16 13 12 11 10 8 9 8 7 7 7 8 8 8 8 8 8
14 14 19 21 20 18 17 16 15 16 17 18 18 18 16 16 16 17 20 19 18 16 15 12 18 19 16 13 11 9 8 8 7 7 7 6 6 7 7 7 7 8 7
12 15 20 21 20 19 17 15 15 15 16 18 19 19 18 17 18 19 21 20 18 16 16 15 20 19 16 14 11 8 7 6 6 6 6 6 6 6 6 6 6 6 7
13 15 19 21 20 19 17 15 14 14 15 17 19 20 19 18 19 19 22 20 17 16 17 19 20 19 17 15 12 9 8 7 6 6 6 5 5 5 4 4 4 5 5
14 15 16 18 19 18 17 15 15 14 13 16 19 19 19 19 19 19 22 20 18 15 20 22 21 19 18 16 12 9 7 7 6 6 5 4 3 3 3 3 2 3 4
15 15 17 17 18 18 17 16 15 14 12 14 17 18 18 20 21 21 21 22 23 16 23 23 21 19 19 17 13 10 7 6 5 5 4 3 2 1 1 1 1 2 3
15 17 17 19 21 20 18 15 13 14 14 13 16 18 17 20 22 23 24 24 23 21 25 23 21 20 20 18 16 13 10 7 5 5 4 3 3 2 2 2 1 1 2
14 17 19 21 23 21 18 18 12 13 17 18 16 18 17 19 24 26 25 25 22 23 23 25 24 22 20 18 16 14 12 10 8 6 5 4 3 3 3 3 3 3 3
14 13 17 21 23 21 20 17 17 16 18 16 15 15 17 19 24 27 28 26 23 27 26 27 26 23 21 19 18 16 15 12 9 8 6 6 4 5 5 4 5 4 4
12 16 18 19 19 18 20 18 19 16 16 16 17 12 7 15 23 27 28 27 26 29 30 29 26 24 22 20 19 18 16 14 12 11 10 8 6 6 6 6 6 6 5
9 13 16 19 21 20 20 21 19 16 17 17 20 22 23 19 20 23 33 33 31 29 31 29 26 24 23 21 20 19 17 17 14 12 12 11 8 8 7 7 7 6 7
14 14 14 20 20 20 20 22 24 25 25 24 22 25 29 30 25 24 20 33 30 28 28 28 27 25 24 23 22 20 19 17 17 14 13 13 12 10 9 8 8 5 7
19 15 15 17 20 21 21 22 28 26 26 30 33 29 27 38 28 28 26 21 29 27 27 27 29 28 27 25 24 22 21 20 18 17 17 16 14 12 10 9 9 7 9
22 17 15 14 18 20 18 14 15 21 26 28 30 34 29 31 29 28 27 23 19 30 25 30 32 31 29 27 25 22 20 20 19 18 19 18 15 15 14 12 13 12 12
24 21 15 15 16 18 19 21 21 21 27 23 22 27 24 27 28 31 30 27 21 29 34 34 34 32 31 28 25 23 22 22 21 21 22 19 19 19 21 17 16 15 13
21 22 17 16 20 20 21 22 25 23 24 23 24 21 22 30 29 34 33 35 33 37 36 34 36 35 34 28 25 24 25 24 24 25 24 23 22 23 20 19 18 18 16
21 20 19 18 21 23 22 20 21 22 22 21 23 25 27 32 34 31 34 35 32 36 38 35 37 37 34 30 29 26 22 27 29 27 25 25 23 21 22 21 21 21 21
20 20 19 21 21 23 22 21 21 22 23 23 23 25 28 31 39 35 36 38 38 39 36 38 40 39 36 34 34 24 11 13 16 28 28 26 26 24 24 23 24 24 24
21 19 19 19 19 21 22 22 20 22 28 25 22 24 25 23 33 38 40 44 41 40 39 40 40 38 37 39 36 35 27 12 11 11 25 29 30 29 27 28 28 27 24
9 12 13 14 18 22 22 23 24 25 28 26 26 26 28 28 29 30 36 46 43 40 40 39 39 40 43 43 38 39 39 32 20 18 20 20 31 29 33 31 32 31 26
7 6 5 7 10 11 13 14 16 23 25 27 32 32 32 32 33 32 34 36 36 37 38 41 42 42 44 43 40 40 41 37 36 31 24 19 23 30 31 37 38 36 31

GFSSE_850_spd_102.txt.gz
Wind_Speed
14 15 21 23 22 22 20 19 18 17 16 14 13 13 12 11 8 6 5 6 7 12 16 13 11 12 15 15 11 11 9 16 16 13 14 14 17 15 16 16 15 15 17
13 16 19 22 21 20 19 19 18 17 15 14 13 12 11 10 9 8 8 8 10 14 15 13 13 12 13 12 12 11 14 15 15 13 13 15 14 14 16 15 15 13 11
10 15 19 21 20 19 19 19 18 16 15 13 12 12 12 11 11 10 9 10 13 15 14 14 14 13 10 11 13 13 14 14 12 11 11 10 10 11 9 9 10 8 8
8 15 18 20 19 19 18 19 18 16 16 14 12 12 12 12 12 12 11 12 12 13 15 12 13 11 10 12 13 13 13 12 11 10 9 8 9 9 8 8 8 8 8
11 14 17 19 19 18 18 18 17 16 15 14 13 12 12 13 13 13 12 13 14 14 17 14 10 11 12 12 12 12 11 11 10 9 8 8 8 8 8 8 8 8 8
10 12 15 17 18 17 16 16 16 16 16 15 14 14 13 13 13 14 15 16 15 16 15 12 8 14 13 12 11 11 10 9 9 8 7 7 7 7 7 7 8 8 7
9 11 14 16 17 17 17 16 16 16 17 17 17 16 15 14 14 15 17 17 17 17 14 10 11 15 14 12 11 10 8 8 8 7 6 6 6 7 7 6 7 7 7
8 10 13 17 18 18 17 16 16 16 17 17 17 17 16 15 15 16 18 18 18 17 14 11 15 16 14 12 10 9 8 7 7 6 6 6 6 6 5 5 5 5 6
10 11 12 18 19 18 17 16 16 16 16 17 17 17 17 16 17 18 18 19 19 17 15 14 18 17 15 12 10 8 7 6 6 6 6 5 5 5 4 3 3 4 5
13 14 13 16 19 19 18 17 16 16 15 16 17 19 18 18 17 19 18 19 18 17 16 18 20 19 16 14 11 8 8 7 6 6 5 4 4 3 2 2 2 3 3
13 15 16 17 19 19 19 18 17 15 14 14 17 20 19 19 18 19 19 20 19 18 18 20 22 20 18 16 13 10 8 7 6 5 5 4 3 2 1 1 1 1 2
13 15 17 17 18 20 19 19 17 15 13 12 13 16 19 19 19 20 20 21 20 19 14 23 23 21 21 19 16 13 10 8 7 6 5 5 4 4 3 2 1 1 1
10 14 16 18 20 21 22 20 17 14 12 12 13 16 17 19 20 22 22 23 23 21 18 23 24 22 22 21 17 15 12 10 8 8 7 6 5 5 5 4 4 3 3
11 14 16 19 21 22 23 20 19 15 13 14 14 14 17 19 21 24 25 25 24 23 21 25 25 23 23 22 20 17 15 13 11 10 9 9 8 7 6 6 6 5 5
14 12 17 17 19 22 23 23 19 16 14 14 14 14 14 15 19 22 26 28 27 24 24 25 25 25 24 23 22 20 18 16 14 12 12 11 9 8 7 8 8 7 7
20 15 17 20 21 21 20 24 15 14 13 13 13 14 11 11 13 18 25 29 29 27 24 28 27 27 25 24 23 22 20 18 16 15 14 14 12 10 9 9 9 9 8
25 20 16 20 19 20 21 22 22 16 20 17 18 17 18 19 19 22 23 28 28 30 28 30 30 30 26 25 25 24 21 20 19 18 16 16 15 13 11 11 10 9 8
30 23 19 17 19 21 22 22 21 22 22 21 24 25 25 25 24 25 28 29 30 33 33 30 32 31 28 27 27 26 24 22 22 21 19 18 17 16 14 13 11 11 10
30 26 21 18 18 20 20 20 21 24 25 24 28 28 27 27 28 28 29 30 27 27 37 31 31 28 29 29 29 27 27 25 24 23 23 22 20 18 17 15 13 14 14
26 27 24 19 16 16 18 19 20 19 20 25 26 26 24 24 25 24 26 30 31 29 31 32 37 29 31 30 30 29 27 26 24 25 25 22 22 21 19 19 18 17 16
25 26 26 20 17 17 19 22 24 23 24 24 23 21 21 21 24 21 25 28 30 28 26 26 28 26 30 35 33 32 30 29 28 28 27 26 26 24 23 22 21 21 19
23 25 28 25 19 19 19 18 19 18 18 20 21 22 21 21 24 25 26 29 31 30 29 30 37 37 33 35 36 32 29 31 32 33 31 31 29 26 26 24 22 22 21
22 24 30 26 21 19 18 19 19 19 20 21 20 21 20 21 24 29 30 35 32 31 37 40 38 40 40 37 44 35 15 18 24 34 37 35 31 30 27 25 24 23 23
22 27 28 25 23 20 19 19 20 22 24 23 22 21 20 20 23 27 31 34 42 39 38 40 43 44 43 44 45 42 36 20 13 15 25 33 33 32 30 27 28 25 25
17 19 20 19 19 18 18 18 20 22 23 25 25 25 26 24 23 26 32 37 37 40 44 43 40 43 42 43 44 42 41 42 34 20 15 21 29 32 33 33 28 27 30
13 16 15 16 14 14 11 12 14 17 21 24 25 25 27 29 32 31 31 33 39 39 38 45 46 42 44 46 45 47 42 42 44 36 28 25 25 25 33 33 27 25 30

GFSSE_850_spd_105.txt.gz
Wind_Speed
8 13 20 19 18 16 15 15 15 14 13 13 11 11 11 9 7 4 5 7 8 12 10 9 13 16 16 13 10 8 16 16 14 14 16 14 14 16 15 15 16 16 16
6 13 20 21 19 17 16 15 15 14 13 12 12 11 11 10 8 6 6 7 10 15 12 10 11 15 13 10 9 13 15 15 13 14 16 15 15 15 16 15 13 10 8
6 12 18 21 19 18 17 15 15 14 13 11 11 11 11 10 9 8 8 9 11 14 13 13 13 11 9 11 12 14 14 13 13 13 12 12 11 9 8 8 8 7 7
6 12 16 19 19 18 17 16 15 15 13 12 11 11 11 10 9 10 10 11 13 14 14 14 12 9 10 13 13 13 12 11 11 10 10 9 8 8 7 7 8 8 7
6 11 14 18 19 18 17 16 16 15 14 13 11 10 10 10 10 10 10 13 13 14 15 11 9 8 11 13 13 12 11 10 9 9 9 8 8 8 7 7 7 7 8
6 10 13 16 16 17 16 16 16 15 15 13 12 11 12 11 11 12 12 13 14 14 17 10 7 9 11 12 11 10 10 9 8 8 7 7 7 7 7 7 7 7 7
6 11 12 14 16 16 16 16 16 16 16 15 14 14 13 13 12 13 14 15 15 16 15 11 8 12 13 12 11 10 8 8 8 7 6 6 6 7 6 6 6 6 6
7 9 10 13 15 17 17 17 16 16 16 15 16 15 14 14 14 14 15 16 16 17 14 11 11 14 14 13 11 9 8 7 7 7 6 6 6 6 5 4 5 5 5
8 11 11 12 15 16 16 16 16 16 16 16 17 17 16 16 15 15 16 17 17 18 16 12 12 16 15 14 12 10 8 7 7 6 6 6 6 5 4 3 3 3 3
9 11 12 13 14 17 17 17 17 16 16 17 17 18 19 19 18 17 16 17 18 18 16 14 14 18 16 14 12 10 9 7 7 6 6 6 5 5 3 2 2 1 2
10 12 15 16 16 17 18 18 17 17 16 16 17 19 19 20 20 19 18 17 18 18 16 15 17 19 18 15 13 11 10 9 7 6 6 6 5 4 3 2 1 0 1
10 12 16 18 18 18 19 19 19 18 16 15 15 18 21 21 21 20 19 19 20 19 17 17 20 22 20 19 16 14 12 10 9 8 7 6 6 5 5 4 3 2 1
10 10 14 17 20 19 19 21 21 18 17 15 14 14 17 19 21 22 21 21 21 21 19 13 22 25 23 22 19 16 14 12 11 10 9 8 7 7 7 6 5 4 4
15 12 12 17 20 21 21 23 21 20 18 13 13 13 16 18 20 22 23 24 24 24 21 19 21 26 25 24 22 19 17 15 13 12 11 11 10 9 9 8 7 7 6
24 17 14 16 20 23 23 22 23 20 17 14 14 14 14 15 16 18 20 24 26 26 24 21 21 26 25 25 24 23 20 18 16 14 13 12 11 11 10 10 9 9 8
31 25 20 18 20 22 25 23 21 22 18 12 12 13 12 12 12 14 17 21 27 27 26 23 22 27 26 25 26 25 23 21 19 17 16 16 15 13 12 12 11 10 10
33 32 26 20 21 22 25 24 25 25 10 10 14 17 14 13 14 13 14 18 20 25 27 26 25 28 27 27 27 26 25 23 22 21 19 18 17 17 15 14 13 12 11
29 33 30 24 22 22 25 25 26 26 20 13 13 22 21 21 19 19 21 20 22 26 28 26 26 29 31 29 29 28 28 25 25 23 22 21 20 20 19 17 15 14 13
28 30 33 27 23 22 25 26 26 25 24 26 22 27 28 23 23 25 26 25 24 27 29 28 28 33 28 30 28 29 29 28 27 26 26 25 23 22 21 20 18 17 15
26 27 29 30 25 22 24 25 24 25 25 27 28 28 25 25 25 24 25 23 24 26 29 29 30 34 35 30 32 34 31 29 29 29 29 28 27 26 25 22 22 21 18
25 25 26 29 26 24 26 27 27 26 25 22 22 23 22 24 21 21 20 21 20 26 28 29 27 29 33 37 32 33 34 34 32 31 33 30 30 28 26 26 25 25 24
24 25 23 28 27 23 26 27 25 20 19 18 19 20 19 18 20 21 21 22 21 23 24 26 26 29 36 34 33 31 28 33 36 40 37 35 33 31 30 30 28 27 25
22 25 23 25 31 25 27 24 20 19 19 18 14 14 15 17 19 21 23 24 23 24 26 27 27 28 30 35 35 30 17 21 29 32 38 38 36 35 33 32 32 29 28
21 23 23 27 32 28 23 20 20 19 18 17 17 18 19 19 19 22 22 25 26 27 30 32 29 32 33 35 37 40 40 29 19 21 27 33 36 39 39 37 34 31 29
10 13 17 20 28 26 19 18 18 18 17 18 19 20 20 22 24 23 23 21 25 29 31 33 35 38 41 44 48 45 46 51 46 30 25 24 22 27 39 39 34 34 33
4 6 14 20 20 18 15 15 14 13 14 16 17 19 20 19 21 24 26 29 27 29 32 33 35 36 39 44 44 46 47 41 48 45 41 42 33 27 27 33 37 36 34

GFSSE_850_spd_108.txt.gz
Wind_Speed
5 9 14 14 15 15 14 14 13 11 11 11 11 10 9 7 5 3 4 5 7 8 8 10 14 13 13 12 9 12 14 12 12 12 12 13 14 13 13 14 14 13 10
4 10 15 15 15 14 14 13 14 12 11 10 10 10 10 9 6 4 5 6 9 8 8 10 14 13 11 8 8 12 13 12 13 13 12 13 13 14 14 13 10 7 6
2 10 14 16 16 14 13 14 13 13 13 11 10 10 10 10 8 7 7 8 12 12 9 10 14 10 10 9 12 13 12 12 12 12 11 8 9 8 8 6 5 5 5
1 9 11 17 16 16 15 14 14 13 12 12 11 10 10 10 9 8 8 9 14 13 12 11 10 8 10 12 13 13 12 11 11 10 6 6 5 6 5 5 5 5 5
1 7 12 16 16 16 16 15 14 13 13 12 11 11 9 9 10 10 9 10 14 14 14 12 9 7 11 13 13 12 10 9 9 8 7 7 5 5 6 6 5 5 5
3 7 11 15 16 15 14 14 14 14 13 13 11 10 10 10 10 10 10 12 13 14 15 11 9 8 10 12 12 11 9 8 8 7 6 6 6 5 5 5 5 5 5
3 7 9 13 14 14 15 14 14 14 13 13 12 12 11 12 11 11 12 13 14 14 16 11 7 9 11 11 11 10 9 8 7 6 6 6 5 5 5 4 4 4 4
5 6 8 10 14 15 15 15 15 15 14 15 15 14 13 13 13 13 14 14 15 15 18 12 8 10 12 11 11 9 9 7 7 6 6 6 6 5 4 3 2 2 3
6 7 8 9 11 14 16 17 16 15 15 16 15 16 15 15 15 15 15 15 16 16 17 13 9 12 13 12 11 9 8 8 7 7 6 5 6 5 4 2 1 1 2
8 10 11 11 12 12 14 18 18 17 16 16 17 17 18 18 17 17 17 17 18 17 18 14 12 13 16 14 12 10 9 8 7 8 7 7 6 5 4 3 2 1 1
7 10 13 14 13 13 15 16 17 17 17 17 18 19 18 19 16 17 18 18 18 18 19 17 14 15 18 16 14 13 11 8 8 8 7 8 7 6 5 4 3 2 2
10 10 12 15 18 17 17 19 19 19 18 16 17 17 18 15 16 17 18 18 18 20 20 18 16 17 19 18 17 16 14 11 10 9 8 9 9 8 7 7 5 4 3
18 15 13 15 17 20 21 20 22 21 19 18 15 15 15 16 16 17 17 20 21 22 22 21 18 20 23 17 16 16 15 13 12 12 12 11 10 10 10 9 8 7 6
23 21 17 17 18 20 23 23 21 21 21 20 17 14 16 15 16 16 17 19 21 21 22 19 16 17 21 23 19 18 16 16 13 12 13 13 12 11 11 11 11 10 9
27 27 24 21 20 21 23 25 25 24 22 21 19 16 15 16 16 16 19 21 20 22 22 21 17 15 20 25 25 22 19 18 15 13 13 15 14 14 13 13 13 13 12
27 29 30 27 25 23 25 27 27 25 22 23 21 16 17 16 16 17 17 20 20 22 25 25 22 21 20 21 22 25 24 23 21 17 17 15 17 16 16 15 15 15 13
28 27 31 31 28 28 27 28 29 27 25 24 22 20 17 16 16 15 14 16 15 18 22 26 27 26 21 24 22 19 20 20 22 22 22 21 20 19 19 18 17 16 16
28 30 29 28 30 27 29 30 28 28 26 20 21 14 11 17 19 17 16 17 18 18 20 25 27 28 23 26 27 27 28 23 23 19 20 23 23 22 21 22 20 19 18
26 27 30 29 31 28 26 28 29 30 30 28 20 17 17 12 25 22 21 21 18 20 23 25 27 28 27 26 33 34 29 27 26 23 21 22 24 25 24 24 23 22 21
24 24 27 28 25 28 26 27 30 33 31 33 29 24 20 21 23 26 26 24 23 24 25 25 29 30 29 27 28 31 37 33 26 23 23 21 21 24 27 27 26 26 25
24 26 26 25 27 28 27 28 30 31 30 33 34 34 32 25 19 34 29 24 24 23 22 24 27 29 29 28 32 39 40 41 40 33 29 28 28 25 23 29 30 30 29
23 24 25 24 24 27 28 28 28 32 33 29 26 26 25 27 25 27 23 22 21 19 20 23 25 28 28 23 26 22 24 33 41 43 38 34 34 34 36 35 34 32 31
19 20 25 25 24 25 26 23 24 20 23 23 22 18 19 20 21 20 20 22 22 20 19 22 25 24 21 21 26 24 12 19 25 32 39 39 37 39 40 43 39 35 34
22 18 23 24 23 22 24 19 23 20 19 19 15 13 13 15 16 17 18 20 21 21 22 23 24 25 26 29 30 30 36 24 12 21 30 27 35 38 41 41 43 39 36
21 12 10 13 15 17 28 19 17 19 16 17 16 15 14 15 17 18 20 21 21 21 21 23 26 29 32 35 37 39 37 40 41 38 25 22 28 30 33 38 38 38 40
8 1 5 8 7 11 20 17 11 13 17 14 12 10 12 14 14 15 18 21 22 25 25 27 29 31 32 34 35 42 43 39 44 43 42 43 34 30 30 32 35 33 35

GFSSE_850_spd_111.txt.gz
Wind_Speed
9 10 8 9 11 12 12 11 9 8 9 8 7 7 6 4 1 0 1 2 5 5 6 9 10 10 10 7 9 9 10 11 9 9 11 12 12 12 13 12 13 8 8
9 9 6 10 11 12 12 11 10 8 8 8 7 7 7 6 4 3 3 3 5 5 6 10 9 10 8 5 8 9 8 9 10 10 10 9 11 13 13 11 7 5 5
8 6 6 10 10 10 11 11 10 9 8 8 7 7 7 7 6 5 4 5 6 5 4 9 8 9 7 5 9 10 9 10 11 12 14 6 8 8 6 4 3 3 4
6 5 5 10 11 11 10 11 11 10 10 9 8 8 8 8 7 6 6 6 9 8 6 8 9 6 6 8 10 10 9 10 10 11 8 4 3 3 3 2 2 3 3
4 4 7 11 12 12 12 11 11 11 11 10 9 9 8 8 7 7 7 8 12 11 10 10 7 5 6 9 10 9 9 8 9 7 5 5 2 3 3 3 3 3 4
2 2 8 11 13 12 12 12 12 11 12 11 10 10 10 9 8 8 8 8 12 13 13 11 9 6 8 9 10 9 8 7 7 5 4 7 6 3 4 3 3 3 3
2 4 5 8 12 12 12 13 13 13 12 11 11 11 10 10 10 9 10 10 12 13 13 12 9 8 10 10 9 8 7 7 6 4 4 5 4 4 3 2 2 2 3
2 6 4 8 11 12 12 14 14 14 14 13 13 13 12 11 12 12 12 12 13 13 12 15 9 9 12 11 10 8 7 7 6 4 5 5 4 5 3 2 1 1 1
5 6 7 6 10 13 15 14 14 14 14 14 14 15 14 14 13 14 15 14 15 15 14 18 12 10 13 12 11 10 8 7 8 5 4 5 6 5 4 3 1 0 0
9 9 10 10 9 9 11 15 17 17 16 15 15 16 16 17 17 16 16 16 17 17 16 18 15 11 13 13 13 11 10 9 7 9 6 9 7 6 5 4 2 1 1
12 13 12 14 15 12 13 13 17 18 17 18 18 18 18 19 15 17 19 18 18 17 17 19 17 13 15 16 15 13 12 10 5 8 6 12 9 8 6 5 4 3 3
14 14 15 16 17 18 17 14 15 14 16 18 18 16 16 15 13 15 18 20 19 18 19 19 18 15 15 18 18 17 15 11 10 9 9 12 10 10 8 7 6 5 5
15 18 17 18 19 20 21 21 19 18 19 15 14 14 13 13 17 17 19 22 21 21 21 22 22 20 18 17 14 18 18 13 12 11 13 13 12 11 10 9 8 8 7
18 21 23 21 23 20 23 24 24 21 21 23 21 17 15 15 16 17 15 18 20 22 23 23 22 19 17 20 16 16 15 13 14 12 13 15 14 13 12 12 11 11 10
21 21 22 24 25 25 23 25 26 27 23 19 18 20 16 16 15 16 17 18 20 20 22 23 22 17 17 18 20 19 17 16 14 13 13 16 16 15 14 14 14 14 13
22 23 21 21 25 27 28 26 28 29 28 23 22 25 24 22 20 18 18 22 22 22 21 20 23 24 20 19 20 20 18 19 17 16 15 15 17 18 17 16 16 15 15
23 24 24 24 22 24 24 27 25 32 31 27 27 26 26 23 19 16 17 17 17 19 18 21 23 23 23 25 21 17 19 20 20 18 18 17 17 18 19 19 18 18 17
23 25 25 24 24 23 22 23 22 27 31 30 26 27 28 27 22 18 14 14 14 13 15 19 22 27 29 28 21 27 27 26 24 20 19 20 20 20 20 21 20 20 19
21 22 24 23 25 25 23 24 24 28 26 28 28 28 20 24 21 20 19 14 14 14 16 18 20 22 24 25 27 26 28 34 32 28 26 23 24 25 22 21 22 21 23
21 21 22 22 23 22 22 25 23 30 28 28 24 26 26 24 19 21 23 16 17 16 21 24 23 25 25 26 26 28 28 29 31 32 27 27 26 24 25 26 25 23 23
23 21 21 21 22 20 21 22 22 30 27 32 29 29 29 24 22 19 17 11 14 29 29 24 21 22 25 27 24 25 26 27 32 39 39 32 28 26 26 26 25 25 25
25 24 24 23 21 20 21 22 25 23 27 30 37 33 29 28 26 25 26 24 22 31 27 23 23 25 28 28 29 24 18 26 31 37 41 46 42 34 34 32 32 30 26
25 23 22 20 21 20 20 21 26 25 22 24 31 29 32 31 30 31 30 27 28 28 24 22 22 23 26 25 26 25 9 14 17 22 29 35 49 49 42 39 38 36 34
25 23 20 18 19 20 20 20 23 23 23 26 29 24 21 20 20 21 21 23 23 24 22 23 21 20 24 28 24 25 28 23 11 15 19 24 25 36 41 41 41 40 41
19 21 16 15 13 15 16 18 19 18 21 26 25 24 19 13 11 11 14 18 19 20 21 23 23 24 27 28 30 31 30 31 32 34 26 24 22 31 31 28 30 39 42
14 16 14 11 8 6 8 11 11 11 7 17 13 13 15 16 14 14 15 17 16 19 21 23 24 26 27 29 30 33 34 30 32 36 37 40 39 40 32 34 39 41 37

GFSSE_850_spd_114.txt.gz
Wind_Speed
9 6 5 4 7 9 9 7 5 5 5 5 4 3 3 2 1 2 3 2 3 3 5 8 9 10 6 8 9 9 9 8 8 9 11 12 11 11 11 13 7 8 8
8 5 2 5 6 8 9 7 6 5 5 5 4 4 4 4 2 3 2 0 2 4 4 8 7 8 4 6 7 7 7 9 10 11 9 8 10 12 12 9 4 6 5
7 5 2 3 6 6 7 7 5 5 5 5 5 5 5 5 4 3 3 2 3 4 4 6 6 6 3 4 7 7 8 12 14 12 10 6 6 6 4 3 4 4 4
5 4 3 3 6 8 8 7 7 6 6 6 6 6 5 6 5 4 4 4 5 5 4 6 7 6 3 4 7 8 9 12 14 14 8 4 0 1 1 2 3 3 3
3 1 4 6 7 9 9 8 7 7 7 8 8 7 6 6 6 5 5 5 7 7 8 7 6 4 4 6 8 9 8 9 11 10 9 6 2 2 1 1 2 3 4
2 1 2 5 8 10 10 9 9 9 9 9 8 8 8 8 7 7 6 6 9 10 10 9 7 4 5 7 8 8 8 8 8 6 5 8 3 2 2 1 2 3 3
2 3 2 5 8 10 10 10 10 11 10 10 10 10 10 9 9 8 8 8 9 10 9 11 9 6 7 8 9 8 7 8 7 5 2 7 4 3 2 1 1 1 2
2 5 2 3 5 9 10 11 12 11 11 12 12 11 11 10 11 11 10 10 10 10 11 12 11 7 9 9 10 9 8 8 7 5 6 7 4 4 3 2 1 0 1
5 4 8 8 6 7 9 12 13 13 13 13 13 14 14 13 12 12 12 12 12 12 12 12 15 10 10 12 11 10 9 9 9 6 7 7 6 6 5 3 2 1 0
11 8 7 9 9 10 8 10 11 16 16 15 15 15 15 16 15 15 14 15 14 14 15 15 16 13 11 14 13 12 11 10 9 8 9 11 7 7 7 5 4 2 2
12 14 12 11 11 14 13 15 14 14 17 19 18 17 17 18 17 17 17 17 16 16 16 16 17 15 13 15 15 14 13 11 11 8 9 11 10 10 9 7 6 5 4
14 16 18 18 15 15 16 17 19 16 16 19 20 20 20 19 20 14 13 15 15 16 17 17 19 18 16 16 18 17 16 13 11 6 11 13 13 12 10 9 8 7 6
15 18 20 21 20 19 20 19 21 21 18 16 15 16 16 16 12 12 18 19 19 19 19 19 21 22 21 17 19 20 18 16 12 13 16 16 15 14 13 11 10 9 8
20 21 22 22 24 24 22 24 21 25 25 25 25 21 18 17 15 17 20 21 22 20 20 22 23 23 22 20 20 19 17 19 17 14 17 18 16 16 15 13 12 12 11
21 22 22 23 24 24 27 25 26 23 27 26 26 28 25 20 23 23 21 18 17 21 19 21 24 23 22 21 18 20 19 15 14 18 19 20 18 17 17 16 15 14 13
21 23 23 22 22 23 26 27 26 28 25 27 28 27 23 29 25 22 21 22 25 24 20 19 22 25 23 21 21 21 23 23 20 19 19 21 21 19 19 18 17 17 15
21 22 22 24 23 22 26 27 29 27 29 26 30 29 31 27 28 26 24 23 25 25 22 22 22 22 23 25 27 26 28 29 24 25 21 23 25 24 21 21 20 19 18
23 25 23 23 25 27 27 25 25 26 27 33 29 30 33 30 29 29 27 25 22 20 17 18 21 23 24 26 29 28 28 27 26 27 26 28 30 30 27 23 22 21 21
20 23 27 25 24 26 29 26 30 28 24 32 31 31 32 31 31 29 27 24 23 20 15 13 17 19 20 24 27 27 26 25 29 34 31 29 26 28 27 26 24 23 23
24 22 19 25 28 25 24 26 27 27 29 30 32 30 34 33 31 31 31 27 24 19 16 15 15 18 20 21 23 24 24 27 27 30 35 35 33 30 31 30 29 28 25
27 29 25 21 20 25 24 23 24 28 31 31 31 31 28 28 29 29 28 26 25 21 18 30 18 23 21 19 20 25 26 27 30 33 31 34 39 36 34 31 30 30 28
26 27 27 24 23 17 21 22 25 26 27 34 34 31 35 31 32 33 28 27 23 20 18 21 18 22 23 21 23 19 19 23 29 32 33 34 36 39 37 34 32 35 33
27 29 29 26 20 20 19 23 26 26 29 31 30 32 39 32 35 36 29 27 24 22 23 25 23 24 23 23 24 21 7 12 16 21 25 25 27 31 38 45 41 37 37
24 27 25 22 21 20 19 21 24 27 27 28 29 31 32 36 41 35 29 27 28 24 25 24 23 24 21 24 21 25 25 25 9 9 14 19 22 26 27 28 35 48 49
19 21 22 21 21 16 15 17 19 20 18 11 16 26 24 31 30 38 24 22 20 20 19 20 21 22 23 25 25 25 26 27 28 33 28 31 31 25 26 31 32 30 32
14 14 18 19 17 14 11 8 11 14 15 12 13 15 13 4 16 18 22 19 15 15 16 17 20 22 23 24 24 25 26 26 26 28 32 35 39 41 40 41 34 31 32

GFSSE_850_spd_117.txt.gz
Wind_Speed
8 4 3 4 5 7 7 5 3 2 2 3 3 4 3 2 2 3 4 3 4 4 5 8 9 7 7 8 8 8 9 7 8 9 10 10 10 10 8 9 7 8 8
6 2 1 3 4 6 6 5 3 2 2 2 1 1 2 2 1 2 2 1 3 4 6 7 8 6 4 7 7 7 8 9 10 10 9 7 10 11 12 6 4 5 5
5 2 0 1 4 6 6 5 4 4 3 3 3 2 3 4 3 3 1 1 3 5 6 6 6 7 0 4 6 7 12 13 12 10 9 7 6 5 2 2 3 4 4
4 2 0 2 6 5 6 6 5 5 4 4 4 4 4 4 4 3 3 2 4 4 4 5 7 5 2 3 6 9 13 13 11 6 2 4 1 1 0 2 3 4 4
1 2 1 5 4 6 6 6 6 6 6 6 6 6 6 5 5 4 4 4 5 5 7 6 8 5 4 5 7 10 12 12 11 6 3 1 3 1 0 1 2 3 3
0 2 4 2 4 6 8 9 8 8 7 8 7 7 7 6 6 5 5 5 7 8 8 7 7 5 4 5 6 9 11 11 9 8 5 8 3 1 1 2 1 2 2
1 2 5 3 3 4 8 9 10 10 10 10 10 10 9 8 8 9 7 7 8 10 8 10 9 7 6 7 8 8 9 11 9 7 6 6 4 3 3 2 1 1 1
1 3 5 5 6 5 6 8 10 11 12 12 11 11 11 10 10 10 10 9 9 10 11 11 12 9 8 9 9 9 9 10 9 8 7 6 4 4 5 3 2 1 1
4 2 7 9 9 8 9 10 11 11 12 13 14 14 14 13 13 12 12 12 12 11 12 13 14 13 10 11 12 11 11 12 11 9 8 8 6 6 6 5 4 3 2
11 8 6 8 10 11 11 13 12 13 13 14 15 16 16 16 15 15 15 14 14 14 14 15 15 17 13 13 15 14 13 13 13 11 9 8 7 7 7 7 6 5 4
9 13 14 11 10 13 15 17 17 15 15 16 17 18 18 19 18 18 18 17 16 16 16 17 17 17 18 15 16 16 16 15 15 14 11 12 10 10 9 9 7 6 5
11 11 14 18 16 15 15 16 20 20 18 18 18 17 20 20 20 20 19 17 14 14 17 18 19 20 21 19 17 19 18 17 16 15 12 11 12 11 11 11 10 9 8
17 17 18 20 22 22 20 19 18 21 23 21 21 19 18 17 17 19 18 18 15 17 18 18 20 23 24 22 19 20 20 19 17 18 16 13 14 13 13 13 12 11 10
19 19 19 19 21 22 23 23 23 23 22 26 25 24 23 21 21 19 16 18 20 22 22 23 22 24 24 24 22 21 22 22 20 20 18 17 17 16 16 15 14 13 13
13 14 17 18 20 22 22 24 24 27 26 25 29 28 30 27 24 23 22 23 24 23 24 23 22 25 25 25 24 24 24 21 17 23 21 19 20 18 18 18 17 15 15
20 22 21 21 21 19 23 25 27 26 28 29 28 30 29 31 32 29 30 29 31 28 25 23 22 23 25 25 24 24 24 24 19 19 23 23 23 23 21 19 20 18 17
24 24 23 21 20 22 22 23 25 24 26 30 31 28 31 30 30 32 31 31 28 30 29 27 25 22 23 24 26 26 24 26 24 24 24 24 25 26 25 22 21 22 21
24 24 23 24 23 21 23 26 27 29 26 28 28 30 30 32 34 31 33 33 30 32 32 28 26 25 26 26 27 31 31 32 34 32 28 25 27 27 27 26 23 23 24
22 26 28 29 28 27 25 23 25 27 28 30 31 28 31 31 35 36 35 36 35 33 31 31 26 24 23 22 24 28 32 35 28 31 36 31 32 32 30 30 29 27 26
22 22 22 22 23 26 26 24 22 24 28 28 29 31 29 31 34 36 34 35 36 34 31 30 25 22 21 17 16 20 23 23 26 27 29 33 36 33 32 31 30 31 29
19 21 22 24 22 21 23 23 23 21 22 23 24 27 29 31 32 35 38 39 40 38 33 25 18 17 16 16 16 18 25 26 24 24 28 31 35 36 36 35 36 36 34
22 22 26 25 24 19 19 21 20 20 23 25 25 25 29 33 33 31 35 39 37 38 34 28 22 21 21 23 20 20 17 24 24 26 27 29 31 31 34 36 40 39 39
24 23 27 27 27 23 20 20 19 18 23 25 26 27 30 29 29 37 37 37 34 36 35 31 25 21 22 20 21 17 9 15 15 18 24 25 23 24 25 29 34 39 40
24 22 24 26 27 25 21 19 17 17 22 24 24 25 27 28 28 31 37 40 38 33 27 27 23 20 22 20 19 21 26 27 15 11 18 20 19 20 22 23 25 27 33
22 19 20 23 25 24 20 18 16 15 16 17 16 16 18 18 22 29 25 35 40 32 30 25 24 22 19 17 21 21 21 24 27 29 21 22 25 29 29 29 29 29 30
17 17 16 20 22 24 16 16 15 13 13 11 12 20 9 10 4 6 13 5 13 35 32 28 20 15 16 16 18 18 20 21 23 25 27 30 31 37 35 36 34 33 36

GFSSE_850_spd_120.txt.gz
Wind_Speed
8 5 3 3 5 5 5 3 3 3 3 3 2 3 2 1 1 2 2 2 3 5 7 8 7 7 5 6 7 5 6 4 6 8 8 8 8 7 8 9 7 6 7
7 1 2 3 5 5 5 4 3 3 3 3 2 2 2 2 2 3 2 1 2 4 8 8 7 4 3 5 7 7 6 7 9 8 7 7 7 8 7 4 4 4 4
4 2 2 2 5 5 6 5 4 3 3 2 2 2 3 4 2 3 2 2 2 3 7 8 7 5 1 5 7 8 8 10 11 9 8 7 5 3 2 2 2 3 3
3 2 1 3 5 4 5 5 5 5 4 4 4 4 4 4 5 4 3 4 4 5 5 6 7 7 3 4 7 10 11 10 8 7 7 6 2 2 1 1 2 2 2
2 4 3 5 3 5 5 6 6 6 6 6 6 6 6 6 5 5 4 5 7 7 8 8 9 6 5 5 7 11 12 10 7 5 6 4 0 2 2 0 2 2 2
0 2 4 4 3 4 6 8 8 8 8 8 8 8 8 8 7 7 6 6 8 9 9 8 10 7 6 6 8 11 13 11 8 6 4 3 2 3 2 2 1 1 1
2 2 4 6 5 4 5 7 9 10 11 11 11 11 10 10 10 9 9 8 10 10 10 11 11 10 7 8 10 11 13 13 11 9 7 5 6 5 4 3 2 1 1
3 3 6 7 7 8 7 8 9 11 12 13 13 13 13 12 12 11 11 11 11 11 13 13 14 12 10 10 11 13 13 14 14 11 9 6 7 6 6 5 4 3 3
5 3 5 8 9 9 10 10 11 12 13 14 15 15 16 16 16 15 14 13 13 13 14 15 15 16 13 12 13 14 14 15 15 13 11 9 8 7 7 7 6 5 4
8 7 6 6 9 11 12 13 14 13 14 15 16 17 18 19 19 18 17 16 15 15 16 16 17 17 18 15 15 16 16 16 17 16 13 11 9 8 8 8 8 7 6
8 10 12 12 10 11 14 17 18 18 17 17 16 17 20 21 21 20 20 19 18 17 17 19 20 20 20 21 17 19 19 18 18 18 16 13 12 10 10 10 10 9 8
13 12 14 17 18 18 17 17 18 20 21 20 19 20 20 22 22 22 22 22 21 20 19 21 21 22 23 24 22 20 22 21 21 21 19 16 14 14 12 12 12 11 10
15 15 15 17 18 19 19 20 21 22 22 23 23 22 23 23 22 22 23 23 24 23 23 21 22 24 26 25 27 24 22 23 22 22 22 19 16 15 15 13 14 14 13
13 16 19 20 20 21 22 22 22 22 24 25 23 26 24 27 26 26 23 22 22 25 24 21 23 23 25 27 28 27 24 24 25 24 24 23 21 17 18 16 16 16 15
15 19 22 23 23 23 23 24 26 25 25 25 27 26 29 30 32 30 28 27 26 26 25 26 27 28 28 28 29 30 28 26 26 28 27 27 25 21 20 20 18 18 18
18 23 25 26 24 24 25 26 26 27 27 26 27 27 28 30 34 35 35 32 31 32 31 30 31 29 28 28 29 31 31 30 28 28 26 30 27 25 23 22 21 20 20
21 26 28 27 25 26 26 26 28 29 31 32 30 28 29 30 30 34 34 36 37 36 35 34 34 30 28 26 29 31 32 32 30 30 27 26 29 27 26 26 24 22 22
26 30 28 27 26 27 28 28 27 27 28 30 33 33 30 29 32 30 32 34 34 34 36 37 35 34 32 29 28 29 32 32 31 30 30 30 31 29 28 28 27 25 23
27 23 22 22 22 23 24 24 26 26 26 26 28 30 33 33 30 31 31 33 34 37 38 38 37 35 34 32 31 30 32 34 39 38 34 32 30 30 30 29 29 28 27
19 17 18 20 19 20 22 24 24 24 23 21 20 22 27 29 31 30 32 34 33 36 40 39 39 37 35 33 32 29 28 25 22 20 40 38 37 29 27 32 30 33 32
14 15 17 20 20 23 23 23 23 20 20 19 18 19 23 23 25 30 31 32 32 34 37 38 37 37 35 29 24 24 28 27 21 20 19 23 27 30 35 36 34 33 34
15 16 17 21 23 23 23 22 22 22 20 20 20 22 25 26 27 29 34 35 32 31 37 40 39 38 35 26 25 22 18 20 25 24 20 24 23 24 30 37 42 40 38
15 17 18 20 23 24 23 18 17 15 17 19 21 24 23 25 26 27 29 32 34 31 31 37 42 41 33 30 28 22 8 11 10 17 23 22 21 23 27 26 31 34 37
15 17 16 19 22 25 23 18 19 18 20 19 19 19 22 24 24 23 20 26 28 31 29 35 36 34 31 30 23 23 25 19 8 10 17 18 21 22 23 21 23 25 24
14 16 17 19 20 25 23 19 20 17 16 17 15 18 22 21 17 13 9 15 21 20 31 29 41 37 31 30 29 23 20 18 15 19 17 19 19 24 24 22 27 27 28
10 14 16 15 16 19 21 20 21 21 21 21 20 22 23 18 12 11 11 8 4 7 7 24 25 27 36 30 22 15 15 13 14 14 16 22 25 25 26 27 32 30 32